<?xml version="1.0" encoding="UTF-8" standalone="no" ?>
<gpx xmlns="http://www.topografix.com/GPX/1/1" xmlns:xsi="http://www.w3.org/2001/XMLSchema-instance" xsi:schemaLocation="http://www.topografix.com/GPX/1/1 http://www.topografix.com/GPX/1/1/gpx.xsd" version="1.1" creator="VisuGPX - https://www.visugpx.com">
  <metadata>
    <name>St Germains Boens</name>
  </metadata>
  <trk>
    <name><![CDATA[St Germains Boens]]></name>
    <trkseg>
      <trkpt lat="45.78484" lon="4.38864">
        <ele>583.16949462891</ele>
        <time>2020-11-13T17:06:12.000Z</time>
      </trkpt>
      <trkpt lat="45.78471" lon="4.38876">
        <ele>584.56964111328</ele>
        <time>2020-11-13T17:06:12.002Z</time>
      </trkpt>
      <trkpt lat="45.78486" lon="4.38892">
        <ele>585.65393066406</ele>
        <time>2020-11-13T17:06:12.007Z</time>
      </trkpt>
      <trkpt lat="45.7852" lon="4.38919">
        <ele>587.765625</ele>
        <time>2020-11-13T17:06:12.019Z</time>
      </trkpt>
      <trkpt lat="45.78554" lon="4.38943">
        <ele>589.36730957031</ele>
        <time>2020-11-13T17:06:12.037Z</time>
      </trkpt>
      <trkpt lat="45.78582" lon="4.38955">
        <ele>592.04425048828</ele>
        <time>2020-11-13T17:06:12.059Z</time>
      </trkpt>
      <trkpt lat="45.78605" lon="4.38955">
        <ele>593.14807128906</ele>
        <time>2020-11-13T17:06:12.085Z</time>
      </trkpt>
      <trkpt lat="45.7872" lon="4.38935">
        <ele>594.56030273438</ele>
        <time>2020-11-13T17:06:12.130Z</time>
      </trkpt>
      <trkpt lat="45.78731" lon="4.38934">
        <ele>595.02227783203</ele>
        <time>2020-11-13T17:06:12.176Z</time>
      </trkpt>
      <trkpt lat="45.78753" lon="4.38938">
        <ele>597.06195068359</ele>
        <time>2020-11-13T17:06:12.226Z</time>
      </trkpt>
      <trkpt lat="45.78791" lon="4.38953">
        <ele>601.57629394531</ele>
        <time>2020-11-13T17:06:12.282Z</time>
      </trkpt>
      <trkpt lat="45.78834" lon="4.38955">
        <ele>602.84240722656</ele>
        <time>2020-11-13T17:06:12.345Z</time>
      </trkpt>
      <trkpt lat="45.789" lon="4.38952">
        <ele>603.56341552734</ele>
        <time>2020-11-13T17:06:12.419Z</time>
      </trkpt>
      <trkpt lat="45.78913" lon="4.38954">
        <ele>604.10333251953</ele>
        <time>2020-11-13T17:06:12.495Z</time>
      </trkpt>
      <trkpt lat="45.78935" lon="4.38961">
        <ele>605.14715576172</ele>
        <time>2020-11-13T17:06:12.574Z</time>
      </trkpt>
      <trkpt lat="45.78949" lon="4.38968">
        <ele>605.90301513672</ele>
        <time>2020-11-13T17:06:12.656Z</time>
      </trkpt>
      <trkpt lat="45.78956" lon="4.38972">
        <ele>606.29895019531</ele>
        <time>2020-11-13T17:06:12.739Z</time>
      </trkpt>
      <trkpt lat="45.7899" lon="4.39009">
        <ele>609.29760742188</ele>
        <time>2020-11-13T17:06:12.829Z</time>
      </trkpt>
      <trkpt lat="45.79008" lon="4.39025">
        <ele>610.95330810547</ele>
        <time>2020-11-13T17:06:12.922Z</time>
      </trkpt>
      <trkpt lat="45.79033" lon="4.39035">
        <ele>612.51947021484</ele>
        <time>2020-11-13T17:06:13.019Z</time>
      </trkpt>
      <trkpt lat="45.7907" lon="4.3904">
        <ele>614.54412841797</ele>
        <time>2020-11-13T17:06:13.122Z</time>
      </trkpt>
      <trkpt lat="45.7913" lon="4.39044">
        <ele>616.70373535156</ele>
        <time>2020-11-13T17:06:13.235Z</time>
      </trkpt>
      <trkpt lat="45.79193" lon="4.39047">
        <ele>618.11547851562</ele>
        <time>2020-11-13T17:06:13.358Z</time>
      </trkpt>
      <trkpt lat="45.79239" lon="4.39052">
        <ele>619.93859863281</ele>
        <time>2020-11-13T17:06:13.488Z</time>
      </trkpt>
      <trkpt lat="45.79283" lon="4.39056">
        <ele>622.14978027344</ele>
        <time>2020-11-13T17:06:13.626Z</time>
      </trkpt>
      <trkpt lat="45.79326" lon="4.39048">
        <ele>621.92413330078</ele>
        <time>2020-11-13T17:06:13.770Z</time>
      </trkpt>
      <trkpt lat="45.79338" lon="4.39047">
        <ele>621.64819335938</ele>
        <time>2020-11-13T17:06:13.916Z</time>
      </trkpt>
      <trkpt lat="45.79359" lon="4.39052">
        <ele>622.05609130859</ele>
        <time>2020-11-13T17:06:14.066Z</time>
      </trkpt>
      <trkpt lat="45.79384" lon="4.39064">
        <ele>623.33990478516</ele>
        <time>2020-11-13T17:06:14.220Z</time>
      </trkpt>
      <trkpt lat="45.79415" lon="4.39089">
        <ele>622.73999023438</ele>
        <time>2020-11-13T17:06:14.380Z</time>
      </trkpt>
      <trkpt lat="45.79446" lon="4.39125">
        <ele>623.14965820312</ele>
        <time>2020-11-13T17:06:14.546Z</time>
      </trkpt>
      <trkpt lat="45.79483" lon="4.39188">
        <ele>627.71228027344</ele>
        <time>2020-11-13T17:06:14.721Z</time>
      </trkpt>
      <trkpt lat="45.79497" lon="4.39208">
        <ele>629.70159912109</ele>
        <time>2020-11-13T17:06:14.899Z</time>
      </trkpt>
      <trkpt lat="45.79516" lon="4.39225">
        <ele>630.9853515625</ele>
        <time>2020-11-13T17:06:15.081Z</time>
      </trkpt>
      <trkpt lat="45.79545" lon="4.39242">
        <ele>631.54925537109</ele>
        <time>2020-11-13T17:06:15.268Z</time>
      </trkpt>
      <trkpt lat="45.79593" lon="4.39265">
        <ele>633.50653076172</ele>
        <time>2020-11-13T17:06:15.463Z</time>
      </trkpt>
      <trkpt lat="45.79628" lon="4.39284">
        <ele>635.51245117188</ele>
        <time>2020-11-13T17:06:15.664Z</time>
      </trkpt>
      <trkpt lat="45.79654" lon="4.39302">
        <ele>634.76202392578</ele>
        <time>2020-11-13T17:06:15.870Z</time>
      </trkpt>
      <trkpt lat="45.79671" lon="4.39324">
        <ele>634.48608398438</ele>
        <time>2020-11-13T17:06:16.079Z</time>
      </trkpt>
      <trkpt lat="45.79678" lon="4.39338">
        <ele>634.90600585938</ele>
        <time>2020-11-13T17:06:16.290Z</time>
      </trkpt>
      <trkpt lat="45.79684" lon="4.39371">
        <ele>637.68005371094</ele>
        <time>2020-11-13T17:06:16.505Z</time>
      </trkpt>
      <trkpt lat="45.79691" lon="4.39417">
        <ele>642.65924072266</ele>
        <time>2020-11-13T17:06:16.725Z</time>
      </trkpt>
      <trkpt lat="45.79705" lon="4.39446">
        <ele>643.09185791016</ele>
        <time>2020-11-13T17:06:16.949Z</time>
      </trkpt>
      <trkpt lat="45.79717" lon="4.3946">
        <ele>644.31072998047</ele>
        <time>2020-11-13T17:06:17.176Z</time>
      </trkpt>
      <trkpt lat="45.79731" lon="4.39468">
        <ele>644.98284912109</ele>
        <time>2020-11-13T17:06:17.405Z</time>
      </trkpt>
      <trkpt lat="45.7977" lon="4.39477">
        <ele>645.56066894531</ele>
        <time>2020-11-13T17:06:17.641Z</time>
      </trkpt>
      <trkpt lat="45.79801" lon="4.39483">
        <ele>646.05255126953</ele>
        <time>2020-11-13T17:06:17.882Z</time>
      </trkpt>
      <trkpt lat="45.79808" lon="4.39488">
        <ele>646.79614257812</ele>
        <time>2020-11-13T17:06:18.124Z</time>
      </trkpt>
      <trkpt lat="45.79891" lon="4.39561">
        <ele>655.86437988281</ele>
        <time>2020-11-13T17:06:18.381Z</time>
      </trkpt>
      <trkpt lat="45.79916" lon="4.3958">
        <ele>657.82006835938</ele>
        <time>2020-11-13T17:06:18.643Z</time>
      </trkpt>
      <trkpt lat="45.79929" lon="4.39589">
        <ele>658.81591796875</ele>
        <time>2020-11-13T17:06:18.907Z</time>
      </trkpt>
      <trkpt lat="45.79989" lon="4.39617">
        <ele>662.23229980469</ele>
        <time>2020-11-13T17:06:19.181Z</time>
      </trkpt>
      <trkpt lat="45.8005" lon="4.39643">
        <ele>663.27612304688</ele>
        <time>2020-11-13T17:06:19.466Z</time>
      </trkpt>
      <trkpt lat="45.80077" lon="4.39644">
        <ele>665.45556640625</ele>
        <time>2020-11-13T17:06:19.755Z</time>
      </trkpt>
      <trkpt lat="45.80128" lon="4.3964">
        <ele>665.70654296875</ele>
        <time>2020-11-13T17:06:20.052Z</time>
      </trkpt>
      <trkpt lat="45.8021" lon="4.39634">
        <ele>669.18121337891</ele>
        <time>2020-11-13T17:06:20.362Z</time>
      </trkpt>
      <trkpt lat="45.80229" lon="4.3963">
        <ele>669.1689453125</ele>
        <time>2020-11-13T17:06:20.675Z</time>
      </trkpt>
      <trkpt lat="45.80275" lon="4.39613">
        <ele>669.77679443359</ele>
        <time>2020-11-13T17:06:20.996Z</time>
      </trkpt>
      <trkpt lat="45.80312" lon="4.396">
        <ele>670.41412353516</ele>
        <time>2020-11-13T17:06:21.323Z</time>
      </trkpt>
      <trkpt lat="45.80348" lon="4.39589">
        <ele>667.76257324219</ele>
        <time>2020-11-13T17:06:21.656Z</time>
      </trkpt>
      <trkpt lat="45.80365" lon="4.3959">
        <ele>667.12042236328</ele>
        <time>2020-11-13T17:06:21.992Z</time>
      </trkpt>
      <trkpt lat="45.80379" lon="4.39595">
        <ele>667.40838623047</ele>
        <time>2020-11-13T17:06:22.330Z</time>
      </trkpt>
      <trkpt lat="45.80386" lon="4.396">
        <ele>667.61236572266</ele>
        <time>2020-11-13T17:06:22.669Z</time>
      </trkpt>
      <trkpt lat="45.80403" lon="4.39618">
        <ele>665.11273193359</ele>
        <time>2020-11-13T17:06:23.012Z</time>
      </trkpt>
      <trkpt lat="45.80419" lon="4.39652">
        <ele>664.51287841797</ele>
        <time>2020-11-13T17:06:23.359Z</time>
      </trkpt>
      <trkpt lat="45.80444" lon="4.39707">
        <ele>664.46514892578</ele>
        <time>2020-11-13T17:06:23.714Z</time>
      </trkpt>
      <trkpt lat="45.80474" lon="4.39778">
        <ele>670.25750732422</ele>
        <time>2020-11-13T17:06:24.078Z</time>
      </trkpt>
      <trkpt lat="45.80488" lon="4.39793">
        <ele>672.34649658203</ele>
        <time>2020-11-13T17:06:24.445Z</time>
      </trkpt>
      <trkpt lat="45.80526" lon="4.39813">
        <ele>674.14617919922</ele>
        <time>2020-11-13T17:06:24.818Z</time>
      </trkpt>
      <trkpt lat="45.80612" lon="4.3984">
        <ele>672.447265625</ele>
        <time>2020-11-13T17:06:25.205Z</time>
      </trkpt>
      <trkpt lat="45.80626" lon="4.3985">
        <ele>673.32287597656</ele>
        <time>2020-11-13T17:06:25.595Z</time>
      </trkpt>
      <trkpt lat="45.80645" lon="4.39873">
        <ele>673.87481689453</ele>
        <time>2020-11-13T17:06:25.989Z</time>
      </trkpt>
      <trkpt lat="45.80658" lon="4.39906">
        <ele>673.05895996094</ele>
        <time>2020-11-13T17:06:26.387Z</time>
      </trkpt>
      <trkpt lat="45.80664" lon="4.3994">
        <ele>674.25872802734</ele>
        <time>2020-11-13T17:06:26.789Z</time>
      </trkpt>
      <trkpt lat="45.80662" lon="4.39991">
        <ele>679.48083496094</ele>
        <time>2020-11-13T17:06:27.197Z</time>
      </trkpt>
      <trkpt lat="45.80664" lon="4.40025">
        <ele>681.08856201172</ele>
        <time>2020-11-13T17:06:27.608Z</time>
      </trkpt>
      <trkpt lat="45.8067" lon="4.40044">
        <ele>682.85546875</ele>
        <time>2020-11-13T17:06:28.022Z</time>
      </trkpt>
      <trkpt lat="45.80675" lon="4.40054">
        <ele>683.93530273438</ele>
        <time>2020-11-13T17:06:28.437Z</time>
      </trkpt>
      <trkpt lat="45.8069" lon="4.40071">
        <ele>684.36724853516</ele>
        <time>2020-11-13T17:06:28.855Z</time>
      </trkpt>
      <trkpt lat="45.80726" lon="4.40092">
        <ele>681.37805175781</ele>
        <time>2020-11-13T17:06:29.279Z</time>
      </trkpt>
      <trkpt lat="45.80777" lon="4.4013">
        <ele>679.83258056641</ele>
        <time>2020-11-13T17:06:29.713Z</time>
      </trkpt>
      <trkpt lat="45.80787" lon="4.40144">
        <ele>679.61657714844</ele>
        <time>2020-11-13T17:06:30.149Z</time>
      </trkpt>
      <trkpt lat="45.80796" lon="4.40164">
        <ele>680.13250732422</ele>
        <time>2020-11-13T17:06:30.587Z</time>
      </trkpt>
      <trkpt lat="45.80801" lon="4.4018">
        <ele>680.88836669922</ele>
        <time>2020-11-13T17:06:31.027Z</time>
      </trkpt>
      <trkpt lat="45.80804" lon="4.40199">
        <ele>682.27661132812</ele>
        <time>2020-11-13T17:06:31.470Z</time>
      </trkpt>
      <trkpt lat="45.80806" lon="4.4024">
        <ele>683.39959716797</ele>
        <time>2020-11-13T17:06:31.917Z</time>
      </trkpt>
      <trkpt lat="45.80788" lon="4.40324">
        <ele>689.64434814453</ele>
        <time>2020-11-13T17:06:32.374Z</time>
      </trkpt>
      <trkpt lat="45.80783" lon="4.40358">
        <ele>690.55480957031</ele>
        <time>2020-11-13T17:06:32.835Z</time>
      </trkpt>
      <trkpt lat="45.80782" lon="4.40399">
        <ele>693.93103027344</ele>
        <time>2020-11-13T17:06:33.301Z</time>
      </trkpt>
      <trkpt lat="45.80786" lon="4.40442">
        <ele>695.83422851562</ele>
        <time>2020-11-13T17:06:33.771Z</time>
      </trkpt>
      <trkpt lat="45.80792" lon="4.40463">
        <ele>696.43811035156</ele>
        <time>2020-11-13T17:06:34.244Z</time>
      </trkpt>
      <trkpt lat="45.80797" lon="4.4047">
        <ele>696.25811767578</ele>
        <time>2020-11-13T17:06:34.718Z</time>
      </trkpt>
      <trkpt lat="45.80804" lon="4.40476">
        <ele>695.55023193359</ele>
        <time>2020-11-13T17:06:35.193Z</time>
      </trkpt>
      <trkpt lat="45.80818" lon="4.40484">
        <ele>695.96264648438</ele>
        <time>2020-11-13T17:06:35.671Z</time>
      </trkpt>
      <trkpt lat="45.80835" lon="4.40483">
        <ele>695.43469238281</ele>
        <time>2020-11-13T17:06:36.151Z</time>
      </trkpt>
      <trkpt lat="45.80871" lon="4.40466">
        <ele>693.10992431641</ele>
        <time>2020-11-13T17:06:36.638Z</time>
      </trkpt>
      <trkpt lat="45.80893" lon="4.40457">
        <ele>691.65924072266</ele>
        <time>2020-11-13T17:06:37.128Z</time>
      </trkpt>
      <trkpt lat="45.80914" lon="4.40458">
        <ele>690.69799804688</ele>
        <time>2020-11-13T17:06:37.622Z</time>
      </trkpt>
      <trkpt lat="45.80926" lon="4.40464">
        <ele>690.69799804688</ele>
        <time>2020-11-13T17:06:38.118Z</time>
      </trkpt>
      <trkpt lat="45.80936" lon="4.40476">
        <ele>691.36987304688</ele>
        <time>2020-11-13T17:06:38.616Z</time>
      </trkpt>
      <trkpt lat="45.80942" lon="4.4049">
        <ele>692.42572021484</ele>
        <time>2020-11-13T17:06:39.116Z</time>
      </trkpt>
      <trkpt lat="45.80949" lon="4.4054">
        <ele>696.76763916016</ele>
        <time>2020-11-13T17:06:39.621Z</time>
      </trkpt>
      <trkpt lat="45.80958" lon="4.4063">
        <ele>701.20031738281</ele>
        <time>2020-11-13T17:06:40.136Z</time>
      </trkpt>
      <trkpt lat="45.80967" lon="4.40697">
        <ele>702.61419677734</ele>
        <time>2020-11-13T17:06:40.659Z</time>
      </trkpt>
      <trkpt lat="45.80975" lon="4.40721">
        <ele>704.47265625</ele>
        <time>2020-11-13T17:06:41.185Z</time>
      </trkpt>
      <trkpt lat="45.80983" lon="4.40736">
        <ele>706.18835449219</ele>
        <time>2020-11-13T17:06:41.713Z</time>
      </trkpt>
      <trkpt lat="45.80995" lon="4.40748">
        <ele>707.62811279297</ele>
        <time>2020-11-13T17:06:42.244Z</time>
      </trkpt>
      <trkpt lat="45.81033" lon="4.40762">
        <ele>709.59576416016</ele>
        <time>2020-11-13T17:06:42.781Z</time>
      </trkpt>
      <trkpt lat="45.81057" lon="4.40766">
        <ele>710.67633056641</ele>
        <time>2020-11-13T17:06:43.322Z</time>
      </trkpt>
      <trkpt lat="45.81074" lon="4.40763">
        <ele>712.22406005859</ele>
        <time>2020-11-13T17:06:43.865Z</time>
      </trkpt>
      <trkpt lat="45.81106" lon="4.40749">
        <ele>714.32733154297</ele>
        <time>2020-11-13T17:06:44.414Z</time>
      </trkpt>
      <trkpt lat="45.81141" lon="4.40726">
        <ele>713.92834472656</ele>
        <time>2020-11-13T17:06:44.969Z</time>
      </trkpt>
      <trkpt lat="45.8117" lon="4.40705">
        <ele>716.42767333984</ele>
        <time>2020-11-13T17:06:45.529Z</time>
      </trkpt>
      <trkpt lat="45.81193" lon="4.40689">
        <ele>719.76971435547</ele>
        <time>2020-11-13T17:06:46.093Z</time>
      </trkpt>
      <trkpt lat="45.81216" lon="4.4067">
        <ele>723.89886474609</ele>
        <time>2020-11-13T17:06:46.661Z</time>
      </trkpt>
      <trkpt lat="45.81231" lon="4.40648">
        <ele>727.29748535156</ele>
        <time>2020-11-13T17:06:47.233Z</time>
      </trkpt>
      <trkpt lat="45.81239" lon="4.40627">
        <ele>728.62750244141</ele>
        <time>2020-11-13T17:06:47.808Z</time>
      </trkpt>
      <trkpt lat="45.81246" lon="4.40539">
        <ele>724.55737304688</ele>
        <time>2020-11-13T17:06:48.392Z</time>
      </trkpt>
      <trkpt lat="45.8126" lon="4.40484">
        <ele>719.29339599609</ele>
        <time>2020-11-13T17:06:48.983Z</time>
      </trkpt>
      <trkpt lat="45.81263" lon="4.4048">
        <ele>718.88549804688</ele>
        <time>2020-11-13T17:06:49.575Z</time>
      </trkpt>
      <trkpt lat="45.81267" lon="4.40478">
        <ele>718.86151123047</ele>
        <time>2020-11-13T17:06:50.167Z</time>
      </trkpt>
      <trkpt lat="45.81284" lon="4.40479">
        <ele>720.24127197266</ele>
        <time>2020-11-13T17:06:50.762Z</time>
      </trkpt>
      <trkpt lat="45.81299" lon="4.40488">
        <ele>722.72485351562</ele>
        <time>2020-11-13T17:06:51.360Z</time>
      </trkpt>
      <trkpt lat="45.81304" lon="4.40496">
        <ele>724.33258056641</ele>
        <time>2020-11-13T17:06:51.959Z</time>
      </trkpt>
      <trkpt lat="45.81341" lon="4.40473">
        <ele>721.26458740234</ele>
        <time>2020-11-13T17:06:52.564Z</time>
      </trkpt>
      <trkpt lat="45.8139" lon="4.40445">
        <ele>717.1953125</ele>
        <time>2020-11-13T17:06:53.178Z</time>
      </trkpt>
      <trkpt lat="45.81413" lon="4.40439">
        <ele>713.55987548828</ele>
        <time>2020-11-13T17:06:53.796Z</time>
      </trkpt>
      <trkpt lat="45.81434" lon="4.40442">
        <ele>711.8681640625</ele>
        <time>2020-11-13T17:06:54.417Z</time>
      </trkpt>
      <trkpt lat="45.81453" lon="4.40448">
        <ele>710.96832275391</ele>
        <time>2020-11-13T17:06:55.041Z</time>
      </trkpt>
      <trkpt lat="45.8151" lon="4.40477">
        <ele>714.71295166016</ele>
        <time>2020-11-13T17:06:55.675Z</time>
      </trkpt>
      <trkpt lat="45.81527" lon="4.40482">
        <ele>716.33270263672</ele>
        <time>2020-11-13T17:06:56.311Z</time>
      </trkpt>
      <trkpt lat="45.81627" lon="4.40482">
        <ele>722.09118652344</ele>
        <time>2020-11-13T17:06:56.964Z</time>
      </trkpt>
      <trkpt lat="45.81676" lon="4.40485">
        <ele>723.81085205078</ele>
        <time>2020-11-13T17:06:57.624Z</time>
      </trkpt>
      <trkpt lat="45.81703" lon="4.40482">
        <ele>725.82653808594</ele>
        <time>2020-11-13T17:06:58.289Z</time>
      </trkpt>
      <trkpt lat="45.81718" lon="4.40472">
        <ele>727.14630126953</ele>
        <time>2020-11-13T17:06:58.956Z</time>
      </trkpt>
      <trkpt lat="45.8174" lon="4.4044">
        <ele>728.54718017578</ele>
        <time>2020-11-13T17:06:59.628Z</time>
      </trkpt>
      <trkpt lat="45.81804" lon="4.40332">
        <ele>733.44232177734</ele>
        <time>2020-11-13T17:07:00.316Z</time>
      </trkpt>
      <trkpt lat="45.81855" lon="4.4025">
        <ele>737.55108642578</ele>
        <time>2020-11-13T17:07:01.016Z</time>
      </trkpt>
      <trkpt lat="45.81886" lon="4.40199">
        <ele>741.72668457031</ele>
        <time>2020-11-13T17:07:01.724Z</time>
      </trkpt>
      <trkpt lat="45.81891" lon="4.40186">
        <ele>742.64892578125</ele>
        <time>2020-11-13T17:07:02.434Z</time>
      </trkpt>
      <trkpt lat="45.81893" lon="4.40175">
        <ele>743.22485351562</ele>
        <time>2020-11-13T17:07:03.145Z</time>
      </trkpt>
      <trkpt lat="45.81893" lon="4.40157">
        <ele>744.08868408203</ele>
        <time>2020-11-13T17:07:03.858Z</time>
      </trkpt>
      <trkpt lat="45.81889" lon="4.40137">
        <ele>744.95251464844</ele>
        <time>2020-11-13T17:07:04.573Z</time>
      </trkpt>
      <trkpt lat="45.81866" lon="4.40084">
        <ele>745.75537109375</ele>
        <time>2020-11-13T17:07:05.295Z</time>
      </trkpt>
      <trkpt lat="45.81858" lon="4.4006">
        <ele>746.13928222656</ele>
        <time>2020-11-13T17:07:06.020Z</time>
      </trkpt>
      <trkpt lat="45.81857" lon="4.40035">
        <ele>746.97918701172</ele>
        <time>2020-11-13T17:07:06.748Z</time>
      </trkpt>
      <trkpt lat="45.81861" lon="4.4002">
        <ele>746.49871826172</ele>
        <time>2020-11-13T17:07:07.478Z</time>
      </trkpt>
      <trkpt lat="45.81869" lon="4.40005">
        <ele>745.89880371094</ele>
        <time>2020-11-13T17:07:08.210Z</time>
      </trkpt>
      <trkpt lat="45.8188" lon="4.39992">
        <ele>745.62286376953</ele>
        <time>2020-11-13T17:07:08.944Z</time>
      </trkpt>
      <trkpt lat="45.81942" lon="4.39952">
        <ele>751.31512451172</ele>
        <time>2020-11-13T17:07:09.689Z</time>
      </trkpt>
      <trkpt lat="45.81951" lon="4.39944">
        <ele>752.251953125</ele>
        <time>2020-11-13T17:07:10.436Z</time>
      </trkpt>
      <trkpt lat="45.81964" lon="4.39926">
        <ele>752.85021972656</ele>
        <time>2020-11-13T17:07:11.186Z</time>
      </trkpt>
      <trkpt lat="45.81991" lon="4.39865">
        <ele>753.18511962891</ele>
        <time>2020-11-13T17:07:11.944Z</time>
      </trkpt>
      <trkpt lat="45.82021" lon="4.39811">
        <ele>752.92376708984</ele>
        <time>2020-11-13T17:07:12.710Z</time>
      </trkpt>
      <trkpt lat="45.82065" lon="4.39733">
        <ele>758.27490234375</ele>
        <time>2020-11-13T17:07:13.487Z</time>
      </trkpt>
      <trkpt lat="45.82088" lon="4.39685">
        <ele>764.10205078125</ele>
        <time>2020-11-13T17:07:14.270Z</time>
      </trkpt>
      <trkpt lat="45.82092" lon="4.39661">
        <ele>765.87774658203</ele>
        <time>2020-11-13T17:07:15.056Z</time>
      </trkpt>
      <trkpt lat="45.82092" lon="4.39639">
        <ele>767.00805664062</ele>
        <time>2020-11-13T17:07:15.844Z</time>
      </trkpt>
      <trkpt lat="45.82082" lon="4.39566">
        <ele>769.9580078125</ele>
        <time>2020-11-13T17:07:16.641Z</time>
      </trkpt>
      <trkpt lat="45.82075" lon="4.39527">
        <ele>772.20721435547</ele>
        <time>2020-11-13T17:07:17.442Z</time>
      </trkpt>
      <trkpt lat="45.82059" lon="4.39464">
        <ele>771.91925048828</ele>
        <time>2020-11-13T17:07:18.251Z</time>
      </trkpt>
      <trkpt lat="45.82056" lon="4.39439">
        <ele>772.56927490234</ele>
        <time>2020-11-13T17:07:19.063Z</time>
      </trkpt>
      <trkpt lat="45.8206" lon="4.39366">
        <ele>776.77471923828</ele>
        <time>2020-11-13T17:07:19.883Z</time>
      </trkpt>
      <trkpt lat="45.82067" lon="4.39249">
        <ele>789.81066894531</ele>
        <time>2020-11-13T17:07:20.716Z</time>
      </trkpt>
      <trkpt lat="45.82066" lon="4.39224">
        <ele>792.05426025391</ele>
        <time>2020-11-13T17:07:21.552Z</time>
      </trkpt>
      <trkpt lat="45.82063" lon="4.39209">
        <ele>792.30621337891</ele>
        <time>2020-11-13T17:07:22.390Z</time>
      </trkpt>
      <trkpt lat="45.82056" lon="4.3919">
        <ele>790.65234375</ele>
        <time>2020-11-13T17:07:23.230Z</time>
      </trkpt>
      <trkpt lat="45.82026" lon="4.39146">
        <ele>781.22375488281</ele>
        <time>2020-11-13T17:07:24.077Z</time>
      </trkpt>
      <trkpt lat="45.82013" lon="4.39119">
        <ele>777.52838134766</ele>
        <time>2020-11-13T17:07:24.928Z</time>
      </trkpt>
      <trkpt lat="45.82011" lon="4.39097">
        <ele>775.88861083984</ele>
        <time>2020-11-13T17:07:25.781Z</time>
      </trkpt>
      <trkpt lat="45.82012" lon="4.39081">
        <ele>775.31268310547</ele>
        <time>2020-11-13T17:07:26.636Z</time>
      </trkpt>
      <trkpt lat="45.82025" lon="4.39036">
        <ele>779.93041992188</ele>
        <time>2020-11-13T17:07:27.496Z</time>
      </trkpt>
      <trkpt lat="45.82038" lon="4.38983">
        <ele>787.23742675781</ele>
        <time>2020-11-13T17:07:28.363Z</time>
      </trkpt>
      <trkpt lat="45.82039" lon="4.38937">
        <ele>790.39605712891</ele>
        <time>2020-11-13T17:07:29.235Z</time>
      </trkpt>
      <trkpt lat="45.82039" lon="4.38917">
        <ele>792.32659912109</ele>
        <time>2020-11-13T17:07:30.109Z</time>
      </trkpt>
      <trkpt lat="45.82032" lon="4.38871">
        <ele>793.50238037109</ele>
        <time>2020-11-13T17:07:30.988Z</time>
      </trkpt>
      <trkpt lat="45.82023" lon="4.38836">
        <ele>794.0234375</ele>
        <time>2020-11-13T17:07:31.871Z</time>
      </trkpt>
      <trkpt lat="45.81969" lon="4.38635">
        <ele>779.31066894531</ele>
        <time>2020-11-13T17:07:32.778Z</time>
      </trkpt>
      <trkpt lat="45.81957" lon="4.38596">
        <ele>776.87408447266</ele>
        <time>2020-11-13T17:07:33.690Z</time>
      </trkpt>
      <trkpt lat="45.81956" lon="4.38587">
        <ele>776.33416748047</ele>
        <time>2020-11-13T17:07:34.603Z</time>
      </trkpt>
      <trkpt lat="45.81957" lon="4.38581">
        <ele>775.97424316406</ele>
        <time>2020-11-13T17:07:35.517Z</time>
      </trkpt>
      <trkpt lat="45.81962" lon="4.38576">
        <ele>775.67425537109</ele>
        <time>2020-11-13T17:07:36.432Z</time>
      </trkpt>
      <trkpt lat="45.81978" lon="4.38564">
        <ele>775.88458251953</ele>
        <time>2020-11-13T17:07:37.350Z</time>
      </trkpt>
      <trkpt lat="45.82013" lon="4.38534">
        <ele>774.9384765625</ele>
        <time>2020-11-13T17:07:38.274Z</time>
      </trkpt>
      <trkpt lat="45.8205" lon="4.38505">
        <ele>770.48767089844</ele>
        <time>2020-11-13T17:07:39.205Z</time>
      </trkpt>
      <trkpt lat="45.82066" lon="4.38495">
        <ele>768.13427734375</ele>
        <time>2020-11-13T17:07:40.139Z</time>
      </trkpt>
      <trkpt lat="45.82083" lon="4.38488">
        <ele>766.62249755859</ele>
        <time>2020-11-13T17:07:41.076Z</time>
      </trkpt>
      <trkpt lat="45.82207" lon="4.38453">
        <ele>764.58374023438</ele>
        <time>2020-11-13T17:07:42.033Z</time>
      </trkpt>
      <trkpt lat="45.82295" lon="4.38429">
        <ele>761.29571533203</ele>
        <time>2020-11-13T17:07:43.004Z</time>
      </trkpt>
      <trkpt lat="45.82314" lon="4.38427">
        <ele>759.19671630859</ele>
        <time>2020-11-13T17:07:43.978Z</time>
      </trkpt>
      <trkpt lat="45.8233" lon="4.38432">
        <ele>755.81329345703</ele>
        <time>2020-11-13T17:07:44.955Z</time>
      </trkpt>
      <trkpt lat="45.8235" lon="4.38447">
        <ele>753.05377197266</ele>
        <time>2020-11-13T17:07:45.936Z</time>
      </trkpt>
      <trkpt lat="45.82362" lon="4.38465">
        <ele>751.48828125</ele>
        <time>2020-11-13T17:07:46.919Z</time>
      </trkpt>
      <trkpt lat="45.82378" lon="4.38493">
        <ele>749.61657714844</ele>
        <time>2020-11-13T17:07:47.906Z</time>
      </trkpt>
      <trkpt lat="45.82403" lon="4.38524">
        <ele>746.81616210938</ele>
        <time>2020-11-13T17:07:48.899Z</time>
      </trkpt>
      <trkpt lat="45.82446" lon="4.38559">
        <ele>743.34051513672</ele>
        <time>2020-11-13T17:07:49.900Z</time>
      </trkpt>
      <trkpt lat="45.82482" lon="4.38588">
        <ele>740.92602539062</ele>
        <time>2020-11-13T17:07:50.907Z</time>
      </trkpt>
      <trkpt lat="45.82495" lon="4.38601">
        <ele>740.61407470703</ele>
        <time>2020-11-13T17:07:51.917Z</time>
      </trkpt>
      <trkpt lat="45.82515" lon="4.38625">
        <ele>740.662109375</ele>
        <time>2020-11-13T17:07:52.931Z</time>
      </trkpt>
      <trkpt lat="45.82523" lon="4.38638">
        <ele>741.13000488281</ele>
        <time>2020-11-13T17:07:53.947Z</time>
      </trkpt>
      <trkpt lat="45.82538" lon="4.38664">
        <ele>742.22180175781</ele>
        <time>2020-11-13T17:07:54.967Z</time>
      </trkpt>
      <trkpt lat="45.82551" lon="4.38695">
        <ele>744.28546142578</ele>
        <time>2020-11-13T17:07:55.991Z</time>
      </trkpt>
      <trkpt lat="45.82559" lon="4.38717">
        <ele>743.98834228516</ele>
        <time>2020-11-13T17:07:57.017Z</time>
      </trkpt>
      <trkpt lat="45.82566" lon="4.38741">
        <ele>743.16046142578</ele>
        <time>2020-11-13T17:07:58.046Z</time>
      </trkpt>
      <trkpt lat="45.82581" lon="4.38788">
        <ele>741.51293945312</ele>
        <time>2020-11-13T17:07:59.081Z</time>
      </trkpt>
      <trkpt lat="45.82591" lon="4.38828">
        <ele>742.41253662109</ele>
        <time>2020-11-13T17:08:00.121Z</time>
      </trkpt>
      <trkpt lat="45.82605" lon="4.38851">
        <ele>740.09692382812</ele>
        <time>2020-11-13T17:08:01.164Z</time>
      </trkpt>
      <trkpt lat="45.82636" lon="4.38884">
        <ele>735.275390625</ele>
        <time>2020-11-13T17:08:02.213Z</time>
      </trkpt>
      <trkpt lat="45.82651" lon="4.389">
        <ele>735.76702880859</ele>
        <time>2020-11-13T17:08:03.265Z</time>
      </trkpt>
      <trkpt lat="45.82689" lon="4.38945">
        <ele>738.97045898438</ele>
        <time>2020-11-13T17:08:04.325Z</time>
      </trkpt>
      <trkpt lat="45.82701" lon="4.38957">
        <ele>740.00860595703</ele>
        <time>2020-11-13T17:08:05.388Z</time>
      </trkpt>
      <trkpt lat="45.82708" lon="4.3896">
        <ele>740.00860595703</ele>
        <time>2020-11-13T17:08:06.452Z</time>
      </trkpt>
      <trkpt lat="45.82714" lon="4.3896">
        <ele>739.57672119141</ele>
        <time>2020-11-13T17:08:07.517Z</time>
      </trkpt>
      <trkpt lat="45.82721" lon="4.38954">
        <ele>738.06494140625</ele>
        <time>2020-11-13T17:08:08.583Z</time>
      </trkpt>
      <trkpt lat="45.82748" lon="4.38933">
        <ele>736.80590820312</ele>
        <time>2020-11-13T17:08:09.654Z</time>
      </trkpt>
      <trkpt lat="45.82781" lon="4.38925">
        <ele>738.32965087891</ele>
        <time>2020-11-13T17:08:10.730Z</time>
      </trkpt>
      <trkpt lat="45.82795" lon="4.3892">
        <ele>740.63134765625</ele>
        <time>2020-11-13T17:08:11.809Z</time>
      </trkpt>
      <trkpt lat="45.82804" lon="4.38915">
        <ele>742.11907958984</ele>
        <time>2020-11-13T17:08:12.889Z</time>
      </trkpt>
      <trkpt lat="45.82815" lon="4.389">
        <ele>744.08026123047</ele>
        <time>2020-11-13T17:08:13.972Z</time>
      </trkpt>
      <trkpt lat="45.82818" lon="4.38888">
        <ele>744.26025390625</ele>
        <time>2020-11-13T17:08:15.056Z</time>
      </trkpt>
      <trkpt lat="45.8282" lon="4.38871">
        <ele>743.64947509766</ele>
        <time>2020-11-13T17:08:16.142Z</time>
      </trkpt>
      <trkpt lat="45.82816" lon="4.38834">
        <ele>741.15679931641</ele>
        <time>2020-11-13T17:08:17.232Z</time>
      </trkpt>
      <trkpt lat="45.82802" lon="4.38733">
        <ele>731.13543701172</ele>
        <time>2020-11-13T17:08:18.334Z</time>
      </trkpt>
      <trkpt lat="45.82804" lon="4.387">
        <ele>727.93194580078</ele>
        <time>2020-11-13T17:08:19.440Z</time>
      </trkpt>
      <trkpt lat="45.82818" lon="4.38641">
        <ele>722.94567871094</ele>
        <time>2020-11-13T17:08:20.552Z</time>
      </trkpt>
      <trkpt lat="45.82828" lon="4.38613">
        <ele>720.73492431641</ele>
        <time>2020-11-13T17:08:21.668Z</time>
      </trkpt>
      <trkpt lat="45.8286" lon="4.38553">
        <ele>716.24975585938</ele>
        <time>2020-11-13T17:08:22.792Z</time>
      </trkpt>
      <trkpt lat="45.82973" lon="4.38355">
        <ele>705.98846435547</ele>
        <time>2020-11-13T17:08:23.945Z</time>
      </trkpt>
      <trkpt lat="45.82989" lon="4.38322">
        <ele>707.70422363281</ele>
        <time>2020-11-13T17:08:25.103Z</time>
      </trkpt>
      <trkpt lat="45.82995" lon="4.38293">
        <ele>707.20941162109</ele>
        <time>2020-11-13T17:08:26.264Z</time>
      </trkpt>
      <trkpt lat="45.82992" lon="4.38268">
        <ele>707.07379150391</ele>
        <time>2020-11-13T17:08:27.428Z</time>
      </trkpt>
      <trkpt lat="45.82987" lon="4.38256">
        <ele>707.84167480469</ele>
        <time>2020-11-13T17:08:28.593Z</time>
      </trkpt>
      <trkpt lat="45.82976" lon="4.38239">
        <ele>708.74151611328</ele>
        <time>2020-11-13T17:08:29.761Z</time>
      </trkpt>
      <trkpt lat="45.82965" lon="4.38227">
        <ele>709.91284179688</ele>
        <time>2020-11-13T17:08:30.931Z</time>
      </trkpt>
      <trkpt lat="45.8295" lon="4.38218">
        <ele>711.38861083984</ele>
        <time>2020-11-13T17:08:32.104Z</time>
      </trkpt>
      <trkpt lat="45.82914" lon="4.38206">
        <ele>714.12414550781</ele>
        <time>2020-11-13T17:08:33.283Z</time>
      </trkpt>
      <trkpt lat="45.82856" lon="4.38189">
        <ele>714.67919921875</ele>
        <time>2020-11-13T17:08:34.471Z</time>
      </trkpt>
      <trkpt lat="45.82831" lon="4.38179">
        <ele>713.89935302734</ele>
        <time>2020-11-13T17:08:35.663Z</time>
      </trkpt>
      <trkpt lat="45.82812" lon="4.38164">
        <ele>713.83935546875</ele>
        <time>2020-11-13T17:08:36.859Z</time>
      </trkpt>
      <trkpt lat="45.82798" lon="4.38144">
        <ele>713.44830322266</ele>
        <time>2020-11-13T17:08:38.058Z</time>
      </trkpt>
      <trkpt lat="45.82792" lon="4.38124">
        <ele>713.73626708984</ele>
        <time>2020-11-13T17:08:39.259Z</time>
      </trkpt>
      <trkpt lat="45.8279" lon="4.38113">
        <ele>714.14416503906</ele>
        <time>2020-11-13T17:08:40.462Z</time>
      </trkpt>
      <trkpt lat="45.82777" lon="4.37961">
        <ele>715.70947265625</ele>
        <time>2020-11-13T17:08:41.682Z</time>
      </trkpt>
      <trkpt lat="45.82777" lon="4.3791">
        <ele>712.93231201172</ele>
        <time>2020-11-13T17:08:42.907Z</time>
      </trkpt>
      <trkpt lat="45.82784" lon="4.37881">
        <ele>712.36840820312</ele>
        <time>2020-11-13T17:08:44.136Z</time>
      </trkpt>
      <trkpt lat="45.82818" lon="4.37794">
        <ele>711.31500244141</ele>
        <time>2020-11-13T17:08:45.376Z</time>
      </trkpt>
      <trkpt lat="45.8285" lon="4.37707">
        <ele>711.12487792969</ele>
        <time>2020-11-13T17:08:46.627Z</time>
      </trkpt>
      <trkpt lat="45.82875" lon="4.37652">
        <ele>711.91613769531</ele>
        <time>2020-11-13T17:08:47.885Z</time>
      </trkpt>
      <trkpt lat="45.82892" lon="4.37628">
        <ele>713.36962890625</ele>
        <time>2020-11-13T17:08:49.147Z</time>
      </trkpt>
      <trkpt lat="45.82923" lon="4.37594">
        <ele>718.38519287109</ele>
        <time>2020-11-13T17:08:50.415Z</time>
      </trkpt>
      <trkpt lat="45.82944" lon="4.37559">
        <ele>720.25451660156</ele>
        <time>2020-11-13T17:08:51.689Z</time>
      </trkpt>
      <trkpt lat="45.82951" lon="4.37541">
        <ele>720.00256347656</ele>
        <time>2020-11-13T17:08:52.965Z</time>
      </trkpt>
      <trkpt lat="45.82959" lon="4.3749">
        <ele>717.47583007812</ele>
        <time>2020-11-13T17:08:54.247Z</time>
      </trkpt>
      <trkpt lat="45.82966" lon="4.37467">
        <ele>716.63598632812</ele>
        <time>2020-11-13T17:08:55.532Z</time>
      </trkpt>
      <trkpt lat="45.82981" lon="4.37446">
        <ele>716.69818115234</ele>
        <time>2020-11-13T17:08:56.820Z</time>
      </trkpt>
      <trkpt lat="45.83002" lon="4.37423">
        <ele>715.93029785156</ele>
        <time>2020-11-13T17:08:58.112Z</time>
      </trkpt>
      <trkpt lat="45.83032" lon="4.37396">
        <ele>714.58563232422</ele>
        <time>2020-11-13T17:08:59.410Z</time>
      </trkpt>
      <trkpt lat="45.83093" lon="4.37369">
        <ele>717.53363037109</ele>
        <time>2020-11-13T17:09:00.718Z</time>
      </trkpt>
      <trkpt lat="45.83152" lon="4.37339">
        <ele>721.75024414062</ele>
        <time>2020-11-13T17:09:02.036Z</time>
      </trkpt>
      <trkpt lat="45.83194" lon="4.3731">
        <ele>724.37713623047</ele>
        <time>2020-11-13T17:09:03.362Z</time>
      </trkpt>
      <trkpt lat="45.83224" lon="4.37286">
        <ele>727.05297851562</ele>
        <time>2020-11-13T17:09:04.693Z</time>
      </trkpt>
      <trkpt lat="45.83237" lon="4.37266">
        <ele>728.80511474609</ele>
        <time>2020-11-13T17:09:06.027Z</time>
      </trkpt>
      <trkpt lat="45.83297" lon="4.37158">
        <ele>732.70770263672</ele>
        <time>2020-11-13T17:09:07.377Z</time>
      </trkpt>
      <trkpt lat="45.83321" lon="4.3712">
        <ele>730.76934814453</ele>
        <time>2020-11-13T17:09:08.732Z</time>
      </trkpt>
      <trkpt lat="45.8333" lon="4.3711">
        <ele>730.44055175781</ele>
        <time>2020-11-13T17:09:10.089Z</time>
      </trkpt>
      <trkpt lat="45.83345" lon="4.37098">
        <ele>730.94445800781</ele>
        <time>2020-11-13T17:09:11.449Z</time>
      </trkpt>
      <trkpt lat="45.83358" lon="4.3709">
        <ele>731.64031982422</ele>
        <time>2020-11-13T17:09:12.811Z</time>
      </trkpt>
      <trkpt lat="45.83392" lon="4.37082">
        <ele>731.16076660156</ele>
        <time>2020-11-13T17:09:14.179Z</time>
      </trkpt>
      <trkpt lat="45.83511" lon="4.37068">
        <ele>737.44018554688</ele>
        <time>2020-11-13T17:09:15.566Z</time>
      </trkpt>
      <trkpt lat="45.83565" lon="4.3706">
        <ele>737.77087402344</ele>
        <time>2020-11-13T17:09:16.961Z</time>
      </trkpt>
      <trkpt lat="45.83583" lon="4.37059">
        <ele>739.63061523438</ele>
        <time>2020-11-13T17:09:18.359Z</time>
      </trkpt>
      <trkpt lat="45.83617" lon="4.37064">
        <ele>743.49768066406</ele>
        <time>2020-11-13T17:09:19.763Z</time>
      </trkpt>
      <trkpt lat="45.83679" lon="4.37066">
        <ele>747.22570800781</ele>
        <time>2020-11-13T17:09:21.177Z</time>
      </trkpt>
      <trkpt lat="45.83703" lon="4.37063">
        <ele>748.30554199219</ele>
        <time>2020-11-13T17:09:22.595Z</time>
      </trkpt>
      <trkpt lat="45.83756" lon="4.37048">
        <ele>747.47204589844</ele>
        <time>2020-11-13T17:09:24.021Z</time>
      </trkpt>
      <trkpt lat="45.83782" lon="4.37044">
        <ele>748.95977783203</ele>
        <time>2020-11-13T17:09:25.451Z</time>
      </trkpt>
      <trkpt lat="45.83806" lon="4.3705">
        <ele>752.79852294922</ele>
        <time>2020-11-13T17:09:26.885Z</time>
      </trkpt>
      <trkpt lat="45.83814" lon="4.37054">
        <ele>755.15014648438</ele>
        <time>2020-11-13T17:09:28.321Z</time>
      </trkpt>
      <trkpt lat="45.83835" lon="4.37068">
        <ele>762.20495605469</ele>
        <time>2020-11-13T17:09:29.760Z</time>
      </trkpt>
      <trkpt lat="45.83845" lon="4.37069">
        <ele>764.15460205078</ele>
        <time>2020-11-13T17:09:31.201Z</time>
      </trkpt>
      <trkpt lat="45.8385" lon="4.37066">
        <ele>764.33459472656</ele>
        <time>2020-11-13T17:09:32.643Z</time>
      </trkpt>
      <trkpt lat="45.83859" lon="4.37058">
        <ele>764.03460693359</ele>
        <time>2020-11-13T17:09:34.087Z</time>
      </trkpt>
      <trkpt lat="45.8388" lon="4.37017">
        <ele>758.45513916016</ele>
        <time>2020-11-13T17:09:35.536Z</time>
      </trkpt>
      <trkpt lat="45.83898" lon="4.36996">
        <ele>753.9228515625</ele>
        <time>2020-11-13T17:09:36.989Z</time>
      </trkpt>
      <trkpt lat="45.83905" lon="4.36991">
        <ele>752.49505615234</ele>
        <time>2020-11-13T17:09:38.443Z</time>
      </trkpt>
      <trkpt lat="45.83917" lon="4.36985">
        <ele>750.69537353516</ele>
        <time>2020-11-13T17:09:39.899Z</time>
      </trkpt>
      <trkpt lat="45.83932" lon="4.36983">
        <ele>750.20593261719</ele>
        <time>2020-11-13T17:09:41.358Z</time>
      </trkpt>
      <trkpt lat="45.83953" lon="4.36986">
        <ele>751.32177734375</ele>
        <time>2020-11-13T17:09:42.820Z</time>
      </trkpt>
      <trkpt lat="45.83967" lon="4.36994">
        <ele>753.28942871094</ele>
        <time>2020-11-13T17:09:44.284Z</time>
      </trkpt>
      <trkpt lat="45.83979" lon="4.37005">
        <ele>755.98010253906</ele>
        <time>2020-11-13T17:09:45.751Z</time>
      </trkpt>
      <trkpt lat="45.84007" lon="4.37039">
        <ele>763.03765869141</ele>
        <time>2020-11-13T17:09:47.224Z</time>
      </trkpt>
      <trkpt lat="45.84021" lon="4.37055">
        <ele>764.47741699219</ele>
        <time>2020-11-13T17:09:48.699Z</time>
      </trkpt>
      <trkpt lat="45.84052" lon="4.37079">
        <ele>767.11700439453</ele>
        <time>2020-11-13T17:09:50.180Z</time>
      </trkpt>
      <trkpt lat="45.84086" lon="4.37101">
        <ele>775.25463867188</ele>
        <time>2020-11-13T17:09:51.667Z</time>
      </trkpt>
      <trkpt lat="45.84119" lon="4.3712">
        <ele>783.36041259766</ele>
        <time>2020-11-13T17:09:53.160Z</time>
      </trkpt>
      <trkpt lat="45.84138" lon="4.37132">
        <ele>787.54766845703</ele>
        <time>2020-11-13T17:09:54.656Z</time>
      </trkpt>
      <trkpt lat="45.84151" lon="4.37136">
        <ele>790.74963378906</ele>
        <time>2020-11-13T17:09:56.154Z</time>
      </trkpt>
      <trkpt lat="45.84158" lon="4.37133">
        <ele>792.62023925781</ele>
        <time>2020-11-13T17:09:57.653Z</time>
      </trkpt>
      <trkpt lat="45.84164" lon="4.37123">
        <ele>796.74755859375</ele>
        <time>2020-11-13T17:09:59.154Z</time>
      </trkpt>
      <trkpt lat="45.84164" lon="4.371">
        <ele>799.04315185547</ele>
        <time>2020-11-13T17:10:00.657Z</time>
      </trkpt>
      <trkpt lat="45.84154" lon="4.37068">
        <ele>796.88348388672</ele>
        <time>2020-11-13T17:10:02.164Z</time>
      </trkpt>
      <trkpt lat="45.84137" lon="4.37026">
        <ele>792.16967773438</ele>
        <time>2020-11-13T17:10:03.677Z</time>
      </trkpt>
      <trkpt lat="45.84121" lon="4.3698">
        <ele>785.37884521484</ele>
        <time>2020-11-13T17:10:05.196Z</time>
      </trkpt>
      <trkpt lat="45.84114" lon="4.36943">
        <ele>781.10607910156</ele>
        <time>2020-11-13T17:10:06.719Z</time>
      </trkpt>
      <trkpt lat="45.84114" lon="4.36924">
        <ele>778.82647705078</ele>
        <time>2020-11-13T17:10:08.244Z</time>
      </trkpt>
      <trkpt lat="45.84118" lon="4.36905">
        <ele>777.03253173828</ele>
        <time>2020-11-13T17:10:09.771Z</time>
      </trkpt>
      <trkpt lat="45.84126" lon="4.36882">
        <ele>775.54473876953</ele>
        <time>2020-11-13T17:10:11.301Z</time>
      </trkpt>
      <trkpt lat="45.84136" lon="4.36863">
        <ele>775.03570556641</ele>
        <time>2020-11-13T17:10:12.834Z</time>
      </trkpt>
      <trkpt lat="45.84158" lon="4.36835">
        <ele>775.74475097656</ele>
        <time>2020-11-13T17:10:14.371Z</time>
      </trkpt>
      <trkpt lat="45.84174" lon="4.36818">
        <ele>776.57263183594</ele>
        <time>2020-11-13T17:10:15.912Z</time>
      </trkpt>
      <trkpt lat="45.84204" lon="4.36775">
        <ele>779.43518066406</ele>
        <time>2020-11-13T17:10:17.459Z</time>
      </trkpt>
      <trkpt lat="45.84209" lon="4.36764">
        <ele>779.82586669922</ele>
        <time>2020-11-13T17:10:19.008Z</time>
      </trkpt>
      <trkpt lat="45.8422" lon="4.3673">
        <ele>779.21398925781</ele>
        <time>2020-11-13T17:10:20.561Z</time>
      </trkpt>
      <trkpt lat="45.84228" lon="4.36707">
        <ele>779.78570556641</ele>
        <time>2020-11-13T17:10:22.117Z</time>
      </trkpt>
      <trkpt lat="45.8424" lon="4.36684">
        <ele>779.58422851562</ele>
        <time>2020-11-13T17:10:23.676Z</time>
      </trkpt>
      <trkpt lat="45.84268" lon="4.36641">
        <ele>779.45166015625</ele>
        <time>2020-11-13T17:10:25.242Z</time>
      </trkpt>
      <trkpt lat="45.84303" lon="4.36595">
        <ele>779.23999023438</ele>
        <time>2020-11-13T17:10:26.815Z</time>
      </trkpt>
      <trkpt lat="45.84338" lon="4.3656">
        <ele>780.94134521484</ele>
        <time>2020-11-13T17:10:28.395Z</time>
      </trkpt>
      <trkpt lat="45.84426" lon="4.36489">
        <ele>782.87829589844</ele>
        <time>2020-11-13T17:10:29.991Z</time>
      </trkpt>
      <trkpt lat="45.84523" lon="4.3642">
        <ele>781.55712890625</ele>
        <time>2020-11-13T17:10:31.605Z</time>
      </trkpt>
      <trkpt lat="45.84623" lon="4.36353">
        <ele>782.21453857422</ele>
        <time>2020-11-13T17:10:33.236Z</time>
      </trkpt>
      <trkpt lat="45.84662" lon="4.36332">
        <ele>778.63317871094</ele>
        <time>2020-11-13T17:10:34.874Z</time>
      </trkpt>
      <trkpt lat="45.84683" lon="4.36324">
        <ele>775.64569091797</ele>
        <time>2020-11-13T17:10:36.515Z</time>
      </trkpt>
      <trkpt lat="45.84695" lon="4.36322">
        <ele>774.49389648438</ele>
        <time>2020-11-13T17:10:38.158Z</time>
      </trkpt>
      <trkpt lat="45.84719" lon="4.36326">
        <ele>773.91796875</ele>
        <time>2020-11-13T17:10:39.805Z</time>
      </trkpt>
      <trkpt lat="45.84736" lon="4.36334">
        <ele>773.00549316406</ele>
        <time>2020-11-13T17:10:41.455Z</time>
      </trkpt>
      <trkpt lat="45.84759" lon="4.36357">
        <ele>773.83337402344</ele>
        <time>2020-11-13T17:10:43.110Z</time>
      </trkpt>
      <trkpt lat="45.84768" lon="4.3637">
        <ele>774.41577148438</ele>
        <time>2020-11-13T17:10:44.767Z</time>
      </trkpt>
      <trkpt lat="45.84784" lon="4.36406">
        <ele>775.42358398438</ele>
        <time>2020-11-13T17:10:46.428Z</time>
      </trkpt>
      <trkpt lat="45.84793" lon="4.36458">
        <ele>780.89770507812</ele>
        <time>2020-11-13T17:10:48.095Z</time>
      </trkpt>
      <trkpt lat="45.84803" lon="4.36527">
        <ele>787.24468994141</ele>
        <time>2020-11-13T17:10:49.770Z</time>
      </trkpt>
      <trkpt lat="45.84808" lon="4.36585">
        <ele>794.50360107422</ele>
        <time>2020-11-13T17:10:51.452Z</time>
      </trkpt>
      <trkpt lat="45.84816" lon="4.36632">
        <ele>802.73284912109</ele>
        <time>2020-11-13T17:10:53.139Z</time>
      </trkpt>
      <trkpt lat="45.84821" lon="4.36641">
        <ele>805.09643554688</ele>
        <time>2020-11-13T17:10:54.828Z</time>
      </trkpt>
      <trkpt lat="45.8483" lon="4.36646">
        <ele>808.27593994141</ele>
        <time>2020-11-13T17:10:56.518Z</time>
      </trkpt>
      <trkpt lat="45.8484" lon="4.36643">
        <ele>810.31634521484</ele>
        <time>2020-11-13T17:10:58.210Z</time>
      </trkpt>
      <trkpt lat="45.84844" lon="4.3664">
        <ele>810.38836669922</ele>
        <time>2020-11-13T17:10:59.902Z</time>
      </trkpt>
      <trkpt lat="45.84864" lon="4.36602">
        <ele>806.82550048828</ele>
        <time>2020-11-13T17:11:01.600Z</time>
      </trkpt>
      <trkpt lat="45.84899" lon="4.36536">
        <ele>795.88568115234</ele>
        <time>2020-11-13T17:11:03.307Z</time>
      </trkpt>
      <trkpt lat="45.84907" lon="4.36524">
        <ele>796.7470703125</ele>
        <time>2020-11-13T17:11:05.016Z</time>
      </trkpt>
      <trkpt lat="45.84935" lon="4.36502">
        <ele>803.29797363281</ele>
        <time>2020-11-13T17:11:06.730Z</time>
      </trkpt>
      <trkpt lat="45.84955" lon="4.3649">
        <ele>810.83233642578</ele>
        <time>2020-11-13T17:11:08.447Z</time>
      </trkpt>
      <trkpt lat="45.8497" lon="4.36477">
        <ele>817.26324462891</ele>
        <time>2020-11-13T17:11:10.167Z</time>
      </trkpt>
      <trkpt lat="45.84974" lon="4.36466">
        <ele>819.01843261719</ele>
        <time>2020-11-13T17:11:11.889Z</time>
      </trkpt>
      <trkpt lat="45.84973" lon="4.36448">
        <ele>819.14825439453</ele>
        <time>2020-11-13T17:11:13.613Z</time>
      </trkpt>
      <trkpt lat="45.84955" lon="4.36379">
        <ele>816.14685058594</ele>
        <time>2020-11-13T17:11:15.345Z</time>
      </trkpt>
      <trkpt lat="45.84943" lon="4.36199">
        <ele>811.65100097656</ele>
        <time>2020-11-13T17:11:17.097Z</time>
      </trkpt>
      <trkpt lat="45.84939" lon="4.36157">
        <ele>807.99145507812</ele>
        <time>2020-11-13T17:11:18.854Z</time>
      </trkpt>
      <trkpt lat="45.84942" lon="4.36144">
        <ele>805.47186279297</ele>
        <time>2020-11-13T17:11:20.612Z</time>
      </trkpt>
      <trkpt lat="45.84954" lon="4.36124">
        <ele>802.30444335938</ele>
        <time>2020-11-13T17:11:22.373Z</time>
      </trkpt>
      <trkpt lat="45.84958" lon="4.36119">
        <ele>801.60852050781</ele>
        <time>2020-11-13T17:11:24.135Z</time>
      </trkpt>
      <trkpt lat="45.84982" lon="4.36107">
        <ele>801.38348388672</ele>
        <time>2020-11-13T17:11:25.901Z</time>
      </trkpt>
      <trkpt lat="45.8503" lon="4.36095">
        <ele>803.11114501953</ele>
        <time>2020-11-13T17:11:27.675Z</time>
      </trkpt>
      <trkpt lat="45.8508" lon="4.36087">
        <ele>802.72595214844</ele>
        <time>2020-11-13T17:11:29.457Z</time>
      </trkpt>
      <trkpt lat="45.851" lon="4.36086">
        <ele>802.72595214844</ele>
        <time>2020-11-13T17:11:31.242Z</time>
      </trkpt>
      <trkpt lat="45.85129" lon="4.36088">
        <ele>804.90777587891</ele>
        <time>2020-11-13T17:11:33.032Z</time>
      </trkpt>
      <trkpt lat="45.85184" lon="4.36106">
        <ele>810.30871582031</ele>
        <time>2020-11-13T17:11:34.831Z</time>
      </trkpt>
      <trkpt lat="45.85211" lon="4.36113">
        <ele>812.37237548828</ele>
        <time>2020-11-13T17:11:36.634Z</time>
      </trkpt>
      <trkpt lat="45.85243" lon="4.36117">
        <ele>815.33227539062</ele>
        <time>2020-11-13T17:11:38.443Z</time>
      </trkpt>
      <trkpt lat="45.85264" lon="4.36115">
        <ele>817.50390625</ele>
        <time>2020-11-13T17:11:40.255Z</time>
      </trkpt>
      <trkpt lat="45.85278" lon="4.36104">
        <ele>818.48779296875</ele>
        <time>2020-11-13T17:11:42.069Z</time>
      </trkpt>
      <trkpt lat="45.85285" lon="4.36093">
        <ele>818.74133300781</ele>
        <time>2020-11-13T17:11:43.885Z</time>
      </trkpt>
      <trkpt lat="45.85292" lon="4.36063">
        <ele>820.27709960938</ele>
        <time>2020-11-13T17:11:45.705Z</time>
      </trkpt>
      <trkpt lat="45.853" lon="4.36022">
        <ele>822.58190917969</ele>
        <time>2020-11-13T17:11:47.529Z</time>
      </trkpt>
      <trkpt lat="45.853" lon="4.36003">
        <ele>823.94964599609</ele>
        <time>2020-11-13T17:11:49.356Z</time>
      </trkpt>
      <trkpt lat="45.85296" lon="4.35985">
        <ele>824.52557373047</ele>
        <time>2020-11-13T17:11:51.185Z</time>
      </trkpt>
      <trkpt lat="45.85247" lon="4.3583">
        <ele>824.86749267578</ele>
        <time>2020-11-13T17:11:53.033Z</time>
      </trkpt>
      <trkpt lat="45.8523" lon="4.35773">
        <ele>824.70587158203</ele>
        <time>2020-11-13T17:11:54.888Z</time>
      </trkpt>
      <trkpt lat="45.85229" lon="4.35732">
        <ele>824.10601806641</ele>
        <time>2020-11-13T17:11:56.747Z</time>
      </trkpt>
      <trkpt lat="45.8523" lon="4.3567">
        <ele>822.11987304688</ele>
        <time>2020-11-13T17:11:58.613Z</time>
      </trkpt>
      <trkpt lat="45.85231" lon="4.35632">
        <ele>820.35620117188</ele>
        <time>2020-11-13T17:12:00.483Z</time>
      </trkpt>
      <trkpt lat="45.85231" lon="4.35627">
        <ele>820.1162109375</ele>
        <time>2020-11-13T17:12:02.354Z</time>
      </trkpt>
      <trkpt lat="45.85231" lon="4.35618">
        <ele>819.51544189453</ele>
        <time>2020-11-13T17:12:04.226Z</time>
      </trkpt>
      <trkpt lat="45.85163" lon="4.35509">
        <ele>811.39971923828</ele>
        <time>2020-11-13T17:12:06.114Z</time>
      </trkpt>
      <trkpt lat="45.85126" lon="4.3545">
        <ele>807.82800292969</ele>
        <time>2020-11-13T17:12:08.011Z</time>
      </trkpt>
      <trkpt lat="45.85112" lon="4.35425">
        <ele>807.88824462891</ele>
        <time>2020-11-13T17:12:09.912Z</time>
      </trkpt>
      <trkpt lat="45.85098" lon="4.35393">
        <ele>807.51971435547</ele>
        <time>2020-11-13T17:12:11.817Z</time>
      </trkpt>
      <trkpt lat="45.85102" lon="4.35385">
        <ele>807.08776855469</ele>
        <time>2020-11-13T17:12:13.723Z</time>
      </trkpt>
      <trkpt lat="45.85103" lon="4.35374">
        <ele>806.65588378906</ele>
        <time>2020-11-13T17:12:15.630Z</time>
      </trkpt>
      <trkpt lat="45.851" lon="4.35366">
        <ele>806.47589111328</ele>
        <time>2020-11-13T17:12:17.538Z</time>
      </trkpt>
      <trkpt lat="45.85096" lon="4.35362">
        <ele>806.66290283203</ele>
        <time>2020-11-13T17:12:19.447Z</time>
      </trkpt>
      <trkpt lat="45.85091" lon="4.35361">
        <ele>806.89086914062</ele>
        <time>2020-11-13T17:12:21.357Z</time>
      </trkpt>
      <trkpt lat="45.85092" lon="4.3534">
        <ele>807.86273193359</ele>
        <time>2020-11-13T17:12:23.269Z</time>
      </trkpt>
      <trkpt lat="45.85105" lon="4.35268">
        <ele>806.41607666016</ele>
        <time>2020-11-13T17:12:25.190Z</time>
      </trkpt>
      <trkpt lat="45.85148" lon="4.35067">
        <ele>806.22540283203</ele>
        <time>2020-11-13T17:12:27.134Z</time>
      </trkpt>
      <trkpt lat="45.85184" lon="4.34906">
        <ele>805.98223876953</ele>
        <time>2020-11-13T17:12:29.097Z</time>
      </trkpt>
      <trkpt lat="45.85244" lon="4.34642">
        <ele>798.62646484375</ele>
        <time>2020-11-13T17:12:31.091Z</time>
      </trkpt>
      <trkpt lat="45.85261" lon="4.34556">
        <ele>794.47021484375</ele>
        <time>2020-11-13T17:12:33.095Z</time>
      </trkpt>
      <trkpt lat="45.85261" lon="4.34517">
        <ele>792.95776367188</ele>
        <time>2020-11-13T17:12:35.103Z</time>
      </trkpt>
      <trkpt lat="45.85253" lon="4.34482">
        <ele>789.01043701172</ele>
        <time>2020-11-13T17:12:37.116Z</time>
      </trkpt>
      <trkpt lat="45.85245" lon="4.34461">
        <ele>787.33453369141</ele>
        <time>2020-11-13T17:12:39.131Z</time>
      </trkpt>
      <trkpt lat="45.85239" lon="4.34451">
        <ele>786.71063232422</ele>
        <time>2020-11-13T17:12:41.148Z</time>
      </trkpt>
      <trkpt lat="45.85216" lon="4.34427">
        <ele>785.44390869141</ele>
        <time>2020-11-13T17:12:43.169Z</time>
      </trkpt>
      <trkpt lat="45.85201" lon="4.34418">
        <ele>785.04797363281</ele>
        <time>2020-11-13T17:12:45.193Z</time>
      </trkpt>
      <trkpt lat="45.85184" lon="4.34412">
        <ele>785.06610107422</ele>
        <time>2020-11-13T17:12:47.220Z</time>
      </trkpt>
      <trkpt lat="45.85153" lon="4.34404">
        <ele>785.96594238281</ele>
        <time>2020-11-13T17:12:49.252Z</time>
      </trkpt>
      <trkpt lat="45.85121" lon="4.34392">
        <ele>786.00836181641</ele>
        <time>2020-11-13T17:12:51.289Z</time>
      </trkpt>
      <trkpt lat="45.85099" lon="4.34378">
        <ele>785.12054443359</ele>
        <time>2020-11-13T17:12:53.330Z</time>
      </trkpt>
      <trkpt lat="45.85085" lon="4.34364">
        <ele>783.94909667969</ele>
        <time>2020-11-13T17:12:55.374Z</time>
      </trkpt>
      <trkpt lat="45.85068" lon="4.34342">
        <ele>783.50518798828</ele>
        <time>2020-11-13T17:12:57.421Z</time>
      </trkpt>
      <trkpt lat="45.85054" lon="4.34318">
        <ele>782.92504882812</ele>
        <time>2020-11-13T17:12:59.472Z</time>
      </trkpt>
      <trkpt lat="45.85045" lon="4.34296">
        <ele>782.51715087891</ele>
        <time>2020-11-13T17:13:01.526Z</time>
      </trkpt>
      <trkpt lat="45.85036" lon="4.34262">
        <ele>782.88043212891</ele>
        <time>2020-11-13T17:13:03.584Z</time>
      </trkpt>
      <trkpt lat="45.85033" lon="4.34239">
        <ele>782.51867675781</ele>
        <time>2020-11-13T17:13:05.644Z</time>
      </trkpt>
      <trkpt lat="45.85031" lon="4.34212">
        <ele>781.81079101562</ele>
        <time>2020-11-13T17:13:07.707Z</time>
      </trkpt>
      <trkpt lat="45.85032" lon="4.34186">
        <ele>781.42486572266</ele>
        <time>2020-11-13T17:13:09.773Z</time>
      </trkpt>
      <trkpt lat="45.85035" lon="4.34164">
        <ele>781.10754394531</ele>
        <time>2020-11-13T17:13:11.842Z</time>
      </trkpt>
      <trkpt lat="45.85042" lon="4.34136">
        <ele>779.59576416016</ele>
        <time>2020-11-13T17:13:13.914Z</time>
      </trkpt>
      <trkpt lat="45.85057" lon="4.34094">
        <ele>778.32055664062</ele>
        <time>2020-11-13T17:13:15.991Z</time>
      </trkpt>
      <trkpt lat="45.85074" lon="4.34061">
        <ele>778.86047363281</ele>
        <time>2020-11-13T17:13:18.073Z</time>
      </trkpt>
      <trkpt lat="45.85126" lon="4.3395">
        <ele>779.33184814453</ele>
        <time>2020-11-13T17:13:20.170Z</time>
      </trkpt>
      <trkpt lat="45.85138" lon="4.33913">
        <ele>778.47259521484</ele>
        <time>2020-11-13T17:13:22.271Z</time>
      </trkpt>
      <trkpt lat="45.85145" lon="4.33884">
        <ele>778.82977294922</ele>
        <time>2020-11-13T17:13:24.376Z</time>
      </trkpt>
      <trkpt lat="45.85156" lon="4.33806">
        <ele>778.27526855469</ele>
        <time>2020-11-13T17:13:26.490Z</time>
      </trkpt>
      <trkpt lat="45.85165" lon="4.3371">
        <ele>777.35064697266</ele>
        <time>2020-11-13T17:13:28.615Z</time>
      </trkpt>
      <trkpt lat="45.8518" lon="4.33606">
        <ele>774.13037109375</ele>
        <time>2020-11-13T17:13:30.751Z</time>
      </trkpt>
      <trkpt lat="45.85199" lon="4.33518">
        <ele>773.78961181641</ele>
        <time>2020-11-13T17:13:32.898Z</time>
      </trkpt>
      <trkpt lat="45.85211" lon="4.33467">
        <ele>770.15423583984</ele>
        <time>2020-11-13T17:13:35.051Z</time>
      </trkpt>
      <trkpt lat="45.85218" lon="4.3342">
        <ele>766.73626708984</ele>
        <time>2020-11-13T17:13:37.209Z</time>
      </trkpt>
      <trkpt lat="45.85219" lon="4.33382">
        <ele>764.68463134766</ele>
        <time>2020-11-13T17:13:39.371Z</time>
      </trkpt>
      <trkpt lat="45.85216" lon="4.33355">
        <ele>763.52465820312</ele>
        <time>2020-11-13T17:13:41.537Z</time>
      </trkpt>
      <trkpt lat="45.85208" lon="4.33322">
        <ele>763.89660644531</ele>
        <time>2020-11-13T17:13:43.706Z</time>
      </trkpt>
      <trkpt lat="45.85202" lon="4.33304">
        <ele>764.25653076172</ele>
        <time>2020-11-13T17:13:45.878Z</time>
      </trkpt>
      <trkpt lat="45.85192" lon="4.33283">
        <ele>764.96441650391</ele>
        <time>2020-11-13T17:13:48.052Z</time>
      </trkpt>
      <trkpt lat="45.85172" lon="4.33252">
        <ele>763.4296875</ele>
        <time>2020-11-13T17:13:50.231Z</time>
      </trkpt>
      <trkpt lat="45.85145" lon="4.33225">
        <ele>762.78179931641</ele>
        <time>2020-11-13T17:13:52.415Z</time>
      </trkpt>
      <trkpt lat="45.85119" lon="4.33209">
        <ele>762.87219238281</ele>
        <time>2020-11-13T17:13:54.604Z</time>
      </trkpt>
      <trkpt lat="45.85066" lon="4.33177">
        <ele>760.42474365234</ele>
        <time>2020-11-13T17:13:56.802Z</time>
      </trkpt>
      <trkpt lat="45.85024" lon="4.33158">
        <ele>760.41912841797</ele>
        <time>2020-11-13T17:13:59.007Z</time>
      </trkpt>
      <trkpt lat="45.84988" lon="4.3315">
        <ele>761.82604980469</ele>
        <time>2020-11-13T17:14:01.218Z</time>
      </trkpt>
      <trkpt lat="45.84939" lon="4.33143">
        <ele>761.99786376953</ele>
        <time>2020-11-13T17:14:03.437Z</time>
      </trkpt>
      <trkpt lat="45.84919" lon="4.33139">
        <ele>761.46990966797</ele>
        <time>2020-11-13T17:14:05.659Z</time>
      </trkpt>
      <trkpt lat="45.84892" lon="4.33131">
        <ele>759.05401611328</ele>
        <time>2020-11-13T17:14:07.886Z</time>
      </trkpt>
      <trkpt lat="45.84874" lon="4.3312">
        <ele>757.48162841797</ele>
        <time>2020-11-13T17:14:10.116Z</time>
      </trkpt>
      <trkpt lat="45.8486" lon="4.33107">
        <ele>756.40313720703</ele>
        <time>2020-11-13T17:14:12.348Z</time>
      </trkpt>
      <trkpt lat="45.84848" lon="4.33092">
        <ele>755.71929931641</ele>
        <time>2020-11-13T17:14:14.583Z</time>
      </trkpt>
      <trkpt lat="45.84839" lon="4.33075">
        <ele>754.99938964844</ele>
        <time>2020-11-13T17:14:16.820Z</time>
      </trkpt>
      <trkpt lat="45.84828" lon="4.3305">
        <ele>753.83978271484</ele>
        <time>2020-11-13T17:14:19.061Z</time>
      </trkpt>
      <trkpt lat="45.8482" lon="4.33021">
        <ele>753.06060791016</ele>
        <time>2020-11-13T17:14:21.305Z</time>
      </trkpt>
      <trkpt lat="45.84816" lon="4.32978">
        <ele>755.78411865234</ele>
        <time>2020-11-13T17:14:23.554Z</time>
      </trkpt>
      <trkpt lat="45.84819" lon="4.32948">
        <ele>755.85046386719</ele>
        <time>2020-11-13T17:14:25.806Z</time>
      </trkpt>
      <trkpt lat="45.84822" lon="4.32929">
        <ele>757.90014648438</ele>
        <time>2020-11-13T17:14:28.061Z</time>
      </trkpt>
      <trkpt lat="45.84828" lon="4.3291">
        <ele>759.62786865234</ele>
        <time>2020-11-13T17:14:30.318Z</time>
      </trkpt>
      <trkpt lat="45.84837" lon="4.32888">
        <ele>760.36389160156</ele>
        <time>2020-11-13T17:14:32.578Z</time>
      </trkpt>
      <trkpt lat="45.84868" lon="4.32832">
        <ele>753.13781738281</ele>
        <time>2020-11-13T17:14:34.846Z</time>
      </trkpt>
      <trkpt lat="45.84882" lon="4.3281">
        <ele>751.89001464844</ele>
        <time>2020-11-13T17:14:37.117Z</time>
      </trkpt>
      <trkpt lat="45.84922" lon="4.32745">
        <ele>749.58428955078</ele>
        <time>2020-11-13T17:14:39.398Z</time>
      </trkpt>
      <trkpt lat="45.84941" lon="4.32718">
        <ele>750.88507080078</ele>
        <time>2020-11-13T17:14:41.683Z</time>
      </trkpt>
      <trkpt lat="45.84954" lon="4.32702">
        <ele>752.40881347656</ele>
        <time>2020-11-13T17:14:43.971Z</time>
      </trkpt>
      <trkpt lat="45.84967" lon="4.3269">
        <ele>752.13269042969</ele>
        <time>2020-11-13T17:14:46.261Z</time>
      </trkpt>
      <trkpt lat="45.84994" lon="4.32672">
        <ele>754.109375</ele>
        <time>2020-11-13T17:14:48.556Z</time>
      </trkpt>
      <trkpt lat="45.85084" lon="4.32631">
        <ele>761.30035400391</ele>
        <time>2020-11-13T17:14:50.866Z</time>
      </trkpt>
      <trkpt lat="45.85149" lon="4.32603">
        <ele>762.62475585938</ele>
        <time>2020-11-13T17:14:53.187Z</time>
      </trkpt>
      <trkpt lat="45.85172" lon="4.32592">
        <ele>761.85687255859</ele>
        <time>2020-11-13T17:14:55.512Z</time>
      </trkpt>
      <trkpt lat="45.85199" lon="4.32575">
        <ele>760.13482666016</ele>
        <time>2020-11-13T17:14:57.842Z</time>
      </trkpt>
      <trkpt lat="45.85219" lon="4.32556">
        <ele>757.1953125</ele>
        <time>2020-11-13T17:15:00.175Z</time>
      </trkpt>
      <trkpt lat="45.85229" lon="4.32543">
        <ele>756.16668701172</ele>
        <time>2020-11-13T17:15:02.511Z</time>
      </trkpt>
      <trkpt lat="45.85242" lon="4.32516">
        <ele>753.45947265625</ele>
        <time>2020-11-13T17:15:04.850Z</time>
      </trkpt>
      <trkpt lat="45.85251" lon="4.32488">
        <ele>750.84393310547</ele>
        <time>2020-11-13T17:15:07.193Z</time>
      </trkpt>
      <trkpt lat="45.85255" lon="4.32464">
        <ele>748.84637451172</ele>
        <time>2020-11-13T17:15:09.538Z</time>
      </trkpt>
      <trkpt lat="45.85257" lon="4.32446">
        <ele>747.22399902344</ele>
        <time>2020-11-13T17:15:11.886Z</time>
      </trkpt>
      <trkpt lat="45.85256" lon="4.32412">
        <ele>744.21246337891</ele>
        <time>2020-11-13T17:15:14.237Z</time>
      </trkpt>
      <trkpt lat="45.85233" lon="4.32288">
        <ele>740.73480224609</ele>
        <time>2020-11-13T17:15:16.603Z</time>
      </trkpt>
      <trkpt lat="45.85229" lon="4.32247">
        <ele>743.21673583984</ele>
        <time>2020-11-13T17:15:18.973Z</time>
      </trkpt>
      <trkpt lat="45.8523" lon="4.32222">
        <ele>744.35650634766</ele>
        <time>2020-11-13T17:15:21.346Z</time>
      </trkpt>
      <trkpt lat="45.85233" lon="4.32199">
        <ele>746.39617919922</ele>
        <time>2020-11-13T17:15:23.722Z</time>
      </trkpt>
      <trkpt lat="45.85242" lon="4.32168">
        <ele>746.35314941406</ele>
        <time>2020-11-13T17:15:26.101Z</time>
      </trkpt>
      <trkpt lat="45.85252" lon="4.32146">
        <ele>746.28118896484</ele>
        <time>2020-11-13T17:15:28.483Z</time>
      </trkpt>
      <trkpt lat="45.85266" lon="4.32123">
        <ele>747.68878173828</ele>
        <time>2020-11-13T17:15:30.869Z</time>
      </trkpt>
      <trkpt lat="45.85281" lon="4.32106">
        <ele>748.47863769531</ele>
        <time>2020-11-13T17:15:33.258Z</time>
      </trkpt>
      <trkpt lat="45.85303" lon="4.32091">
        <ele>748.76037597656</ele>
        <time>2020-11-13T17:15:35.651Z</time>
      </trkpt>
      <trkpt lat="45.85333" lon="4.32076">
        <ele>745.40216064453</ele>
        <time>2020-11-13T17:15:38.049Z</time>
      </trkpt>
      <trkpt lat="45.85444" lon="4.32035">
        <ele>741.96984863281</ele>
        <time>2020-11-13T17:15:40.465Z</time>
      </trkpt>
      <trkpt lat="45.85493" lon="4.32016">
        <ele>741.6962890625</ele>
        <time>2020-11-13T17:15:42.889Z</time>
      </trkpt>
      <trkpt lat="45.85522" lon="4.32001">
        <ele>740.42449951172</ele>
        <time>2020-11-13T17:15:45.318Z</time>
      </trkpt>
      <trkpt lat="45.85538" lon="4.31988">
        <ele>741.55194091797</ele>
        <time>2020-11-13T17:15:47.750Z</time>
      </trkpt>
      <trkpt lat="45.85552" lon="4.31971">
        <ele>742.85968017578</ele>
        <time>2020-11-13T17:15:50.185Z</time>
      </trkpt>
      <trkpt lat="45.85567" lon="4.31947">
        <ele>743.52905273438</ele>
        <time>2020-11-13T17:15:52.624Z</time>
      </trkpt>
      <trkpt lat="45.8558" lon="4.31915">
        <ele>744.15338134766</ele>
        <time>2020-11-13T17:15:55.067Z</time>
      </trkpt>
      <trkpt lat="45.85585" lon="4.31886">
        <ele>744.63366699219</ele>
        <time>2020-11-13T17:15:57.513Z</time>
      </trkpt>
      <trkpt lat="45.85588" lon="4.31849">
        <ele>746.21740722656</ele>
        <time>2020-11-13T17:15:59.963Z</time>
      </trkpt>
      <trkpt lat="45.85584" lon="4.31796">
        <ele>747.78918457031</ele>
        <time>2020-11-13T17:16:02.419Z</time>
      </trkpt>
      <trkpt lat="45.85571" lon="4.31672">
        <ele>747.92266845703</ele>
        <time>2020-11-13T17:16:04.889Z</time>
      </trkpt>
      <trkpt lat="45.85542" lon="4.31415">
        <ele>748.720703125</ele>
        <time>2020-11-13T17:16:07.389Z</time>
      </trkpt>
      <trkpt lat="45.85538" lon="4.31391">
        <ele>747.42492675781</ele>
        <time>2020-11-13T17:16:09.891Z</time>
      </trkpt>
      <trkpt lat="45.85528" lon="4.31352">
        <ele>745.66033935547</ele>
        <time>2020-11-13T17:16:12.398Z</time>
      </trkpt>
      <trkpt lat="45.85513" lon="4.31313">
        <ele>744.66259765625</ele>
        <time>2020-11-13T17:16:14.910Z</time>
      </trkpt>
      <trkpt lat="45.85491" lon="4.31272">
        <ele>741.76422119141</ele>
        <time>2020-11-13T17:16:17.428Z</time>
      </trkpt>
      <trkpt lat="45.8544" lon="4.31182">
        <ele>737.39898681641</ele>
        <time>2020-11-13T17:16:19.959Z</time>
      </trkpt>
      <trkpt lat="45.85417" lon="4.31142">
        <ele>732.73175048828</ele>
        <time>2020-11-13T17:16:22.495Z</time>
      </trkpt>
      <trkpt lat="45.85397" lon="4.31112">
        <ele>728.87567138672</ele>
        <time>2020-11-13T17:16:25.036Z</time>
      </trkpt>
      <trkpt lat="45.85359" lon="4.3107">
        <ele>723.39251708984</ele>
        <time>2020-11-13T17:16:27.585Z</time>
      </trkpt>
      <trkpt lat="45.85341" lon="4.31053">
        <ele>721.86877441406</ele>
        <time>2020-11-13T17:16:30.137Z</time>
      </trkpt>
      <trkpt lat="45.8532" lon="4.31029">
        <ele>719.32556152344</ele>
        <time>2020-11-13T17:16:32.694Z</time>
      </trkpt>
      <trkpt lat="45.8531" lon="4.31012">
        <ele>718.16174316406</ele>
        <time>2020-11-13T17:16:35.253Z</time>
      </trkpt>
      <trkpt lat="45.85299" lon="4.30983">
        <ele>715.18981933594</ele>
        <time>2020-11-13T17:16:37.816Z</time>
      </trkpt>
      <trkpt lat="45.85294" lon="4.30961">
        <ele>712.58630371094</ele>
        <time>2020-11-13T17:16:40.381Z</time>
      </trkpt>
      <trkpt lat="45.85291" lon="4.30929">
        <ele>709.96520996094</ele>
        <time>2020-11-13T17:16:42.950Z</time>
      </trkpt>
      <trkpt lat="45.85291" lon="4.30908">
        <ele>709.71325683594</ele>
        <time>2020-11-13T17:16:45.521Z</time>
      </trkpt>
      <trkpt lat="45.85296" lon="4.30871">
        <ele>709.20935058594</ele>
        <time>2020-11-13T17:16:48.096Z</time>
      </trkpt>
      <trkpt lat="45.85306" lon="4.30809">
        <ele>709.63385009766</ele>
        <time>2020-11-13T17:16:50.679Z</time>
      </trkpt>
      <trkpt lat="45.85308" lon="4.30771">
        <ele>710.26892089844</ele>
        <time>2020-11-13T17:16:53.266Z</time>
      </trkpt>
      <trkpt lat="45.85307" lon="4.30749">
        <ele>712.35656738281</ele>
        <time>2020-11-13T17:16:55.855Z</time>
      </trkpt>
      <trkpt lat="45.85301" lon="4.30716">
        <ele>715.03143310547</ele>
        <time>2020-11-13T17:16:58.448Z</time>
      </trkpt>
      <trkpt lat="45.85284" lon="4.30669">
        <ele>718.28112792969</ele>
        <time>2020-11-13T17:17:01.047Z</time>
      </trkpt>
      <trkpt lat="45.85234" lon="4.30569">
        <ele>725.87951660156</ele>
        <time>2020-11-13T17:17:03.660Z</time>
      </trkpt>
      <trkpt lat="45.8521" lon="4.30523">
        <ele>729.71984863281</ele>
        <time>2020-11-13T17:17:06.279Z</time>
      </trkpt>
      <trkpt lat="45.85195" lon="4.305">
        <ele>732.43707275391</ele>
        <time>2020-11-13T17:17:08.902Z</time>
      </trkpt>
      <trkpt lat="45.85177" lon="4.30478">
        <ele>734.45269775391</ele>
        <time>2020-11-13T17:17:11.529Z</time>
      </trkpt>
      <trkpt lat="45.85164" lon="4.30467">
        <ele>735.02862548828</ele>
        <time>2020-11-13T17:17:14.158Z</time>
      </trkpt>
      <trkpt lat="45.85136" lon="4.30449">
        <ele>735.39581298828</ele>
        <time>2020-11-13T17:17:16.792Z</time>
      </trkpt>
      <trkpt lat="45.85105" lon="4.30441">
        <ele>736.21435546875</ele>
        <time>2020-11-13T17:17:19.431Z</time>
      </trkpt>
      <trkpt lat="45.85086" lon="4.30438">
        <ele>736.28637695312</ele>
        <time>2020-11-13T17:17:22.073Z</time>
      </trkpt>
      <trkpt lat="45.85049" lon="4.30433">
        <ele>735.71887207031</ele>
        <time>2020-11-13T17:17:24.721Z</time>
      </trkpt>
      <trkpt lat="45.85036" lon="4.30429">
        <ele>735.50286865234</ele>
        <time>2020-11-13T17:17:27.371Z</time>
      </trkpt>
      <trkpt lat="45.85018" lon="4.3042">
        <ele>736.58270263672</ele>
        <time>2020-11-13T17:17:30.024Z</time>
      </trkpt>
      <trkpt lat="45.85001" lon="4.30408">
        <ele>738.1904296875</ele>
        <time>2020-11-13T17:17:32.680Z</time>
      </trkpt>
      <trkpt lat="45.84984" lon="4.30391">
        <ele>740.63800048828</ele>
        <time>2020-11-13T17:17:35.339Z</time>
      </trkpt>
      <trkpt lat="45.84972" lon="4.30375">
        <ele>742.90246582031</ele>
        <time>2020-11-13T17:17:38.001Z</time>
      </trkpt>
      <trkpt lat="45.84952" lon="4.30334">
        <ele>741.76770019531</ele>
        <time>2020-11-13T17:17:40.669Z</time>
      </trkpt>
      <trkpt lat="45.84932" lon="4.30263">
        <ele>744.01361083984</ele>
        <time>2020-11-13T17:17:43.345Z</time>
      </trkpt>
      <trkpt lat="45.84924" lon="4.30233">
        <ele>746.19720458984</ele>
        <time>2020-11-13T17:17:46.025Z</time>
      </trkpt>
      <trkpt lat="45.84914" lon="4.30205">
        <ele>745.46411132812</ele>
        <time>2020-11-13T17:17:48.708Z</time>
      </trkpt>
      <trkpt lat="45.84892" lon="4.30167">
        <ele>742.96490478516</ele>
        <time>2020-11-13T17:17:51.397Z</time>
      </trkpt>
      <trkpt lat="45.84892" lon="4.30166">
        <ele>743.01293945312</ele>
        <time>2020-11-13T17:17:54.086Z</time>
      </trkpt>
      <trkpt lat="45.84883" lon="4.30154">
        <ele>742.52941894531</ele>
        <time>2020-11-13T17:17:56.777Z</time>
      </trkpt>
      <trkpt lat="45.84856" lon="4.30125">
        <ele>741.65356445312</ele>
        <time>2020-11-13T17:17:59.473Z</time>
      </trkpt>
      <trkpt lat="45.84834" lon="4.30103">
        <ele>740.98590087891</ele>
        <time>2020-11-13T17:18:02.174Z</time>
      </trkpt>
      <trkpt lat="45.8482" lon="4.30085">
        <ele>740.88995361328</ele>
        <time>2020-11-13T17:18:04.878Z</time>
      </trkpt>
      <trkpt lat="45.84804" lon="4.30058">
        <ele>740.98907470703</ele>
        <time>2020-11-13T17:18:07.586Z</time>
      </trkpt>
      <trkpt lat="45.84787" lon="4.30016">
        <ele>741.62536621094</ele>
        <time>2020-11-13T17:18:10.299Z</time>
      </trkpt>
      <trkpt lat="45.84764" lon="4.29956">
        <ele>741.87982177734</ele>
        <time>2020-11-13T17:18:13.020Z</time>
      </trkpt>
      <trkpt lat="45.84748" lon="4.29924">
        <ele>743.39880371094</ele>
        <time>2020-11-13T17:18:15.745Z</time>
      </trkpt>
      <trkpt lat="45.84734" lon="4.29903">
        <ele>744.74261474609</ele>
        <time>2020-11-13T17:18:18.473Z</time>
      </trkpt>
      <trkpt lat="45.84707" lon="4.29869">
        <ele>747.08209228516</ele>
        <time>2020-11-13T17:18:21.207Z</time>
      </trkpt>
      <trkpt lat="45.84671" lon="4.29838">
        <ele>750.10473632812</ele>
        <time>2020-11-13T17:18:23.948Z</time>
      </trkpt>
      <trkpt lat="45.84635" lon="4.29818">
        <ele>752.02972412109</ele>
        <time>2020-11-13T17:18:26.695Z</time>
      </trkpt>
      <trkpt lat="45.84615" lon="4.29809">
        <ele>753.45751953125</ele>
        <time>2020-11-13T17:18:29.445Z</time>
      </trkpt>
      <trkpt lat="45.84559" lon="4.29787">
        <ele>756.75665283203</ele>
        <time>2020-11-13T17:18:32.205Z</time>
      </trkpt>
      <trkpt lat="45.84522" lon="4.29768">
        <ele>758.48071289062</ele>
        <time>2020-11-13T17:18:34.971Z</time>
      </trkpt>
      <trkpt lat="45.84496" lon="4.29752">
        <ele>759.58453369141</ele>
        <time>2020-11-13T17:18:37.741Z</time>
      </trkpt>
      <trkpt lat="45.84459" lon="4.29719">
        <ele>761.45306396484</ele>
        <time>2020-11-13T17:18:40.518Z</time>
      </trkpt>
      <trkpt lat="45.84433" lon="4.29687">
        <ele>762.14801025391</ele>
        <time>2020-11-13T17:18:43.301Z</time>
      </trkpt>
      <trkpt lat="45.84416" lon="4.29662">
        <ele>761.92004394531</ele>
        <time>2020-11-13T17:18:46.088Z</time>
      </trkpt>
      <trkpt lat="45.84399" lon="4.29631">
        <ele>761.98004150391</ele>
        <time>2020-11-13T17:18:48.879Z</time>
      </trkpt>
      <trkpt lat="45.84379" lon="4.29586">
        <ele>761.34564208984</ele>
        <time>2020-11-13T17:18:51.676Z</time>
      </trkpt>
      <trkpt lat="45.84344" lon="4.295">
        <ele>757.12799072266</ele>
        <time>2020-11-13T17:18:54.484Z</time>
      </trkpt>
      <trkpt lat="45.84328" lon="4.29467">
        <ele>754.02587890625</ele>
        <time>2020-11-13T17:18:57.297Z</time>
      </trkpt>
      <trkpt lat="45.84312" lon="4.29439">
        <ele>751.22503662109</ele>
        <time>2020-11-13T17:19:00.114Z</time>
      </trkpt>
      <trkpt lat="45.84283" lon="4.294">
        <ele>746.94543457031</ele>
        <time>2020-11-13T17:19:02.937Z</time>
      </trkpt>
      <trkpt lat="45.84254" lon="4.29369">
        <ele>744.24591064453</ele>
        <time>2020-11-13T17:19:05.766Z</time>
      </trkpt>
      <trkpt lat="45.84201" lon="4.29321">
        <ele>741.73187255859</ele>
        <time>2020-11-13T17:19:08.605Z</time>
      </trkpt>
      <trkpt lat="45.84183" lon="4.29304">
        <ele>741.20391845703</ele>
        <time>2020-11-13T17:19:11.448Z</time>
      </trkpt>
      <trkpt lat="45.84158" lon="4.29273">
        <ele>739.91436767578</ele>
        <time>2020-11-13T17:19:14.296Z</time>
      </trkpt>
      <trkpt lat="45.84132" lon="4.29232">
        <ele>738.38372802734</ele>
        <time>2020-11-13T17:19:17.150Z</time>
      </trkpt>
      <trkpt lat="45.84111" lon="4.2919">
        <ele>735.16979980469</ele>
        <time>2020-11-13T17:19:20.010Z</time>
      </trkpt>
      <trkpt lat="45.84088" lon="4.29123">
        <ele>733.27972412109</ele>
        <time>2020-11-13T17:19:22.878Z</time>
      </trkpt>
      <trkpt lat="45.84069" lon="4.29032">
        <ele>731.90435791016</ele>
        <time>2020-11-13T17:19:25.757Z</time>
      </trkpt>
      <trkpt lat="45.84058" lon="4.28927">
        <ele>732.0126953125</ele>
        <time>2020-11-13T17:19:28.648Z</time>
      </trkpt>
      <trkpt lat="45.84055" lon="4.28864">
        <ele>730.90704345703</ele>
        <time>2020-11-13T17:19:31.546Z</time>
      </trkpt>
      <trkpt lat="45.84051" lon="4.28793">
        <ele>725.44116210938</ele>
        <time>2020-11-13T17:19:34.452Z</time>
      </trkpt>
      <trkpt lat="45.84051" lon="4.28734">
        <ele>720.98394775391</ele>
        <time>2020-11-13T17:19:37.364Z</time>
      </trkpt>
      <trkpt lat="45.84055" lon="4.28662">
        <ele>714.71923828125</ele>
        <time>2020-11-13T17:19:40.284Z</time>
      </trkpt>
      <trkpt lat="45.84063" lon="4.28616">
        <ele>710.52154541016</ele>
        <time>2020-11-13T17:19:43.210Z</time>
      </trkpt>
      <trkpt lat="45.84079" lon="4.28561">
        <ele>708.74975585938</ele>
        <time>2020-11-13T17:19:46.142Z</time>
      </trkpt>
      <trkpt lat="45.84095" lon="4.28518">
        <ele>705.54699707031</ele>
        <time>2020-11-13T17:19:49.080Z</time>
      </trkpt>
      <trkpt lat="45.84116" lon="4.28476">
        <ele>705.70208740234</ele>
        <time>2020-11-13T17:19:52.024Z</time>
      </trkpt>
      <trkpt lat="45.84133" lon="4.28449">
        <ele>704.63427734375</ele>
        <time>2020-11-13T17:19:54.972Z</time>
      </trkpt>
      <trkpt lat="45.84167" lon="4.28404">
        <ele>706.55609130859</ele>
        <time>2020-11-13T17:19:57.927Z</time>
      </trkpt>
      <trkpt lat="45.84224" lon="4.28338">
        <ele>702.87622070312</ele>
        <time>2020-11-13T17:20:00.894Z</time>
      </trkpt>
      <trkpt lat="45.84284" lon="4.28275">
        <ele>692.88775634766</ele>
        <time>2020-11-13T17:20:03.873Z</time>
      </trkpt>
      <trkpt lat="45.84366" lon="4.28194">
        <ele>677.29632568359</ele>
        <time>2020-11-13T17:20:06.868Z</time>
      </trkpt>
      <trkpt lat="45.84468" lon="4.28086">
        <ele>668.8916015625</ele>
        <time>2020-11-13T17:20:09.883Z</time>
      </trkpt>
      <trkpt lat="45.8457" lon="4.27975">
        <ele>670.63043212891</ele>
        <time>2020-11-13T17:20:12.918Z</time>
      </trkpt>
      <trkpt lat="45.84648" lon="4.2789">
        <ele>672.88262939453</ele>
        <time>2020-11-13T17:20:15.969Z</time>
      </trkpt>
      <trkpt lat="45.84695" lon="4.27831">
        <ele>673.92352294922</ele>
        <time>2020-11-13T17:20:19.030Z</time>
      </trkpt>
      <trkpt lat="45.84714" lon="4.27801">
        <ele>674.79937744141</ele>
        <time>2020-11-13T17:20:22.096Z</time>
      </trkpt>
      <trkpt lat="45.84725" lon="4.2778">
        <ele>675.35180664062</ele>
        <time>2020-11-13T17:20:25.165Z</time>
      </trkpt>
      <trkpt lat="45.84743" lon="4.27735">
        <ele>674.20397949219</ele>
        <time>2020-11-13T17:20:28.239Z</time>
      </trkpt>
      <trkpt lat="45.84752" lon="4.27698">
        <ele>672.39227294922</ele>
        <time>2020-11-13T17:20:31.318Z</time>
      </trkpt>
      <trkpt lat="45.84758" lon="4.27661">
        <ele>670.14868164062</ele>
        <time>2020-11-13T17:20:34.401Z</time>
      </trkpt>
      <trkpt lat="45.84759" lon="4.27617">
        <ele>666.98651123047</ele>
        <time>2020-11-13T17:20:37.489Z</time>
      </trkpt>
      <trkpt lat="45.84759" lon="4.27603">
        <ele>666.33624267578</ele>
        <time>2020-11-13T17:20:40.579Z</time>
      </trkpt>
      <trkpt lat="45.84756" lon="4.27572">
        <ele>664.75256347656</ele>
        <time>2020-11-13T17:20:43.672Z</time>
      </trkpt>
      <trkpt lat="45.8475" lon="4.27544">
        <ele>662.80883789062</ele>
        <time>2020-11-13T17:20:46.768Z</time>
      </trkpt>
      <trkpt lat="45.84741" lon="4.27515">
        <ele>662.28656005859</ele>
        <time>2020-11-13T17:20:49.868Z</time>
      </trkpt>
      <trkpt lat="45.8473" lon="4.27489">
        <ele>663.06646728516</ele>
        <time>2020-11-13T17:20:52.971Z</time>
      </trkpt>
      <trkpt lat="45.84714" lon="4.2746">
        <ele>663.66015625</ele>
        <time>2020-11-13T17:20:56.078Z</time>
      </trkpt>
      <trkpt lat="45.84694" lon="4.27432">
        <ele>663.77722167969</ele>
        <time>2020-11-13T17:20:59.190Z</time>
      </trkpt>
      <trkpt lat="45.8467" lon="4.27408">
        <ele>662.91339111328</ele>
        <time>2020-11-13T17:21:02.307Z</time>
      </trkpt>
      <trkpt lat="45.84657" lon="4.27398">
        <ele>662.19354248047</ele>
        <time>2020-11-13T17:21:05.426Z</time>
      </trkpt>
      <trkpt lat="45.84636" lon="4.27387">
        <ele>660.44671630859</ele>
        <time>2020-11-13T17:21:08.548Z</time>
      </trkpt>
      <trkpt lat="45.84612" lon="4.27378">
        <ele>657.17126464844</ele>
        <time>2020-11-13T17:21:11.674Z</time>
      </trkpt>
      <trkpt lat="45.84585" lon="4.27375">
        <ele>652.88800048828</ele>
        <time>2020-11-13T17:21:14.805Z</time>
      </trkpt>
      <trkpt lat="45.84566" lon="4.27376">
        <ele>649.57763671875</ele>
        <time>2020-11-13T17:21:17.939Z</time>
      </trkpt>
      <trkpt lat="45.8453" lon="4.2738">
        <ele>646.11987304688</ele>
        <time>2020-11-13T17:21:21.079Z</time>
      </trkpt>
      <trkpt lat="45.845" lon="4.27383">
        <ele>644.39215087891</ele>
        <time>2020-11-13T17:21:24.223Z</time>
      </trkpt>
      <trkpt lat="45.84482" lon="4.27382">
        <ele>643.16552734375</ele>
        <time>2020-11-13T17:21:27.370Z</time>
      </trkpt>
      <trkpt lat="45.84459" lon="4.27376">
        <ele>643.2744140625</ele>
        <time>2020-11-13T17:21:30.521Z</time>
      </trkpt>
      <trkpt lat="45.84434" lon="4.27366">
        <ele>645.01416015625</ele>
        <time>2020-11-13T17:21:33.676Z</time>
      </trkpt>
      <trkpt lat="45.84413" lon="4.27352">
        <ele>646.49755859375</ele>
        <time>2020-11-13T17:21:36.835Z</time>
      </trkpt>
      <trkpt lat="45.84392" lon="4.27332">
        <ele>648.18927001953</ele>
        <time>2020-11-13T17:21:39.998Z</time>
      </trkpt>
      <trkpt lat="45.84373" lon="4.2731">
        <ele>647.29565429688</ele>
        <time>2020-11-13T17:21:43.165Z</time>
      </trkpt>
      <trkpt lat="45.84355" lon="4.2728">
        <ele>646.64776611328</ele>
        <time>2020-11-13T17:21:46.336Z</time>
      </trkpt>
      <trkpt lat="45.84339" lon="4.27238">
        <ele>643.18786621094</ele>
        <time>2020-11-13T17:21:49.513Z</time>
      </trkpt>
      <trkpt lat="45.84331" lon="4.27211">
        <ele>641.41741943359</ele>
        <time>2020-11-13T17:21:52.693Z</time>
      </trkpt>
      <trkpt lat="45.84327" lon="4.27189">
        <ele>640.22247314453</ele>
        <time>2020-11-13T17:21:55.875Z</time>
      </trkpt>
      <trkpt lat="45.84323" lon="4.27155">
        <ele>637.91882324219</ele>
        <time>2020-11-13T17:21:59.061Z</time>
      </trkpt>
      <trkpt lat="45.84323" lon="4.27122">
        <ele>636.14086914062</ele>
        <time>2020-11-13T17:22:02.251Z</time>
      </trkpt>
      <trkpt lat="45.84326" lon="4.27077">
        <ele>633.33337402344</ele>
        <time>2020-11-13T17:22:05.446Z</time>
      </trkpt>
      <trkpt lat="45.84354" lon="4.2689">
        <ele>620.85064697266</ele>
        <time>2020-11-13T17:22:08.662Z</time>
      </trkpt>
      <trkpt lat="45.8438" lon="4.26682">
        <ele>623.65606689453</ele>
        <time>2020-11-13T17:22:11.902Z</time>
      </trkpt>
      <trkpt lat="45.84398" lon="4.26549">
        <ele>614.30267333984</ele>
        <time>2020-11-13T17:22:15.157Z</time>
      </trkpt>
      <trkpt lat="45.84455" lon="4.26167">
        <ele>582.21148681641</ele>
        <time>2020-11-13T17:22:18.456Z</time>
      </trkpt>
      <trkpt lat="45.84474" lon="4.2602">
        <ele>580.29266357422</ele>
        <time>2020-11-13T17:22:21.772Z</time>
      </trkpt>
      <trkpt lat="45.84477" lon="4.25947">
        <ele>576.90277099609</ele>
        <time>2020-11-13T17:22:25.096Z</time>
      </trkpt>
      <trkpt lat="45.84474" lon="4.25896">
        <ele>574.61126708984</ele>
        <time>2020-11-13T17:22:28.426Z</time>
      </trkpt>
      <trkpt lat="45.8447" lon="4.25871">
        <ele>573.88391113281</ele>
        <time>2020-11-13T17:22:31.758Z</time>
      </trkpt>
      <trkpt lat="45.84464" lon="4.25846">
        <ele>572.72088623047</ele>
        <time>2020-11-13T17:22:35.093Z</time>
      </trkpt>
      <trkpt lat="45.84448" lon="4.25794">
        <ele>570.22534179688</ele>
        <time>2020-11-13T17:22:38.435Z</time>
      </trkpt>
      <trkpt lat="45.84326" lon="4.25473">
        <ele>547.12194824219</ele>
        <time>2020-11-13T17:22:41.818Z</time>
      </trkpt>
      <trkpt lat="45.8428" lon="4.25348">
        <ele>541.31304931641</ele>
        <time>2020-11-13T17:22:45.216Z</time>
      </trkpt>
      <trkpt lat="45.84242" lon="4.25227">
        <ele>531.70428466797</ele>
        <time>2020-11-13T17:22:48.629Z</time>
      </trkpt>
      <trkpt lat="45.84226" lon="4.2517">
        <ele>525.93145751953</ele>
        <time>2020-11-13T17:22:52.049Z</time>
      </trkpt>
      <trkpt lat="45.8422" lon="4.25132">
        <ele>521.67279052734</ele>
        <time>2020-11-13T17:22:55.473Z</time>
      </trkpt>
      <trkpt lat="45.84218" lon="4.25101">
        <ele>520.32000732422</ele>
        <time>2020-11-13T17:22:58.901Z</time>
      </trkpt>
      <trkpt lat="45.84219" lon="4.25042">
        <ele>522.01171875</ele>
        <time>2020-11-13T17:23:02.336Z</time>
      </trkpt>
      <trkpt lat="45.84223" lon="4.25011">
        <ele>521.80145263672</ele>
        <time>2020-11-13T17:23:05.774Z</time>
      </trkpt>
      <trkpt lat="45.84229" lon="4.24986">
        <ele>522.28137207031</ele>
        <time>2020-11-13T17:23:09.215Z</time>
      </trkpt>
      <trkpt lat="45.84261" lon="4.24877">
        <ele>516.97424316406</ele>
        <time>2020-11-13T17:23:12.669Z</time>
      </trkpt>
      <trkpt lat="45.84278" lon="4.24792">
        <ele>508.48403930664</ele>
        <time>2020-11-13T17:23:16.133Z</time>
      </trkpt>
      <trkpt lat="45.84284" lon="4.24745">
        <ele>504.59893798828</ele>
        <time>2020-11-13T17:23:19.603Z</time>
      </trkpt>
      <trkpt lat="45.84285" lon="4.24717">
        <ele>503.5071105957</ele>
        <time>2020-11-13T17:23:23.076Z</time>
      </trkpt>
      <trkpt lat="45.84284" lon="4.24649">
        <ele>502.14859008789</ele>
        <time>2020-11-13T17:23:26.556Z</time>
      </trkpt>
      <trkpt lat="45.84272" lon="4.24438">
        <ele>490.10842895508</ele>
        <time>2020-11-13T17:23:30.060Z</time>
      </trkpt>
      <trkpt lat="45.84262" lon="4.24364">
        <ele>484.51586914062</ele>
        <time>2020-11-13T17:23:33.572Z</time>
      </trkpt>
      <trkpt lat="45.84249" lon="4.24313">
        <ele>477.41381835938</ele>
        <time>2020-11-13T17:23:37.090Z</time>
      </trkpt>
      <trkpt lat="45.84238" lon="4.24285">
        <ele>475.76879882812</ele>
        <time>2020-11-13T17:23:40.612Z</time>
      </trkpt>
      <trkpt lat="45.84225" lon="4.24259">
        <ele>475.69735717773</ele>
        <time>2020-11-13T17:23:44.138Z</time>
      </trkpt>
      <trkpt lat="45.84158" lon="4.24158">
        <ele>471.30648803711</ele>
        <time>2020-11-13T17:23:47.679Z</time>
      </trkpt>
      <trkpt lat="45.84137" lon="4.2412">
        <ele>465.74786376953</ele>
        <time>2020-11-13T17:23:51.226Z</time>
      </trkpt>
      <trkpt lat="45.84121" lon="4.24082">
        <ele>465.63809204102</ele>
        <time>2020-11-13T17:23:54.778Z</time>
      </trkpt>
      <trkpt lat="45.84104" lon="4.24014">
        <ele>464.11456298828</ele>
        <time>2020-11-13T17:23:58.338Z</time>
      </trkpt>
      <trkpt lat="45.84099" lon="4.23987">
        <ele>464.19500732422</ele>
        <time>2020-11-13T17:24:01.901Z</time>
      </trkpt>
      <trkpt lat="45.84099" lon="4.23958">
        <ele>464.54293823242</ele>
        <time>2020-11-13T17:24:05.467Z</time>
      </trkpt>
      <trkpt lat="45.84101" lon="4.23901">
        <ele>460.19683837891</ele>
        <time>2020-11-13T17:24:09.039Z</time>
      </trkpt>
      <trkpt lat="45.84112" lon="4.23843">
        <ele>454.87097167969</ele>
        <time>2020-11-13T17:24:12.618Z</time>
      </trkpt>
      <trkpt lat="45.84133" lon="4.23742">
        <ele>456.39239501953</ele>
        <time>2020-11-13T17:24:16.209Z</time>
      </trkpt>
      <trkpt lat="45.84141" lon="4.23674">
        <ele>456.28009033203</ele>
        <time>2020-11-13T17:24:19.808Z</time>
      </trkpt>
      <trkpt lat="45.84143" lon="4.23637">
        <ele>454.48037719727</ele>
        <time>2020-11-13T17:24:23.411Z</time>
      </trkpt>
      <trkpt lat="45.84143" lon="4.23607">
        <ele>452.65203857422</ele>
        <time>2020-11-13T17:24:27.017Z</time>
      </trkpt>
      <trkpt lat="45.8414" lon="4.23535">
        <ele>448.65670776367</ele>
        <time>2020-11-13T17:24:30.631Z</time>
      </trkpt>
      <trkpt lat="45.84135" lon="4.23493">
        <ele>449.90325927734</ele>
        <time>2020-11-13T17:24:34.250Z</time>
      </trkpt>
      <trkpt lat="45.84128" lon="4.23458">
        <ele>451.24703979492</ele>
        <time>2020-11-13T17:24:37.873Z</time>
      </trkpt>
      <trkpt lat="45.8411" lon="4.2339">
        <ele>446.55450439453</ele>
        <time>2020-11-13T17:24:41.504Z</time>
      </trkpt>
      <trkpt lat="45.84101" lon="4.23363">
        <ele>444.71881103516</ele>
        <time>2020-11-13T17:24:45.139Z</time>
      </trkpt>
      <trkpt lat="45.84069" lon="4.23282">
        <ele>434.70626831055</ele>
        <time>2020-11-13T17:24:48.784Z</time>
      </trkpt>
      <trkpt lat="45.84053" lon="4.23233">
        <ele>433.01312255859</ele>
        <time>2020-11-13T17:24:52.435Z</time>
      </trkpt>
      <trkpt lat="45.84049" lon="4.23214">
        <ele>434.53686523438</ele>
        <time>2020-11-13T17:24:56.088Z</time>
      </trkpt>
      <trkpt lat="45.84042" lon="4.23167">
        <ele>435.94790649414</ele>
        <time>2020-11-13T17:24:59.747Z</time>
      </trkpt>
      <trkpt lat="45.84032" lon="4.23013">
        <ele>438.08544921875</ele>
        <time>2020-11-13T17:25:03.423Z</time>
      </trkpt>
      <trkpt lat="45.84028" lon="4.22892">
        <ele>431.5798034668</ele>
        <time>2020-11-13T17:25:07.112Z</time>
      </trkpt>
      <trkpt lat="45.8403" lon="4.22851">
        <ele>426.98974609375</ele>
        <time>2020-11-13T17:25:10.806Z</time>
      </trkpt>
      <trkpt lat="45.84029" lon="4.22785">
        <ele>421.48266601562</ele>
        <time>2020-11-13T17:25:14.507Z</time>
      </trkpt>
      <trkpt lat="45.84026" lon="4.22749">
        <ele>419.29360961914</ele>
        <time>2020-11-13T17:25:18.212Z</time>
      </trkpt>
      <trkpt lat="45.84019" lon="4.22708">
        <ele>421.98114013672</ele>
        <time>2020-11-13T17:25:21.922Z</time>
      </trkpt>
      <trkpt lat="45.84004" lon="4.22659">
        <ele>421.41549682617</ele>
        <time>2020-11-13T17:25:25.638Z</time>
      </trkpt>
      <trkpt lat="45.83983" lon="4.22609">
        <ele>420.99746704102</ele>
        <time>2020-11-13T17:25:29.361Z</time>
      </trkpt>
      <trkpt lat="45.83962" lon="4.22572">
        <ele>421.9075012207</ele>
        <time>2020-11-13T17:25:33.089Z</time>
      </trkpt>
      <trkpt lat="45.83939" lon="4.22537">
        <ele>422.80737304688</ele>
        <time>2020-11-13T17:25:36.822Z</time>
      </trkpt>
      <trkpt lat="45.83917" lon="4.2251">
        <ele>422.28533935547</ele>
        <time>2020-11-13T17:25:40.560Z</time>
      </trkpt>
      <trkpt lat="45.83889" lon="4.22483">
        <ele>420.4853515625</ele>
        <time>2020-11-13T17:25:44.303Z</time>
      </trkpt>
      <trkpt lat="45.83862" lon="4.22461">
        <ele>417.94177246094</ele>
        <time>2020-11-13T17:25:48.051Z</time>
      </trkpt>
      <trkpt lat="45.83777" lon="4.22397">
        <ele>414.05688476562</ele>
        <time>2020-11-13T17:25:51.815Z</time>
      </trkpt>
      <trkpt lat="45.83727" lon="4.22354">
        <ele>414.42880249023</ele>
        <time>2020-11-13T17:25:55.588Z</time>
      </trkpt>
      <trkpt lat="45.83647" lon="4.22275">
        <ele>413.71197509766</ele>
        <time>2020-11-13T17:25:59.377Z</time>
      </trkpt>
      <trkpt lat="45.83581" lon="4.22212">
        <ele>415.39193725586</ele>
        <time>2020-11-13T17:26:03.178Z</time>
      </trkpt>
      <trkpt lat="45.83561" lon="4.22194">
        <ele>415.60028076172</ele>
        <time>2020-11-13T17:26:06.983Z</time>
      </trkpt>
      <trkpt lat="45.83528" lon="4.22171">
        <ele>416.27822875977</ele>
        <time>2020-11-13T17:26:10.794Z</time>
      </trkpt>
      <trkpt lat="45.83506" lon="4.22161">
        <ele>416.06228637695</ele>
        <time>2020-11-13T17:26:14.609Z</time>
      </trkpt>
      <trkpt lat="45.83473" lon="4.22149">
        <ele>415.09045410156</ele>
        <time>2020-11-13T17:26:18.429Z</time>
      </trkpt>
      <trkpt lat="45.83446" lon="4.22137">
        <ele>411.29727172852</ele>
        <time>2020-11-13T17:26:22.254Z</time>
      </trkpt>
      <trkpt lat="45.8343" lon="4.22128">
        <ele>409.40158081055</ele>
        <time>2020-11-13T17:26:26.081Z</time>
      </trkpt>
      <trkpt lat="45.83408" lon="4.22112">
        <ele>407.57632446289</ele>
        <time>2020-11-13T17:26:29.912Z</time>
      </trkpt>
      <trkpt lat="45.8339" lon="4.22094">
        <ele>405.63265991211</ele>
        <time>2020-11-13T17:26:33.747Z</time>
      </trkpt>
      <trkpt lat="45.83373" lon="4.22074">
        <ele>404.38412475586</ele>
        <time>2020-11-13T17:26:37.585Z</time>
      </trkpt>
      <trkpt lat="45.83293" lon="4.2197">
        <ele>401.18112182617</ele>
        <time>2020-11-13T17:26:41.441Z</time>
      </trkpt>
      <trkpt lat="45.83232" lon="4.2189">
        <ele>399.72970581055</ele>
        <time>2020-11-13T17:26:45.310Z</time>
      </trkpt>
      <trkpt lat="45.83168" lon="4.21811">
        <ele>400.07473754883</ele>
        <time>2020-11-13T17:26:49.193Z</time>
      </trkpt>
      <trkpt lat="45.83087" lon="4.21728">
        <ele>399.27087402344</ele>
        <time>2020-11-13T17:26:53.091Z</time>
      </trkpt>
      <trkpt lat="45.8297" lon="4.21607">
        <ele>390.33419799805</ele>
        <time>2020-11-13T17:26:57.013Z</time>
      </trkpt>
      <trkpt lat="45.82911" lon="4.21549">
        <ele>389.49432373047</ele>
        <time>2020-11-13T17:27:00.946Z</time>
      </trkpt>
      <trkpt lat="45.82871" lon="4.21518">
        <ele>388.77072143555</ele>
        <time>2020-11-13T17:27:04.886Z</time>
      </trkpt>
      <trkpt lat="45.82699" lon="4.21408">
        <ele>387.86340332031</ele>
        <time>2020-11-13T17:27:08.856Z</time>
      </trkpt>
      <trkpt lat="45.82679" lon="4.21395">
        <ele>388.21133422852</ele>
        <time>2020-11-13T17:27:12.830Z</time>
      </trkpt>
      <trkpt lat="45.82649" lon="4.21378">
        <ele>388.20126342773</ele>
        <time>2020-11-13T17:27:16.809Z</time>
      </trkpt>
      <trkpt lat="45.82615" lon="4.21362">
        <ele>388.55227661133</ele>
        <time>2020-11-13T17:27:20.794Z</time>
      </trkpt>
      <trkpt lat="45.82532" lon="4.21332">
        <ele>389.15328979492</ele>
        <time>2020-11-13T17:27:24.793Z</time>
      </trkpt>
      <trkpt lat="45.82489" lon="4.21312">
        <ele>389.19454956055</ele>
        <time>2020-11-13T17:27:28.799Z</time>
      </trkpt>
      <trkpt lat="45.8246" lon="4.21295">
        <ele>389.00311279297</ele>
        <time>2020-11-13T17:27:32.810Z</time>
      </trkpt>
      <trkpt lat="45.82334" lon="4.21214">
        <ele>381.05541992188</ele>
        <time>2020-11-13T17:27:36.843Z</time>
      </trkpt>
      <trkpt lat="45.82269" lon="4.21171">
        <ele>378.2458190918</ele>
        <time>2020-11-13T17:27:40.887Z</time>
      </trkpt>
      <trkpt lat="45.82227" lon="4.21139">
        <ele>376.51809692383</ele>
        <time>2020-11-13T17:27:44.939Z</time>
      </trkpt>
      <trkpt lat="45.82185" lon="4.21104">
        <ele>372.59362792969</ele>
        <time>2020-11-13T17:27:48.999Z</time>
      </trkpt>
      <trkpt lat="45.82167" lon="4.21088">
        <ele>370.5539855957</ele>
        <time>2020-11-13T17:27:53.062Z</time>
      </trkpt>
      <trkpt lat="45.82117" lon="4.21046">
        <ele>367.3782043457</ele>
        <time>2020-11-13T17:27:57.134Z</time>
      </trkpt>
      <trkpt lat="45.82067" lon="4.21001">
        <ele>367.40814208984</ele>
        <time>2020-11-13T17:28:01.216Z</time>
      </trkpt>
      <trkpt lat="45.82048" lon="4.20981">
        <ele>367.44412231445</ele>
        <time>2020-11-13T17:28:05.302Z</time>
      </trkpt>
      <trkpt lat="45.82026" lon="4.20956">
        <ele>367.55209350586</ele>
        <time>2020-11-13T17:28:09.392Z</time>
      </trkpt>
      <trkpt lat="45.81986" lon="4.20906">
        <ele>367.91204833984</ele>
        <time>2020-11-13T17:28:13.491Z</time>
      </trkpt>
      <trkpt lat="45.81927" lon="4.20826">
        <ele>367.80862426758</ele>
        <time>2020-11-13T17:28:17.603Z</time>
      </trkpt>
      <trkpt lat="45.81884" lon="4.2076">
        <ele>366.44091796875</ele>
        <time>2020-11-13T17:28:21.725Z</time>
      </trkpt>
      <trkpt lat="45.81873" lon="4.20737">
        <ele>365.37310791016</ele>
        <time>2020-11-13T17:28:25.850Z</time>
      </trkpt>
      <trkpt lat="45.81864" lon="4.20707">
        <ele>364.36526489258</ele>
        <time>2020-11-13T17:28:29.979Z</time>
      </trkpt>
      <trkpt lat="45.8186" lon="4.20687">
        <ele>363.73999023438</ele>
        <time>2020-11-13T17:28:34.110Z</time>
      </trkpt>
      <trkpt lat="45.8186" lon="4.20652">
        <ele>363.07321166992</ele>
        <time>2020-11-13T17:28:38.245Z</time>
      </trkpt>
      <trkpt lat="45.8187" lon="4.20526">
        <ele>359.59649658203</ele>
        <time>2020-11-13T17:28:42.394Z</time>
      </trkpt>
      <trkpt lat="45.81872" lon="4.20487">
        <ele>358.80462646484</ele>
        <time>2020-11-13T17:28:46.547Z</time>
      </trkpt>
      <trkpt lat="45.81869" lon="4.20446">
        <ele>357.60482788086</ele>
        <time>2020-11-13T17:28:50.705Z</time>
      </trkpt>
      <trkpt lat="45.81863" lon="4.20421">
        <ele>356.57299804688</ele>
        <time>2020-11-13T17:28:54.866Z</time>
      </trkpt>
      <trkpt lat="45.81853" lon="4.20393">
        <ele>354.78805541992</ele>
        <time>2020-11-13T17:28:59.031Z</time>
      </trkpt>
      <trkpt lat="45.81841" lon="4.20372">
        <ele>353.20431518555</ele>
        <time>2020-11-13T17:29:03.199Z</time>
      </trkpt>
      <trkpt lat="45.81807" lon="4.20306">
        <ele>351.07958984375</ele>
        <time>2020-11-13T17:29:07.376Z</time>
      </trkpt>
      <trkpt lat="45.81796" lon="4.20276">
        <ele>350.63519287109</ele>
        <time>2020-11-13T17:29:11.557Z</time>
      </trkpt>
      <trkpt lat="45.81786" lon="4.20231">
        <ele>349.06256103516</ele>
        <time>2020-11-13T17:29:15.743Z</time>
      </trkpt>
      <trkpt lat="45.81775" lon="4.20173">
        <ele>347.10726928711</ele>
        <time>2020-11-13T17:29:19.936Z</time>
      </trkpt>
      <trkpt lat="45.8174" lon="4.19984">
        <ele>341.86410522461</ele>
        <time>2020-11-13T17:29:24.150Z</time>
      </trkpt>
      <trkpt lat="45.8174" lon="4.19943">
        <ele>341.19213867188</ele>
        <time>2020-11-13T17:29:28.369Z</time>
      </trkpt>
      <trkpt lat="45.81743" lon="4.19907">
        <ele>340.79620361328</ele>
        <time>2020-11-13T17:29:32.592Z</time>
      </trkpt>
      <trkpt lat="45.81763" lon="4.19722">
        <ele>339.30853271484</ele>
        <time>2020-11-13T17:29:36.836Z</time>
      </trkpt>
      <trkpt lat="45.81774" lon="4.1961">
        <ele>338.60473632812</ele>
        <time>2020-11-13T17:29:41.093Z</time>
      </trkpt>
      <trkpt lat="45.81775" lon="4.19587">
        <ele>338.34078979492</ele>
        <time>2020-11-13T17:29:45.352Z</time>
      </trkpt>
      <trkpt lat="45.8178" lon="4.19575">
        <ele>338.39190673828</ele>
        <time>2020-11-13T17:29:49.613Z</time>
      </trkpt>
      <trkpt lat="45.81784" lon="4.19567">
        <ele>338.48788452148</ele>
        <time>2020-11-13T17:29:53.875Z</time>
      </trkpt>
      <trkpt lat="45.81787" lon="4.19558">
        <ele>338.55987548828</ele>
        <time>2020-11-13T17:29:58.138Z</time>
      </trkpt>
      <trkpt lat="45.81786" lon="4.19548">
        <ele>338.5358581543</ele>
        <time>2020-11-13T17:30:02.402Z</time>
      </trkpt>
      <trkpt lat="45.81784" lon="4.19545">
        <ele>338.48788452148</ele>
        <time>2020-11-13T17:30:06.667Z</time>
      </trkpt>
      <trkpt lat="45.81786" lon="4.19515">
        <ele>338.5358581543</ele>
        <time>2020-11-13T17:30:10.935Z</time>
      </trkpt>
      <trkpt lat="45.81821" lon="4.19342">
        <ele>337.38958740234</ele>
        <time>2020-11-13T17:30:15.223Z</time>
      </trkpt>
      <trkpt lat="45.81846" lon="4.19228">
        <ele>334.51217651367</ele>
        <time>2020-11-13T17:30:19.525Z</time>
      </trkpt>
      <trkpt lat="45.81855" lon="4.19189">
        <ele>334.19305419922</ele>
        <time>2020-11-13T17:30:23.831Z</time>
      </trkpt>
      <trkpt lat="45.81865" lon="4.19155">
        <ele>333.43154907227</ele>
        <time>2020-11-13T17:30:28.141Z</time>
      </trkpt>
      <trkpt lat="45.81874" lon="4.19119">
        <ele>333.64752197266</ele>
        <time>2020-11-13T17:30:32.456Z</time>
      </trkpt>
      <trkpt lat="45.81878" lon="4.19083">
        <ele>334.0856628418</ele>
        <time>2020-11-13T17:30:36.775Z</time>
      </trkpt>
      <trkpt lat="45.81876" lon="4.19046">
        <ele>334.48159790039</ele>
        <time>2020-11-13T17:30:41.098Z</time>
      </trkpt>
      <trkpt lat="45.8186" lon="4.18955">
        <ele>333.77786254883</ele>
        <time>2020-11-13T17:30:45.431Z</time>
      </trkpt>
      <trkpt lat="45.81839" lon="4.18844">
        <ele>333.40383911133</ele>
        <time>2020-11-13T17:30:49.777Z</time>
      </trkpt>
      <trkpt lat="45.81816" lon="4.18711">
        <ele>333</ele>
        <time>2020-11-13T17:30:54.138Z</time>
      </trkpt>
      <trkpt lat="45.8178" lon="4.1852">
        <ele>331.39190673828</ele>
        <time>2020-11-13T17:30:58.522Z</time>
      </trkpt>
      <trkpt lat="45.81777" lon="4.18506">
        <ele>331.31991577148</ele>
        <time>2020-11-13T17:31:02.907Z</time>
      </trkpt>
      <trkpt lat="45.81817" lon="4.18457">
        <ele>330.154296875</ele>
        <time>2020-11-13T17:31:07.301Z</time>
      </trkpt>
      <trkpt lat="45.81854" lon="4.18412">
        <ele>329.40533447266</ele>
        <time>2020-11-13T17:31:11.702Z</time>
      </trkpt>
      <trkpt lat="45.81905" lon="4.1835">
        <ele>330.05899047852</ele>
        <time>2020-11-13T17:31:16.114Z</time>
      </trkpt>
      <trkpt lat="45.81992" lon="4.18248">
        <ele>328.60003662109</ele>
        <time>2020-11-13T17:31:20.544Z</time>
      </trkpt>
      <trkpt lat="45.8198" lon="4.18229">
        <ele>328.68402099609</ele>
        <time>2020-11-13T17:31:24.977Z</time>
      </trkpt>
      <trkpt lat="45.81987" lon="4.18218">
        <ele>328.89996337891</ele>
        <time>2020-11-13T17:31:29.412Z</time>
      </trkpt>
      <trkpt lat="45.81996" lon="4.18207">
        <ele>329</ele>
        <time>2020-11-13T17:31:33.849Z</time>
      </trkpt>
      <trkpt lat="45.82004" lon="4.18188">
        <ele>329</ele>
        <time>2020-11-13T17:31:38.288Z</time>
      </trkpt>
      <trkpt lat="45.82012" lon="4.18167">
        <ele>329</ele>
        <time>2020-11-13T17:31:42.730Z</time>
      </trkpt>
      <trkpt lat="45.82049" lon="4.18065">
        <ele>330.40295410156</ele>
        <time>2020-11-13T17:31:47.185Z</time>
      </trkpt>
      <trkpt lat="45.82081" lon="4.17971">
        <ele>328.94818115234</ele>
        <time>2020-11-13T17:31:51.651Z</time>
      </trkpt>
      <trkpt lat="45.82109" lon="4.17873">
        <ele>329.42681884766</ele>
        <time>2020-11-13T17:31:56.129Z</time>
      </trkpt>
      <trkpt lat="45.82124" lon="4.17799">
        <ele>329.64651489258</ele>
        <time>2020-11-13T17:32:00.616Z</time>
      </trkpt>
      <trkpt lat="45.82132" lon="4.1777">
        <ele>329.75772094727</ele>
        <time>2020-11-13T17:32:05.106Z</time>
      </trkpt>
      <trkpt lat="45.82171" lon="4.17624">
        <ele>331.38717651367</ele>
        <time>2020-11-13T17:32:09.614Z</time>
      </trkpt>
      <trkpt lat="45.82178" lon="4.176">
        <ele>331.3359375</ele>
        <time>2020-11-13T17:32:14.125Z</time>
      </trkpt>
      <trkpt lat="45.82187" lon="4.17557">
        <ele>330.46752929688</ele>
        <time>2020-11-13T17:32:18.641Z</time>
      </trkpt>
      <trkpt lat="45.822" lon="4.17486">
        <ele>328.73510742188</ele>
        <time>2020-11-13T17:32:23.165Z</time>
      </trkpt>
      <trkpt lat="45.82212" lon="4.17419">
        <ele>328.75817871094</ele>
        <time>2020-11-13T17:32:27.697Z</time>
      </trkpt>
      <trkpt lat="45.82221" lon="4.1735">
        <ele>328.82650756836</ele>
        <time>2020-11-13T17:32:32.236Z</time>
      </trkpt>
      <trkpt lat="45.82226" lon="4.17323">
        <ele>328.54135131836</ele>
        <time>2020-11-13T17:32:36.779Z</time>
      </trkpt>
      <trkpt lat="45.82237" lon="4.17284">
        <ele>327.96783447266</ele>
        <time>2020-11-13T17:32:41.326Z</time>
      </trkpt>
      <trkpt lat="45.82256" lon="4.17232">
        <ele>325.94161987305</ele>
        <time>2020-11-13T17:32:45.880Z</time>
      </trkpt>
      <trkpt lat="45.82267" lon="4.17212">
        <ele>326.07794189453</ele>
        <time>2020-11-13T17:32:50.437Z</time>
      </trkpt>
      <trkpt lat="45.82279" lon="4.17184">
        <ele>325.98678588867</ele>
        <time>2020-11-13T17:32:54.997Z</time>
      </trkpt>
      <trkpt lat="45.82305" lon="4.17151">
        <ele>325.94009399414</ele>
        <time>2020-11-13T17:32:59.563Z</time>
      </trkpt>
      <trkpt lat="45.82332" lon="4.17123">
        <ele>324.78756713867</ele>
        <time>2020-11-13T17:33:04.134Z</time>
      </trkpt>
      <trkpt lat="45.82367" lon="4.17096">
        <ele>322.9758605957</ele>
        <time>2020-11-13T17:33:08.712Z</time>
      </trkpt>
      <trkpt lat="45.82385" lon="4.17077">
        <ele>322.22494506836</ele>
        <time>2020-11-13T17:33:13.293Z</time>
      </trkpt>
      <trkpt lat="45.82393" lon="4.17062">
        <ele>321.87048339844</ele>
        <time>2020-11-13T17:33:17.876Z</time>
      </trkpt>
      <trkpt lat="45.82395" lon="4.17053">
        <ele>321.67849731445</ele>
        <time>2020-11-13T17:33:22.460Z</time>
      </trkpt>
      <trkpt lat="45.82396" lon="4.17038">
        <ele>321.33056640625</ele>
        <time>2020-11-13T17:33:27.046Z</time>
      </trkpt>
      <trkpt lat="45.82395" lon="4.17002">
        <ele>320.52941894531</ele>
        <time>2020-11-13T17:33:31.636Z</time>
      </trkpt>
      <trkpt lat="45.82388" lon="4.16944">
        <ele>319.00338745117</ele>
        <time>2020-11-13T17:33:36.233Z</time>
      </trkpt>
      <trkpt lat="45.82388" lon="4.16925">
        <ele>318.77542114258</ele>
        <time>2020-11-13T17:33:40.832Z</time>
      </trkpt>
      <trkpt lat="45.82391" lon="4.1689">
        <ele>318.37295532227</ele>
        <time>2020-11-13T17:33:45.435Z</time>
      </trkpt>
      <trkpt lat="45.82413" lon="4.1682">
        <ele>318.37841796875</ele>
        <time>2020-11-13T17:33:50.046Z</time>
      </trkpt>
      <trkpt lat="45.8243" lon="4.16777">
        <ele>318.49349975586</ele>
        <time>2020-11-13T17:33:54.663Z</time>
      </trkpt>
      <trkpt lat="45.82433" lon="4.16764">
        <ele>318.75744628906</ele>
        <time>2020-11-13T17:33:59.281Z</time>
      </trkpt>
      <trkpt lat="45.82439" lon="4.16742">
        <ele>319.20526123047</ele>
        <time>2020-11-13T17:34:03.902Z</time>
      </trkpt>
      <trkpt lat="45.82444" lon="4.16703">
        <ele>319.32522583008</ele>
        <time>2020-11-13T17:34:08.528Z</time>
      </trkpt>
      <trkpt lat="45.82452" lon="4.16658">
        <ele>319.56268310547</ele>
        <time>2020-11-13T17:34:13.159Z</time>
      </trkpt>
      <trkpt lat="45.8246" lon="4.1663">
        <ele>319.22674560547</ele>
        <time>2020-11-13T17:34:17.793Z</time>
      </trkpt>
      <trkpt lat="45.8247" lon="4.166">
        <ele>318.97457885742</ele>
        <time>2020-11-13T17:34:22.431Z</time>
      </trkpt>
      <trkpt lat="45.82472" lon="4.16581">
        <ele>318.99856567383</ele>
        <time>2020-11-13T17:34:27.071Z</time>
      </trkpt>
      <trkpt lat="45.8247" lon="4.16568">
        <ele>318.97457885742</ele>
        <time>2020-11-13T17:34:31.712Z</time>
      </trkpt>
      <trkpt lat="45.82459" lon="4.16532">
        <ele>318.84259033203</ele>
        <time>2020-11-13T17:34:36.358Z</time>
      </trkpt>
      <trkpt lat="45.82452" lon="4.1651">
        <ele>318.75860595703</ele>
        <time>2020-11-13T17:34:41.007Z</time>
      </trkpt>
      <trkpt lat="45.8245" lon="4.16494">
        <ele>318.87420654297</ele>
        <time>2020-11-13T17:34:45.657Z</time>
      </trkpt>
      <trkpt lat="45.8245" lon="4.16482">
        <ele>319.01818847656</ele>
        <time>2020-11-13T17:34:50.309Z</time>
      </trkpt>
      <trkpt lat="45.82449" lon="4.16458">
        <ele>319.28213500977</ele>
        <time>2020-11-13T17:34:54.963Z</time>
      </trkpt>
      <trkpt lat="45.82446" lon="4.16445">
        <ele>319.36611938477</ele>
        <time>2020-11-13T17:34:59.619Z</time>
      </trkpt>
      <trkpt lat="45.82429" lon="4.16405">
        <ele>319.43811035156</ele>
        <time>2020-11-13T17:35:04.280Z</time>
      </trkpt>
      <trkpt lat="45.82417" lon="4.16357">
        <ele>319.96731567383</ele>
        <time>2020-11-13T17:35:08.947Z</time>
      </trkpt>
      <trkpt lat="45.82415" lon="4.1633">
        <ele>319.57138061523</ele>
        <time>2020-11-13T17:35:13.617Z</time>
      </trkpt>
      <trkpt lat="45.82419" lon="4.16279">
        <ele>319.10345458984</ele>
        <time>2020-11-13T17:35:18.293Z</time>
      </trkpt>
      <trkpt lat="45.82425" lon="4.16239">
        <ele>318.83950805664</ele>
        <time>2020-11-13T17:35:22.973Z</time>
      </trkpt>
      <trkpt lat="45.82434" lon="4.16208">
        <ele>318.79150390625</ele>
        <time>2020-11-13T17:35:27.657Z</time>
      </trkpt>
      <trkpt lat="45.82451" lon="4.16171">
        <ele>318.95947265625</ele>
        <time>2020-11-13T17:35:32.346Z</time>
      </trkpt>
      <trkpt lat="45.82483" lon="4.16111">
        <ele>318.73846435547</ele>
        <time>2020-11-13T17:35:37.043Z</time>
      </trkpt>
      <trkpt lat="45.82522" lon="4.16055">
        <ele>316.72943115234</ele>
        <time>2020-11-13T17:35:41.749Z</time>
      </trkpt>
      <trkpt lat="45.82577" lon="4.15989">
        <ele>316.72232055664</ele>
        <time>2020-11-13T17:35:46.467Z</time>
      </trkpt>
      <trkpt lat="45.8259" lon="4.1597">
        <ele>316.89373779297</ele>
        <time>2020-11-13T17:35:51.188Z</time>
      </trkpt>
      <trkpt lat="45.82632" lon="4.15894">
        <ele>316.16351318359</ele>
        <time>2020-11-13T17:35:55.920Z</time>
      </trkpt>
      <trkpt lat="45.82708" lon="4.15756">
        <ele>316.49026489258</ele>
        <time>2020-11-13T17:36:00.671Z</time>
      </trkpt>
      <trkpt lat="45.82729" lon="4.15718">
        <ele>316.91793823242</ele>
        <time>2020-11-13T17:36:05.428Z</time>
      </trkpt>
      <trkpt lat="45.82747" lon="4.15696">
        <ele>316.70199584961</ele>
        <time>2020-11-13T17:36:10.188Z</time>
      </trkpt>
      <trkpt lat="45.82766" lon="4.15686">
        <ele>316.67276000977</ele>
        <time>2020-11-13T17:36:14.952Z</time>
      </trkpt>
      <trkpt lat="45.8279" lon="4.1568">
        <ele>316.52880859375</ele>
        <time>2020-11-13T17:36:19.720Z</time>
      </trkpt>
      <trkpt lat="45.82858" lon="4.15666">
        <ele>317.35733032227</ele>
        <time>2020-11-13T17:36:24.499Z</time>
      </trkpt>
      <trkpt lat="45.82914" lon="4.15649">
        <ele>319.19836425781</ele>
        <time>2020-11-13T17:36:29.287Z</time>
      </trkpt>
      <trkpt lat="45.8299" lon="4.15619">
        <ele>320.48229980469</ele>
        <time>2020-11-13T17:36:34.087Z</time>
      </trkpt>
      <trkpt lat="45.8303" lon="4.15599">
        <ele>323.69079589844</ele>
        <time>2020-11-13T17:36:38.894Z</time>
      </trkpt>
      <trkpt lat="45.83065" lon="4.15574">
        <ele>325.14477539062</ele>
        <time>2020-11-13T17:36:43.707Z</time>
      </trkpt>
      <trkpt lat="45.83081" lon="4.15562">
        <ele>326.728515625</ele>
        <time>2020-11-13T17:36:48.523Z</time>
      </trkpt>
      <trkpt lat="45.83096" lon="4.15561">
        <ele>328.65930175781</ele>
        <time>2020-11-13T17:36:53.342Z</time>
      </trkpt>
      <trkpt lat="45.83117" lon="4.1553">
        <ele>328.57531738281</ele>
        <time>2020-11-13T17:36:58.165Z</time>
      </trkpt>
      <trkpt lat="45.83137" lon="4.15494">
        <ele>327.32754516602</ele>
        <time>2020-11-13T17:37:02.994Z</time>
      </trkpt>
      <trkpt lat="45.83163" lon="4.15441">
        <ele>324.81405639648</ele>
        <time>2020-11-13T17:37:07.830Z</time>
      </trkpt>
      <trkpt lat="45.83186" lon="4.1541">
        <ele>326.82971191406</ele>
        <time>2020-11-13T17:37:12.671Z</time>
      </trkpt>
      <trkpt lat="45.83201" lon="4.15391">
        <ele>325.48626708984</ele>
        <time>2020-11-13T17:37:17.515Z</time>
      </trkpt>
      <trkpt lat="45.83217" lon="4.15369">
        <ele>323.68655395508</ele>
        <time>2020-11-13T17:37:22.363Z</time>
      </trkpt>
      <trkpt lat="45.83234" lon="4.15345">
        <ele>325.38977050781</ele>
        <time>2020-11-13T17:37:27.215Z</time>
      </trkpt>
      <trkpt lat="45.83255" lon="4.15303">
        <ele>328.81872558594</ele>
        <time>2020-11-13T17:37:32.072Z</time>
      </trkpt>
      <trkpt lat="45.83284" lon="4.15209">
        <ele>327.00762939453</ele>
        <time>2020-11-13T17:37:36.941Z</time>
      </trkpt>
      <trkpt lat="45.83305" lon="4.15164">
        <ele>326.15994262695</ele>
        <time>2020-11-13T17:37:41.816Z</time>
      </trkpt>
      <trkpt lat="45.83338" lon="4.15116">
        <ele>328.9377746582</ele>
        <time>2020-11-13T17:37:46.698Z</time>
      </trkpt>
      <trkpt lat="45.83375" lon="4.1506">
        <ele>330.17095947266</ele>
        <time>2020-11-13T17:37:51.589Z</time>
      </trkpt>
      <trkpt lat="45.83391" lon="4.15035">
        <ele>329.03189086914</ele>
        <time>2020-11-13T17:37:56.484Z</time>
      </trkpt>
      <trkpt lat="45.83408" lon="4.14999">
        <ele>328.92306518555</ele>
        <time>2020-11-13T17:38:01.384Z</time>
      </trkpt>
      <trkpt lat="45.83456" lon="4.14879">
        <ele>327.44659423828</ele>
        <time>2020-11-13T17:38:06.299Z</time>
      </trkpt>
      <trkpt lat="45.83483" lon="4.14823">
        <ele>324.84530639648</ele>
        <time>2020-11-13T17:38:11.222Z</time>
      </trkpt>
      <trkpt lat="45.83508" lon="4.1478">
        <ele>323.50714111328</ele>
        <time>2020-11-13T17:38:16.151Z</time>
      </trkpt>
      <trkpt lat="45.83592" lon="4.14666">
        <ele>321.58959960938</ele>
        <time>2020-11-13T17:38:21.099Z</time>
      </trkpt>
      <trkpt lat="45.8363" lon="4.14616">
        <ele>320.9455871582</ele>
        <time>2020-11-13T17:38:26.055Z</time>
      </trkpt>
      <trkpt lat="45.83658" lon="4.14583">
        <ele>320.80828857422</ele>
        <time>2020-11-13T17:38:31.017Z</time>
      </trkpt>
      <trkpt lat="45.837" lon="4.14539">
        <ele>319.43664550781</ele>
        <time>2020-11-13T17:38:35.987Z</time>
      </trkpt>
      <trkpt lat="45.83752" lon="4.14497">
        <ele>320.03204345703</ele>
        <time>2020-11-13T17:38:40.966Z</time>
      </trkpt>
      <trkpt lat="45.83768" lon="4.14502">
        <ele>321.61578369141</ele>
        <time>2020-11-13T17:38:45.948Z</time>
      </trkpt>
      <trkpt lat="45.83785" lon="4.14508">
        <ele>323.33148193359</ele>
        <time>2020-11-13T17:38:50.933Z</time>
      </trkpt>
      <trkpt lat="45.83807" lon="4.14513">
        <ele>324.8205871582</ele>
        <time>2020-11-13T17:38:55.921Z</time>
      </trkpt>
      <trkpt lat="45.83889" lon="4.14527">
        <ele>327.95449829102</ele>
        <time>2020-11-13T17:39:00.923Z</time>
      </trkpt>
      <trkpt lat="45.83914" lon="4.14533">
        <ele>330.36849975586</ele>
        <time>2020-11-13T17:39:05.929Z</time>
      </trkpt>
      <trkpt lat="45.83932" lon="4.14539">
        <ele>332.38415527344</ele>
        <time>2020-11-13T17:39:10.938Z</time>
      </trkpt>
      <trkpt lat="45.83952" lon="4.14517">
        <ele>330.65267944336</ele>
        <time>2020-11-13T17:39:15.951Z</time>
      </trkpt>
      <trkpt lat="45.83966" lon="4.14494">
        <ele>328.68438720703</ele>
        <time>2020-11-13T17:39:20.967Z</time>
      </trkpt>
      <trkpt lat="45.83981" lon="4.14458">
        <ele>325.29208374023</ele>
        <time>2020-11-13T17:39:25.988Z</time>
      </trkpt>
      <trkpt lat="45.83988" lon="4.14434">
        <ele>322.58319091797</ele>
        <time>2020-11-13T17:39:31.012Z</time>
      </trkpt>
      <trkpt lat="45.83993" lon="4.14411">
        <ele>321.2633972168</ele>
        <time>2020-11-13T17:39:36.038Z</time>
      </trkpt>
      <trkpt lat="45.83995" lon="4.14384">
        <ele>319.66766357422</ele>
        <time>2020-11-13T17:39:41.067Z</time>
      </trkpt>
      <trkpt lat="45.83994" lon="4.14349">
        <ele>317.62167358398</ele>
        <time>2020-11-13T17:39:46.100Z</time>
      </trkpt>
      <trkpt lat="45.83986" lon="4.14255">
        <ele>321.68511962891</ele>
        <time>2020-11-13T17:39:51.144Z</time>
      </trkpt>
      <trkpt lat="45.83984" lon="4.14204">
        <ele>327.76422119141</ele>
        <time>2020-11-13T17:39:56.194Z</time>
      </trkpt>
      <trkpt lat="45.83985" lon="4.1417">
        <ele>332.15704345703</ele>
        <time>2020-11-13T17:40:01.248Z</time>
      </trkpt>
      <trkpt lat="45.83989" lon="4.1415">
        <ele>334.94058227539</ele>
        <time>2020-11-13T17:40:06.304Z</time>
      </trkpt>
      <trkpt lat="45.83999" lon="4.14112">
        <ele>340.77917480469</ele>
        <time>2020-11-13T17:40:11.364Z</time>
      </trkpt>
      <trkpt lat="45.84008" lon="4.14093">
        <ele>343.33407592773</ele>
        <time>2020-11-13T17:40:16.427Z</time>
      </trkpt>
      <trkpt lat="45.84032" lon="4.14062">
        <ele>347.42541503906</ele>
        <time>2020-11-13T17:40:21.495Z</time>
      </trkpt>
      <trkpt lat="45.84047" lon="4.14048">
        <ele>349.27310180664</ele>
        <time>2020-11-13T17:40:26.566Z</time>
      </trkpt>
      <trkpt lat="45.84061" lon="4.14037">
        <ele>350.34454345703</ele>
        <time>2020-11-13T17:40:31.640Z</time>
      </trkpt>
      <trkpt lat="45.84095" lon="4.14022">
        <ele>352.44833374023</ele>
        <time>2020-11-13T17:40:36.719Z</time>
      </trkpt>
      <trkpt lat="45.84183" lon="4.1399">
        <ele>353.31698608398</ele>
        <time>2020-11-13T17:40:41.813Z</time>
      </trkpt>
      <trkpt lat="45.84219" lon="4.13977">
        <ele>356.78936767578</ele>
        <time>2020-11-13T17:40:46.913Z</time>
      </trkpt>
      <trkpt lat="45.84287" lon="4.13955">
        <ele>359.29763793945</ele>
        <time>2020-11-13T17:40:52.024Z</time>
      </trkpt>
      <trkpt lat="45.84326" lon="4.13943">
        <ele>362.33319091797</ele>
        <time>2020-11-13T17:40:57.141Z</time>
      </trkpt>
      <trkpt lat="45.84339" lon="4.1394">
        <ele>363.47299194336</ele>
        <time>2020-11-13T17:41:02.260Z</time>
      </trkpt>
      <trkpt lat="45.84361" lon="4.13938">
        <ele>365.03271484375</ele>
        <time>2020-11-13T17:41:07.383Z</time>
      </trkpt>
      <trkpt lat="45.84384" lon="4.13941">
        <ele>366.05255126953</ele>
        <time>2020-11-13T17:41:12.510Z</time>
      </trkpt>
      <trkpt lat="45.84409" lon="4.13955">
        <ele>366.82736206055</ele>
        <time>2020-11-13T17:41:17.641Z</time>
      </trkpt>
      <trkpt lat="45.84447" lon="4.13987">
        <ele>367.09130859375</ele>
        <time>2020-11-13T17:41:22.779Z</time>
      </trkpt>
      <trkpt lat="45.84476" lon="4.14016">
        <ele>366.70080566406</ele>
        <time>2020-11-13T17:41:27.923Z</time>
      </trkpt>
      <trkpt lat="45.84501" lon="4.14037">
        <ele>366.11712646484</ele>
        <time>2020-11-13T17:41:33.071Z</time>
      </trkpt>
      <trkpt lat="45.84519" lon="4.14045">
        <ele>366.50106811523</ele>
        <time>2020-11-13T17:41:38.222Z</time>
      </trkpt>
      <trkpt lat="45.84549" lon="4.14055">
        <ele>367.70086669922</ele>
        <time>2020-11-13T17:41:43.378Z</time>
      </trkpt>
      <trkpt lat="45.84587" lon="4.14065">
        <ele>363.30484008789</ele>
        <time>2020-11-13T17:41:48.540Z</time>
      </trkpt>
      <trkpt lat="45.84606" lon="4.14066">
        <ele>361.6389465332</ele>
        <time>2020-11-13T17:41:53.705Z</time>
      </trkpt>
      <trkpt lat="45.84624" lon="4.14065">
        <ele>360.77508544922</ele>
        <time>2020-11-13T17:41:58.873Z</time>
      </trkpt>
      <trkpt lat="45.84644" lon="4.14057">
        <ele>360.48791503906</ele>
        <time>2020-11-13T17:42:04.045Z</time>
      </trkpt>
      <trkpt lat="45.84658" lon="4.14049">
        <ele>359.02416992188</ele>
        <time>2020-11-13T17:42:09.219Z</time>
      </trkpt>
      <trkpt lat="45.84673" lon="4.14037">
        <ele>359.93774414062</ele>
        <time>2020-11-13T17:42:14.396Z</time>
      </trkpt>
      <trkpt lat="45.84686" lon="4.14023">
        <ele>361.05654907227</ele>
        <time>2020-11-13T17:42:19.575Z</time>
      </trkpt>
      <trkpt lat="45.84711" lon="4.13982">
        <ele>362.22485351562</ele>
        <time>2020-11-13T17:42:24.760Z</time>
      </trkpt>
      <trkpt lat="45.84723" lon="4.13955">
        <ele>364.42578125</ele>
        <time>2020-11-13T17:42:29.949Z</time>
      </trkpt>
      <trkpt lat="45.84761" lon="4.13865">
        <ele>366.4192199707</ele>
        <time>2020-11-13T17:42:35.150Z</time>
      </trkpt>
      <trkpt lat="45.84783" lon="4.13802">
        <ele>367.39175415039</ele>
        <time>2020-11-13T17:42:40.359Z</time>
      </trkpt>
      <trkpt lat="45.84788" lon="4.13781">
        <ele>368.61557006836</ele>
        <time>2020-11-13T17:42:45.570Z</time>
      </trkpt>
      <trkpt lat="45.84792" lon="4.13741">
        <ele>369.6350402832</ele>
        <time>2020-11-13T17:42:50.786Z</time>
      </trkpt>
      <trkpt lat="45.84792" lon="4.13716">
        <ele>370.53491210938</ele>
        <time>2020-11-13T17:42:56.005Z</time>
      </trkpt>
      <trkpt lat="45.84792" lon="4.13636">
        <ele>374.14068603516</ele>
        <time>2020-11-13T17:43:01.232Z</time>
      </trkpt>
      <trkpt lat="45.84795" lon="4.13593">
        <ele>376.23501586914</ele>
        <time>2020-11-13T17:43:06.464Z</time>
      </trkpt>
      <trkpt lat="45.84799" lon="4.13568">
        <ele>377.29083251953</ele>
        <time>2020-11-13T17:43:11.699Z</time>
      </trkpt>
      <trkpt lat="45.84816" lon="4.13494">
        <ele>379.98657226562</ele>
        <time>2020-11-13T17:43:16.943Z</time>
      </trkpt>
      <trkpt lat="45.84822" lon="4.13458">
        <ele>381.35433959961</ele>
        <time>2020-11-13T17:43:22.191Z</time>
      </trkpt>
      <trkpt lat="45.84822" lon="4.13413">
        <ele>383.51400756836</ele>
        <time>2020-11-13T17:43:27.444Z</time>
      </trkpt>
      <trkpt lat="45.84816" lon="4.13367">
        <ele>386.17080688477</ele>
        <time>2020-11-13T17:43:32.702Z</time>
      </trkpt>
      <trkpt lat="45.84842" lon="4.13336">
        <ele>386.28787231445</ele>
        <time>2020-11-13T17:43:37.966Z</time>
      </trkpt>
      <trkpt lat="45.84896" lon="4.13268">
        <ele>389.16818237305</ele>
        <time>2020-11-13T17:43:43.241Z</time>
      </trkpt>
      <trkpt lat="45.84933" lon="4.13219">
        <ele>390.04403686523</ele>
        <time>2020-11-13T17:43:48.524Z</time>
      </trkpt>
      <trkpt lat="45.84948" lon="4.13201">
        <ele>390.33200073242</ele>
        <time>2020-11-13T17:43:53.810Z</time>
      </trkpt>
      <trkpt lat="45.8495" lon="4.13192">
        <ele>390.51840209961</ele>
        <time>2020-11-13T17:43:59.097Z</time>
      </trkpt>
      <trkpt lat="45.84946" lon="4.1319">
        <ele>390.59039306641</ele>
        <time>2020-11-13T17:44:04.385Z</time>
      </trkpt>
      <trkpt lat="45.84939" lon="4.13178">
        <ele>390.61437988281</ele>
        <time>2020-11-13T17:44:09.675Z</time>
      </trkpt>
      <trkpt lat="45.84919" lon="4.13131">
        <ele>390.75427246094</ele>
        <time>2020-11-13T17:44:14.971Z</time>
      </trkpt>
      <trkpt lat="45.8491" lon="4.13099">
        <ele>390.86178588867</ele>
        <time>2020-11-13T17:44:20.271Z</time>
      </trkpt>
      <trkpt lat="45.84903" lon="4.13064">
        <ele>390.44186401367</ele>
        <time>2020-11-13T17:44:25.575Z</time>
      </trkpt>
      <trkpt lat="45.84933" lon="4.13021">
        <ele>390.45159912109</ele>
        <time>2020-11-13T17:44:30.886Z</time>
      </trkpt>
      <trkpt lat="45.84964" lon="4.12977">
        <ele>391.79425048828</ele>
        <time>2020-11-13T17:44:36.204Z</time>
      </trkpt>
      <trkpt lat="45.84976" lon="4.12956">
        <ele>392.83248901367</ele>
        <time>2020-11-13T17:44:41.525Z</time>
      </trkpt>
      <trkpt lat="45.84979" lon="4.12943">
        <ele>393.24255371094</ele>
        <time>2020-11-13T17:44:46.847Z</time>
      </trkpt>
      <trkpt lat="45.84981" lon="4.12907">
        <ele>393.74645996094</ele>
        <time>2020-11-13T17:44:52.173Z</time>
      </trkpt>
      <trkpt lat="45.84982" lon="4.12793">
        <ele>396.07336425781</ele>
        <time>2020-11-13T17:44:57.512Z</time>
      </trkpt>
      <trkpt lat="45.84984" lon="4.12627">
        <ele>396.47381591797</ele>
        <time>2020-11-13T17:45:02.870Z</time>
      </trkpt>
      <trkpt lat="45.8498" lon="4.12545">
        <ele>395.57308959961</ele>
        <time>2020-11-13T17:45:08.237Z</time>
      </trkpt>
      <trkpt lat="45.8498" lon="4.12513">
        <ele>395.1891784668</ele>
        <time>2020-11-13T17:45:13.607Z</time>
      </trkpt>
      <trkpt lat="45.84986" lon="4.12455">
        <ele>394.83413696289</ele>
        <time>2020-11-13T17:45:18.984Z</time>
      </trkpt>
      <trkpt lat="45.84988" lon="4.12416">
        <ele>395.77886962891</ele>
        <time>2020-11-13T17:45:24.365Z</time>
      </trkpt>
      <trkpt lat="45.84987" lon="4.12386">
        <ele>396.4267578125</ele>
        <time>2020-11-13T17:45:29.750Z</time>
      </trkpt>
      <trkpt lat="45.84981" lon="4.12313">
        <ele>397.74655151367</ele>
        <time>2020-11-13T17:45:35.143Z</time>
      </trkpt>
      <trkpt lat="45.84969" lon="4.12217">
        <ele>397.74542236328</ele>
        <time>2020-11-13T17:45:40.547Z</time>
      </trkpt>
      <trkpt lat="45.8496" lon="4.12109">
        <ele>399.96334838867</ele>
        <time>2020-11-13T17:45:45.963Z</time>
      </trkpt>
      <trkpt lat="45.84955" lon="4.12077">
        <ele>399.5478515625</ele>
        <time>2020-11-13T17:45:51.383Z</time>
      </trkpt>
      <trkpt lat="45.8494" lon="4.12032">
        <ele>398.10809326172</ele>
        <time>2020-11-13T17:45:56.808Z</time>
      </trkpt>
      <trkpt lat="45.84907" lon="4.1195">
        <ele>395.93087768555</ele>
        <time>2020-11-13T17:46:02.244Z</time>
      </trkpt>
      <trkpt lat="45.8488" lon="4.11878">
        <ele>396.13452148438</ele>
        <time>2020-11-13T17:46:07.689Z</time>
      </trkpt>
      <trkpt lat="45.84868" lon="4.11831">
        <ele>395.78820800781</ele>
        <time>2020-11-13T17:46:13.140Z</time>
      </trkpt>
      <trkpt lat="45.84855" lon="4.11713">
        <ele>394.5368347168</ele>
        <time>2020-11-13T17:46:18.604Z</time>
      </trkpt>
      <trkpt lat="45.84821" lon="4.11396">
        <ele>393.61108398438</ele>
        <time>2020-11-13T17:46:24.104Z</time>
      </trkpt>
      <trkpt lat="45.84791" lon="4.11118">
        <ele>391.28771972656</ele>
        <time>2020-11-13T17:46:29.635Z</time>
      </trkpt>
      <trkpt lat="45.84767" lon="4.10889">
        <ele>386.48211669922</ele>
        <time>2020-11-13T17:46:35.192Z</time>
      </trkpt>
      <trkpt lat="45.84745" lon="4.10703">
        <ele>385.42544555664</ele>
        <time>2020-11-13T17:46:40.770Z</time>
      </trkpt>
      <trkpt lat="45.84686" lon="4.10149">
        <ele>377.37283325195</ele>
        <time>2020-11-13T17:46:46.411Z</time>
      </trkpt>
      <trkpt lat="45.84603" lon="4.09386">
        <ele>370.69891357422</ele>
        <time>2020-11-13T17:46:52.138Z</time>
      </trkpt>
      <trkpt lat="45.84598" lon="4.09337">
        <ele>370.79360961914</ele>
        <time>2020-11-13T17:46:57.871Z</time>
      </trkpt>
      <trkpt lat="45.84536" lon="4.08782">
        <ele>372.28732299805</ele>
        <time>2020-11-13T17:47:03.667Z</time>
      </trkpt>
      <trkpt lat="45.84495" lon="4.08384">
        <ele>369</ele>
        <time>2020-11-13T17:47:09.508Z</time>
      </trkpt>
      <trkpt lat="45.84445" lon="4.0792">
        <ele>367.56353759766</ele>
        <time>2020-11-13T17:47:15.401Z</time>
      </trkpt>
      <trkpt lat="45.84418" lon="4.07663">
        <ele>370.04000854492</ele>
        <time>2020-11-13T17:47:21.323Z</time>
      </trkpt>
      <trkpt lat="45.84403" lon="4.07535">
        <ele>369.22848510742</ele>
        <time>2020-11-13T17:47:27.260Z</time>
      </trkpt>
      <trkpt lat="45.84338" lon="4.06924">
        <ele>368.16098022461</ele>
        <time>2020-11-13T17:47:33.266Z</time>
      </trkpt>
      <trkpt lat="45.84287" lon="4.06435">
        <ele>364.54986572266</ele>
        <time>2020-11-13T17:47:39.327Z</time>
      </trkpt>
      <trkpt lat="45.8423" lon="4.05892">
        <ele>365.60778808594</ele>
        <time>2020-11-13T17:47:45.450Z</time>
      </trkpt>
      <trkpt lat="45.84205" lon="4.05662">
        <ele>366.79110717773</ele>
        <time>2020-11-13T17:47:51.599Z</time>
      </trkpt>
      <trkpt lat="45.84198" lon="4.05598">
        <ele>366.84231567383</ele>
        <time>2020-11-13T17:47:57.755Z</time>
      </trkpt>
      <trkpt lat="45.84196" lon="4.05564">
        <ele>367.22625732422</ele>
        <time>2020-11-13T17:48:03.915Z</time>
      </trkpt>
      <trkpt lat="45.84198" lon="4.0553">
        <ele>367.65817260742</ele>
        <time>2020-11-13T17:48:10.079Z</time>
      </trkpt>
      <trkpt lat="45.84204" lon="4.05466">
        <ele>368</ele>
        <time>2020-11-13T17:48:16.250Z</time>
      </trkpt>
      <trkpt lat="45.84204" lon="4.05406">
        <ele>367.77612304688</ele>
        <time>2020-11-13T17:48:22.428Z</time>
      </trkpt>
      <trkpt lat="45.84191" lon="4.05358">
        <ele>367.89883422852</ele>
        <time>2020-11-13T17:48:28.611Z</time>
      </trkpt>
      <trkpt lat="45.84181" lon="4.05333">
        <ele>368.13879394531</ele>
        <time>2020-11-13T17:48:34.798Z</time>
      </trkpt>
      <trkpt lat="45.84175" lon="4.05326">
        <ele>368.09078979492</ele>
        <time>2020-11-13T17:48:40.986Z</time>
      </trkpt>
      <trkpt lat="45.84156" lon="4.05303">
        <ele>367.95880126953</ele>
        <time>2020-11-13T17:48:47.178Z</time>
      </trkpt>
      <trkpt lat="45.84147" lon="4.05286">
        <ele>368.04281616211</ele>
        <time>2020-11-13T17:48:53.372Z</time>
      </trkpt>
      <trkpt lat="45.84146" lon="4.05279">
        <ele>368.03744506836</ele>
        <time>2020-11-13T17:48:59.567Z</time>
      </trkpt>
      <trkpt lat="45.84145" lon="4.05251">
        <ele>368</ele>
        <time>2020-11-13T17:49:05.765Z</time>
      </trkpt>
      <trkpt lat="45.84147" lon="4.05223">
        <ele>368</ele>
        <time>2020-11-13T17:49:11.966Z</time>
      </trkpt>
      <trkpt lat="45.84148" lon="4.05166">
        <ele>367.68167114258</ele>
        <time>2020-11-13T17:49:18.174Z</time>
      </trkpt>
      <trkpt lat="45.84143" lon="4.05109">
        <ele>367.0022277832</ele>
        <time>2020-11-13T17:49:24.388Z</time>
      </trkpt>
      <trkpt lat="45.84125" lon="4.04938">
        <ele>368.49377441406</ele>
        <time>2020-11-13T17:49:30.621Z</time>
      </trkpt>
      <trkpt lat="45.84113" lon="4.04838">
        <ele>366.17993164062</ele>
        <time>2020-11-13T17:49:36.866Z</time>
      </trkpt>
      <trkpt lat="45.84106" lon="4.04764">
        <ele>363.29232788086</ele>
        <time>2020-11-13T17:49:43.119Z</time>
      </trkpt>
      <trkpt lat="45.84098" lon="4.04704">
        <ele>360.4303894043</ele>
        <time>2020-11-13T17:49:49.379Z</time>
      </trkpt>
      <trkpt lat="45.84085" lon="4.04632">
        <ele>356.72497558594</ele>
        <time>2020-11-13T17:49:55.647Z</time>
      </trkpt>
      <trkpt lat="45.84062" lon="4.04508">
        <ele>353.07537841797</ele>
        <time>2020-11-13T17:50:01.930Z</time>
      </trkpt>
      <trkpt lat="45.84053" lon="4.04448">
        <ele>353.03259277344</ele>
        <time>2020-11-13T17:50:08.219Z</time>
      </trkpt>
      <trkpt lat="45.84046" lon="4.04425">
        <ele>352.90771484375</ele>
        <time>2020-11-13T17:50:14.511Z</time>
      </trkpt>
      <trkpt lat="45.84038" lon="4.04403">
        <ele>352.73974609375</ele>
        <time>2020-11-13T17:50:20.806Z</time>
      </trkpt>
      <trkpt lat="45.84027" lon="4.04383">
        <ele>352.63177490234</ele>
        <time>2020-11-13T17:50:27.104Z</time>
      </trkpt>
      <trkpt lat="45.83978" lon="4.04291">
        <ele>353.7490234375</ele>
        <time>2020-11-13T17:50:33.415Z</time>
      </trkpt>
      <trkpt lat="45.83936" lon="4.04215">
        <ele>355.74545288086</ele>
        <time>2020-11-13T17:50:39.737Z</time>
      </trkpt>
      <trkpt lat="45.83926" lon="4.04191">
        <ele>356.29092407227</ele>
        <time>2020-11-13T17:50:46.062Z</time>
      </trkpt>
      <trkpt lat="45.83919" lon="4.04151">
        <ele>358.54653930664</ele>
        <time>2020-11-13T17:50:52.391Z</time>
      </trkpt>
      <trkpt lat="45.83917" lon="4.04106">
        <ele>361.10162353516</ele>
        <time>2020-11-13T17:50:58.725Z</time>
      </trkpt>
      <trkpt lat="45.83913" lon="4.03753">
        <ele>368.69613647461</ele>
        <time>2020-11-13T17:51:05.099Z</time>
      </trkpt>
      <trkpt lat="45.83908" lon="4.03642">
        <ele>370.60330200195</ele>
        <time>2020-11-13T17:51:11.485Z</time>
      </trkpt>
      <trkpt lat="45.83893" lon="4.03473">
        <ele>371.67868041992</ele>
        <time>2020-11-13T17:51:17.890Z</time>
      </trkpt>
      <trkpt lat="45.83883" lon="4.03384">
        <ele>372</ele>
        <time>2020-11-13T17:51:24.306Z</time>
      </trkpt>
      <trkpt lat="45.83869" lon="4.03327">
        <ele>372.52508544922</ele>
        <time>2020-11-13T17:51:30.728Z</time>
      </trkpt>
      <trkpt lat="45.83861" lon="4.03285">
        <ele>373.43695068359</ele>
        <time>2020-11-13T17:51:37.155Z</time>
      </trkpt>
      <trkpt lat="45.83856" lon="4.03238">
        <ele>374.3962097168</ele>
        <time>2020-11-13T17:51:43.588Z</time>
      </trkpt>
      <trkpt lat="45.83857" lon="4.03165">
        <ele>374.71054077148</ele>
        <time>2020-11-13T17:51:50.029Z</time>
      </trkpt>
      <trkpt lat="45.83869" lon="4.02976">
        <ele>377.30142211914</ele>
        <time>2020-11-13T17:51:56.491Z</time>
      </trkpt>
      <trkpt lat="45.83869" lon="4.02934">
        <ele>378.61743164062</ele>
        <time>2020-11-13T17:52:02.958Z</time>
      </trkpt>
      <trkpt lat="45.83867" lon="4.02902">
        <ele>378.73577880859</ele>
        <time>2020-11-13T17:52:09.428Z</time>
      </trkpt>
      <trkpt lat="45.83855" lon="4.02851">
        <ele>378.87292480469</ele>
        <time>2020-11-13T17:52:15.904Z</time>
      </trkpt>
      <trkpt lat="45.83849" lon="4.02831">
        <ele>379.52081298828</ele>
        <time>2020-11-13T17:52:22.383Z</time>
      </trkpt>
      <trkpt lat="45.83776" lon="4.0267">
        <ele>381.17465209961</ele>
        <time>2020-11-13T17:52:28.883Z</time>
      </trkpt>
      <trkpt lat="45.83726" lon="4.02561">
        <ele>383.71939086914</ele>
        <time>2020-11-13T17:52:35.398Z</time>
      </trkpt>
      <trkpt lat="45.83695" lon="4.02492">
        <ele>385.29244995117</ele>
        <time>2020-11-13T17:52:41.922Z</time>
      </trkpt>
      <trkpt lat="45.8367" lon="4.02446">
        <ele>386.30026245117</ele>
        <time>2020-11-13T17:52:48.452Z</time>
      </trkpt>
      <trkpt lat="45.83646" lon="4.02406">
        <ele>387.5009765625</ele>
        <time>2020-11-13T17:52:54.988Z</time>
      </trkpt>
      <trkpt lat="45.83593" lon="4.02342">
        <ele>389.69940185547</ele>
        <time>2020-11-13T17:53:01.535Z</time>
      </trkpt>
      <trkpt lat="45.83567" lon="4.02309">
        <ele>390.65924072266</ele>
        <time>2020-11-13T17:53:08.088Z</time>
      </trkpt>
      <trkpt lat="45.83547" lon="4.02278">
        <ele>391.77066040039</ele>
        <time>2020-11-13T17:53:14.646Z</time>
      </trkpt>
      <trkpt lat="45.83543" lon="4.02267">
        <ele>392.15005493164</ele>
        <time>2020-11-13T17:53:21.205Z</time>
      </trkpt>
      <trkpt lat="45.83526" lon="4.02211">
        <ele>394.79553222656</ele>
        <time>2020-11-13T17:53:27.771Z</time>
      </trkpt>
      <trkpt lat="45.83524" lon="4.02205">
        <ele>395.08346557617</ele>
        <time>2020-11-13T17:53:34.338Z</time>
      </trkpt>
      <trkpt lat="45.83516" lon="4.02176">
        <ele>396.34286499023</ele>
        <time>2020-11-13T17:53:40.908Z</time>
      </trkpt>
      <trkpt lat="45.83466" lon="4.02069">
        <ele>400.70602416992</ele>
        <time>2020-11-13T17:53:47.493Z</time>
      </trkpt>
      <trkpt lat="45.83435" lon="4.02008">
        <ele>403.72933959961</ele>
        <time>2020-11-13T17:53:54.086Z</time>
      </trkpt>
      <trkpt lat="45.83419" lon="4.01989">
        <ele>404.029296875</ele>
        <time>2020-11-13T17:54:00.682Z</time>
      </trkpt>
      <trkpt lat="45.834" lon="4.01971">
        <ele>404.22125244141</ele>
        <time>2020-11-13T17:54:07.282Z</time>
      </trkpt>
      <trkpt lat="45.83378" lon="4.01954">
        <ele>404.30523681641</ele>
        <time>2020-11-13T17:54:13.886Z</time>
      </trkpt>
      <trkpt lat="45.83337" lon="4.01928">
        <ele>404.42510986328</ele>
        <time>2020-11-13T17:54:20.497Z</time>
      </trkpt>
      <trkpt lat="45.83321" lon="4.01916">
        <ele>404.61709594727</ele>
        <time>2020-11-13T17:54:27.111Z</time>
      </trkpt>
      <trkpt lat="45.83297" lon="4.01899">
        <ele>404.96014404297</ele>
        <time>2020-11-13T17:54:33.729Z</time>
      </trkpt>
      <trkpt lat="45.8329" lon="4.0189">
        <ele>405.30807495117</ele>
        <time>2020-11-13T17:54:40.349Z</time>
      </trkpt>
      <trkpt lat="45.83278" lon="4.0191">
        <ele>404.20425415039</ele>
        <time>2020-11-13T17:54:46.972Z</time>
      </trkpt>
      <trkpt lat="45.83261" lon="4.01941">
        <ele>401.98941040039</ele>
        <time>2020-11-13T17:54:53.599Z</time>
      </trkpt>
      <trkpt lat="45.83238" lon="4.01985">
        <ele>399.31396484375</ele>
        <time>2020-11-13T17:55:00.232Z</time>
      </trkpt>
      <trkpt lat="45.83223" lon="4.01991">
        <ele>398.66607666016</ele>
        <time>2020-11-13T17:55:06.868Z</time>
      </trkpt>
      <trkpt lat="45.83239" lon="4.0206">
        <ele>394.47714233398</ele>
        <time>2020-11-13T17:55:13.512Z</time>
      </trkpt>
      <trkpt lat="45.83251" lon="4.0212">
        <ele>389.70126342773</ele>
        <time>2020-11-13T17:55:20.163Z</time>
      </trkpt>
      <trkpt lat="45.83263" lon="4.02184">
        <ele>386.0231628418</ele>
        <time>2020-11-13T17:55:26.821Z</time>
      </trkpt>
      <trkpt lat="45.83269" lon="4.02228">
        <ele>383.64715576172</ele>
        <time>2020-11-13T17:55:33.484Z</time>
      </trkpt>
      <trkpt lat="45.83268" lon="4.02243">
        <ele>382.68731689453</ele>
        <time>2020-11-13T17:55:40.149Z</time>
      </trkpt>
      <trkpt lat="45.83262" lon="4.02259">
        <ele>381.36755371094</ele>
        <time>2020-11-13T17:55:46.816Z</time>
      </trkpt>
      <trkpt lat="45.83256" lon="4.02268">
        <ele>380.46771240234</ele>
        <time>2020-11-13T17:55:53.484Z</time>
      </trkpt>
      <trkpt lat="45.83242" lon="4.0228">
        <ele>378.90795898438</ele>
        <time>2020-11-13T17:56:00.155Z</time>
      </trkpt>
      <trkpt lat="45.83231" lon="4.02283">
        <ele>378.0680847168</ele>
        <time>2020-11-13T17:56:06.828Z</time>
      </trkpt>
      <trkpt lat="45.83218" lon="4.02281">
        <ele>377.76327514648</ele>
        <time>2020-11-13T17:56:13.503Z</time>
      </trkpt>
      <trkpt lat="45.83199" lon="4.02272">
        <ele>377.48275756836</ele>
        <time>2020-11-13T17:56:20.181Z</time>
      </trkpt>
      <trkpt lat="45.83195" lon="4.0227">
        <ele>377.41079711914</ele>
        <time>2020-11-13T17:56:26.860Z</time>
      </trkpt>
      <trkpt lat="45.83188" lon="4.02268">
        <ele>377.26681518555</ele>
        <time>2020-11-13T17:56:33.540Z</time>
      </trkpt>
      <trkpt lat="45.8317" lon="4.02254">
        <ele>377.00283813477</ele>
        <time>2020-11-13T17:56:40.223Z</time>
      </trkpt>
      <trkpt lat="45.83141" lon="4.02232">
        <ele>376.57092285156</ele>
        <time>2020-11-13T17:56:46.912Z</time>
      </trkpt>
      <trkpt lat="45.83039" lon="4.02154">
        <ele>371.52264404297</ele>
        <time>2020-11-13T17:56:53.619Z</time>
      </trkpt>
      <trkpt lat="45.8302" lon="4.02142">
        <ele>370.21487426758</ele>
        <time>2020-11-13T17:57:00.329Z</time>
      </trkpt>
      <trkpt lat="45.83009" lon="4.02139">
        <ele>369.3630065918</ele>
        <time>2020-11-13T17:57:07.041Z</time>
      </trkpt>
      <trkpt lat="45.82996" lon="4.02137">
        <ele>368.15658569336</ele>
        <time>2020-11-13T17:57:13.755Z</time>
      </trkpt>
      <trkpt lat="45.82981" lon="4.02138">
        <ele>366.296875</ele>
        <time>2020-11-13T17:57:20.472Z</time>
      </trkpt>
      <trkpt lat="45.82953" lon="4.02147">
        <ele>363.5495300293</ele>
        <time>2020-11-13T17:57:27.193Z</time>
      </trkpt>
      <trkpt lat="45.82898" lon="4.02166">
        <ele>360.84411621094</ele>
        <time>2020-11-13T17:57:33.923Z</time>
      </trkpt>
      <trkpt lat="45.82893" lon="4.0217">
        <ele>360.62814331055</ele>
        <time>2020-11-13T17:57:40.654Z</time>
      </trkpt>
      <trkpt lat="45.82887" lon="4.02181">
        <ele>360.42059326172</ele>
        <time>2020-11-13T17:57:47.387Z</time>
      </trkpt>
      <trkpt lat="45.82884" lon="4.02193">
        <ele>360.58258056641</ele>
        <time>2020-11-13T17:57:54.121Z</time>
      </trkpt>
      <trkpt lat="45.82888" lon="4.02263">
        <ele>360.10266113281</ele>
        <time>2020-11-13T17:58:00.863Z</time>
      </trkpt>
      <trkpt lat="45.82885" lon="4.02283">
        <ele>360.23348999023</ele>
        <time>2020-11-13T17:58:07.607Z</time>
      </trkpt>
      <trkpt lat="45.82871" lon="4.02326">
        <ele>360.71340942383</ele>
        <time>2020-11-13T17:58:14.357Z</time>
      </trkpt>
      <trkpt lat="45.82864" lon="4.02339">
        <ele>361.09582519531</ele>
        <time>2020-11-13T17:58:21.108Z</time>
      </trkpt>
      <trkpt lat="45.82825" lon="4.02445">
        <ele>359.76049804688</ele>
        <time>2020-11-13T17:58:27.873Z</time>
      </trkpt>
      <trkpt lat="45.82788" lon="4.02555">
        <ele>358.26040649414</ele>
        <time>2020-11-13T17:58:34.652Z</time>
      </trkpt>
      <trkpt lat="45.82785" lon="4.02566">
        <ele>358.47637939453</ele>
        <time>2020-11-13T17:58:41.432Z</time>
      </trkpt>
      <trkpt lat="45.82766" lon="4.02601">
        <ele>358.70169067383</ele>
        <time>2020-11-13T17:58:48.217Z</time>
      </trkpt>
      <trkpt lat="45.82638" lon="4.0282">
        <ele>358.8723449707</ele>
        <time>2020-11-13T17:58:55.034Z</time>
      </trkpt>
      <trkpt lat="45.82593" lon="4.02892">
        <ele>356.35504150391</ele>
        <time>2020-11-13T17:59:01.862Z</time>
      </trkpt>
      <trkpt lat="45.82577" lon="4.02914">
        <ele>356.5627746582</ele>
        <time>2020-11-13T17:59:08.693Z</time>
      </trkpt>
      <trkpt lat="45.8239" lon="4.03146">
        <ele>356.10861206055</ele>
        <time>2020-11-13T17:59:15.564Z</time>
      </trkpt>
      <trkpt lat="45.82317" lon="4.03236">
        <ele>354</ele>
        <time>2020-11-13T17:59:22.450Z</time>
      </trkpt>
      <trkpt lat="45.8226" lon="4.03302">
        <ele>355.09002685547</ele>
        <time>2020-11-13T17:59:29.348Z</time>
      </trkpt>
      <trkpt lat="45.82228" lon="4.0334">
        <ele>356.56015014648</ele>
        <time>2020-11-13T17:59:36.253Z</time>
      </trkpt>
      <trkpt lat="45.8222" lon="4.03349">
        <ele>356.88128662109</ele>
        <time>2020-11-13T17:59:43.159Z</time>
      </trkpt>
      <trkpt lat="45.82217" lon="4.03349">
        <ele>356.88128662109</ele>
        <time>2020-11-13T17:59:50.066Z</time>
      </trkpt>
      <trkpt lat="45.82211" lon="4.03352">
        <ele>356.86709594727</ele>
        <time>2020-11-13T17:59:56.974Z</time>
      </trkpt>
      <trkpt lat="45.82206" lon="4.03357">
        <ele>356.80709838867</ele>
        <time>2020-11-13T18:00:03.883Z</time>
      </trkpt>
      <trkpt lat="45.82204" lon="4.03361">
        <ele>356.73254394531</ele>
        <time>2020-11-13T18:00:10.792Z</time>
      </trkpt>
      <trkpt lat="45.82191" lon="4.03371">
        <ele>356.3366394043</ele>
        <time>2020-11-13T18:00:17.704Z</time>
      </trkpt>
      <trkpt lat="45.8218" lon="4.03374">
        <ele>356.13265991211</ele>
        <time>2020-11-13T18:00:24.617Z</time>
      </trkpt>
      <trkpt lat="45.82159" lon="4.03375">
        <ele>355.85668945312</ele>
        <time>2020-11-13T18:00:31.534Z</time>
      </trkpt>
      <trkpt lat="45.82143" lon="4.03376">
        <ele>355.79476928711</ele>
        <time>2020-11-13T18:00:38.453Z</time>
      </trkpt>
      <trkpt lat="45.82108" lon="4.03379">
        <ele>355.39004516602</ele>
        <time>2020-11-13T18:00:45.378Z</time>
      </trkpt>
      <trkpt lat="45.82075" lon="4.03387">
        <ele>355</ele>
        <time>2020-11-13T18:00:52.308Z</time>
      </trkpt>
      <trkpt lat="45.82051" lon="4.03397">
        <ele>354.94741821289</ele>
        <time>2020-11-13T18:00:59.242Z</time>
      </trkpt>
      <trkpt lat="45.82019" lon="4.03418">
        <ele>354.70916748047</ele>
        <time>2020-11-13T18:01:06.182Z</time>
      </trkpt>
      <trkpt lat="45.82005" lon="4.0343">
        <ele>354.85311889648</ele>
        <time>2020-11-13T18:01:13.125Z</time>
      </trkpt>
      <trkpt lat="45.81959" lon="4.03474">
        <ele>354.30612182617</ele>
        <time>2020-11-13T18:01:20.076Z</time>
      </trkpt>
      <trkpt lat="45.81858" lon="4.03564">
        <ele>352.10461425781</ele>
        <time>2020-11-13T18:01:27.046Z</time>
      </trkpt>
      <trkpt lat="45.81822" lon="4.03585">
        <ele>353.40042114258</ele>
        <time>2020-11-13T18:01:34.023Z</time>
      </trkpt>
      <trkpt lat="45.81753" lon="4.0362">
        <ele>354</ele>
        <time>2020-11-13T18:01:41.011Z</time>
      </trkpt>
      <trkpt lat="45.81638" lon="4.03662">
        <ele>353.7421875</ele>
        <time>2020-11-13T18:01:48.018Z</time>
      </trkpt>
      <trkpt lat="45.81607" lon="4.03679">
        <ele>354.29849243164</ele>
        <time>2020-11-13T18:01:55.031Z</time>
      </trkpt>
      <trkpt lat="45.81592" lon="4.03691">
        <ele>354.69442749023</ele>
        <time>2020-11-13T18:02:02.046Z</time>
      </trkpt>
      <trkpt lat="45.8156" lon="4.03719">
        <ele>355.51028442383</ele>
        <time>2020-11-13T18:02:09.067Z</time>
      </trkpt>
      <trkpt lat="45.8153" lon="4.03739">
        <ele>356.35012817383</ele>
        <time>2020-11-13T18:02:16.094Z</time>
      </trkpt>
      <trkpt lat="45.81478" lon="4.03762">
        <ele>356.41802978516</ele>
        <time>2020-11-13T18:02:23.129Z</time>
      </trkpt>
      <trkpt lat="45.81398" lon="4.03787">
        <ele>355.61444091797</ele>
        <time>2020-11-13T18:02:30.178Z</time>
      </trkpt>
      <trkpt lat="45.81329" lon="4.03807">
        <ele>354.62362670898</ele>
        <time>2020-11-13T18:02:37.238Z</time>
      </trkpt>
      <trkpt lat="45.81277" lon="4.03824">
        <ele>354.75869750977</ele>
        <time>2020-11-13T18:02:44.306Z</time>
      </trkpt>
      <trkpt lat="45.81196" lon="4.03867">
        <ele>356.74014282227</ele>
        <time>2020-11-13T18:02:51.388Z</time>
      </trkpt>
      <trkpt lat="45.81018" lon="4.03968">
        <ele>361.07583618164</ele>
        <time>2020-11-13T18:02:58.501Z</time>
      </trkpt>
      <trkpt lat="45.80916" lon="4.04025">
        <ele>362.72158813477</ele>
        <time>2020-11-13T18:03:05.631Z</time>
      </trkpt>
      <trkpt lat="45.80889" lon="4.04038">
        <ele>363.38540649414</ele>
        <time>2020-11-13T18:03:12.766Z</time>
      </trkpt>
      <trkpt lat="45.80812" lon="4.04062">
        <ele>365.71884155273</ele>
        <time>2020-11-13T18:03:19.914Z</time>
      </trkpt>
      <trkpt lat="45.80784" lon="4.04065">
        <ele>366.31033325195</ele>
        <time>2020-11-13T18:03:27.066Z</time>
      </trkpt>
      <trkpt lat="45.80762" lon="4.04064">
        <ele>366.59829711914</ele>
        <time>2020-11-13T18:03:34.222Z</time>
      </trkpt>
      <trkpt lat="45.80728" lon="4.04053">
        <ele>366.76251220703</ele>
        <time>2020-11-13T18:03:41.383Z</time>
      </trkpt>
      <trkpt lat="45.80657" lon="4.04027">
        <ele>367.9362487793</ele>
        <time>2020-11-13T18:03:48.556Z</time>
      </trkpt>
      <trkpt lat="45.80594" lon="4.04013">
        <ele>369.37142944336</ele>
        <time>2020-11-13T18:03:55.739Z</time>
      </trkpt>
      <trkpt lat="45.80543" lon="4.03998">
        <ele>370.37286376953</ele>
        <time>2020-11-13T18:04:02.930Z</time>
      </trkpt>
      <trkpt lat="45.80482" lon="4.03972">
        <ele>369.06597900391</ele>
        <time>2020-11-13T18:04:10.132Z</time>
      </trkpt>
      <trkpt lat="45.80414" lon="4.03943">
        <ele>368.58093261719</ele>
        <time>2020-11-13T18:04:17.345Z</time>
      </trkpt>
      <trkpt lat="45.80327" lon="4.0391">
        <ele>367.30136108398</ele>
        <time>2020-11-13T18:04:24.572Z</time>
      </trkpt>
      <trkpt lat="45.80224" lon="4.0387">
        <ele>364.8166809082</ele>
        <time>2020-11-13T18:04:31.816Z</time>
      </trkpt>
      <trkpt lat="45.80173" lon="4.03848">
        <ele>363.96203613281</ele>
        <time>2020-11-13T18:04:39.069Z</time>
      </trkpt>
      <trkpt lat="45.80119" lon="4.03819">
        <ele>364.87603759766</ele>
        <time>2020-11-13T18:04:46.331Z</time>
      </trkpt>
      <trkpt lat="45.8009" lon="4.03796">
        <ele>367.23962402344</ele>
        <time>2020-11-13T18:04:53.598Z</time>
      </trkpt>
      <trkpt lat="45.80059" lon="4.03772">
        <ele>369.67211914062</ele>
        <time>2020-11-13T18:05:00.871Z</time>
      </trkpt>
      <trkpt lat="45.80053" lon="4.03761">
        <ele>369.84906005859</ele>
        <time>2020-11-13T18:05:08.146Z</time>
      </trkpt>
      <trkpt lat="45.80041" lon="4.03744">
        <ele>369.78909301758</ele>
        <time>2020-11-13T18:05:15.423Z</time>
      </trkpt>
      <trkpt lat="45.80009" lon="4.03692">
        <ele>369.54571533203</ele>
        <time>2020-11-13T18:05:22.708Z</time>
      </trkpt>
      <trkpt lat="45.79993" lon="4.03666">
        <ele>369.11380004883</ele>
        <time>2020-11-13T18:05:29.997Z</time>
      </trkpt>
      <trkpt lat="45.79965" lon="4.03639">
        <ele>368.88226318359</ele>
        <time>2020-11-13T18:05:37.291Z</time>
      </trkpt>
      <trkpt lat="45.7994" lon="4.03625">
        <ele>369.14624023438</ele>
        <time>2020-11-13T18:05:44.590Z</time>
      </trkpt>
      <trkpt lat="45.79847" lon="4.03596">
        <ele>371.67434692383</ele>
        <time>2020-11-13T18:05:51.904Z</time>
      </trkpt>
      <trkpt lat="45.79773" lon="4.03569">
        <ele>373.80978393555</ele>
        <time>2020-11-13T18:05:59.230Z</time>
      </trkpt>
      <trkpt lat="45.79745" lon="4.03558">
        <ele>374.32656860352</ele>
        <time>2020-11-13T18:06:06.561Z</time>
      </trkpt>
      <trkpt lat="45.79707" lon="4.0354">
        <ele>374.69464111328</ele>
        <time>2020-11-13T18:06:13.898Z</time>
      </trkpt>
      <trkpt lat="45.79657" lon="4.03515">
        <ele>374.39468383789</ele>
        <time>2020-11-13T18:06:21.244Z</time>
      </trkpt>
      <trkpt lat="45.79604" lon="4.03496">
        <ele>374.75839233398</ele>
        <time>2020-11-13T18:06:28.598Z</time>
      </trkpt>
      <trkpt lat="45.79532" lon="4.03476">
        <ele>375.76623535156</ele>
        <time>2020-11-13T18:06:35.964Z</time>
      </trkpt>
      <trkpt lat="45.79483" lon="4.03475">
        <ele>376.90603637695</ele>
        <time>2020-11-13T18:06:43.338Z</time>
      </trkpt>
      <trkpt lat="45.79442" lon="4.03476">
        <ele>378.99200439453</ele>
        <time>2020-11-13T18:06:50.719Z</time>
      </trkpt>
      <trkpt lat="45.79426" lon="4.0347">
        <ele>379.73587036133</ele>
        <time>2020-11-13T18:06:58.102Z</time>
      </trkpt>
      <trkpt lat="45.79409" lon="4.03453">
        <ele>380.1438293457</ele>
        <time>2020-11-13T18:07:05.489Z</time>
      </trkpt>
      <trkpt lat="45.79394" lon="4.03436">
        <ele>380.43176269531</ele>
        <time>2020-11-13T18:07:12.879Z</time>
      </trkpt>
      <trkpt lat="45.79327" lon="4.03334">
        <ele>379.0107421875</ele>
        <time>2020-11-13T18:07:20.284Z</time>
      </trkpt>
      <trkpt lat="45.79301" lon="4.03305">
        <ele>378.60189819336</ele>
        <time>2020-11-13T18:07:27.695Z</time>
      </trkpt>
      <trkpt lat="45.79285" lon="4.03291">
        <ele>378.69790649414</ele>
        <time>2020-11-13T18:07:35.109Z</time>
      </trkpt>
      <trkpt lat="45.79268" lon="4.0328">
        <ele>378.98583984375</ele>
        <time>2020-11-13T18:07:42.526Z</time>
      </trkpt>
      <trkpt lat="45.79229" lon="4.03257">
        <ele>380.42129516602</ele>
        <time>2020-11-13T18:07:49.949Z</time>
      </trkpt>
      <trkpt lat="45.79185" lon="4.03237">
        <ele>380.97637939453</ele>
        <time>2020-11-13T18:07:57.380Z</time>
      </trkpt>
      <trkpt lat="45.79139" lon="4.03223">
        <ele>382.80157470703</ele>
        <time>2020-11-13T18:08:04.818Z</time>
      </trkpt>
      <trkpt lat="45.79121" lon="4.03229">
        <ele>384.03460693359</ele>
        <time>2020-11-13T18:08:12.259Z</time>
      </trkpt>
      <trkpt lat="45.79053" lon="4.03279">
        <ele>384.96234130859</ele>
        <time>2020-11-13T18:08:19.712Z</time>
      </trkpt>
      <trkpt lat="45.79026" lon="4.03298">
        <ele>385.154296875</ele>
        <time>2020-11-13T18:08:27.170Z</time>
      </trkpt>
      <trkpt lat="45.78977" lon="4.03336">
        <ele>384.75848388672</ele>
        <time>2020-11-13T18:08:34.637Z</time>
      </trkpt>
      <trkpt lat="45.78944" lon="4.03357">
        <ele>384.68347167969</ele>
        <time>2020-11-13T18:08:42.110Z</time>
      </trkpt>
      <trkpt lat="45.78906" lon="4.03371">
        <ele>385.71786499023</ele>
        <time>2020-11-13T18:08:49.589Z</time>
      </trkpt>
      <trkpt lat="45.78885" lon="4.03375">
        <ele>385.76657104492</ele>
        <time>2020-11-13T18:08:57.072Z</time>
      </trkpt>
      <trkpt lat="45.78727" lon="4.03364">
        <ele>389.87747192383</ele>
        <time>2020-11-13T18:09:04.580Z</time>
      </trkpt>
      <trkpt lat="45.78229" lon="4.03332">
        <ele>397.19964599609</ele>
        <time>2020-11-13T18:09:12.168Z</time>
      </trkpt>
      <trkpt lat="45.77959" lon="4.03316">
        <ele>398.91015625</ele>
        <time>2020-11-13T18:09:19.799Z</time>
      </trkpt>
      <trkpt lat="45.77887" lon="4.03313">
        <ele>398.63961791992</ele>
        <time>2020-11-13T18:09:27.442Z</time>
      </trkpt>
      <trkpt lat="45.7785" lon="4.03309">
        <ele>398.33969116211</ele>
        <time>2020-11-13T18:09:35.090Z</time>
      </trkpt>
      <trkpt lat="45.77798" lon="4.03296">
        <ele>398.34902954102</ele>
        <time>2020-11-13T18:09:42.747Z</time>
      </trkpt>
      <trkpt lat="45.77774" lon="4.03285">
        <ele>398.03707885742</ele>
        <time>2020-11-13T18:09:50.408Z</time>
      </trkpt>
      <trkpt lat="45.77714" lon="4.03245">
        <ele>397.83572387695</ele>
        <time>2020-11-13T18:09:58.080Z</time>
      </trkpt>
      <trkpt lat="45.77657" lon="4.03208">
        <ele>397.11584472656</ele>
        <time>2020-11-13T18:10:05.762Z</time>
      </trkpt>
      <trkpt lat="45.77641" lon="4.03203">
        <ele>396.90664672852</ele>
        <time>2020-11-13T18:10:13.446Z</time>
      </trkpt>
      <trkpt lat="45.7757" lon="4.0319">
        <ele>397.9211730957</ele>
        <time>2020-11-13T18:10:21.142Z</time>
      </trkpt>
      <trkpt lat="45.77539" lon="4.03183">
        <ele>398.51867675781</ele>
        <time>2020-11-13T18:10:28.843Z</time>
      </trkpt>
      <trkpt lat="45.775" lon="4.0317">
        <ele>399.45452880859</ele>
        <time>2020-11-13T18:10:36.550Z</time>
      </trkpt>
      <trkpt lat="45.77465" lon="4.03156">
        <ele>400.2275390625</ele>
        <time>2020-11-13T18:10:44.263Z</time>
      </trkpt>
      <trkpt lat="45.77417" lon="4.03138">
        <ele>400.2995300293</ele>
        <time>2020-11-13T18:10:51.984Z</time>
      </trkpt>
      <trkpt lat="45.774" lon="4.03134">
        <ele>400.2395324707</ele>
        <time>2020-11-13T18:10:59.708Z</time>
      </trkpt>
      <trkpt lat="45.77381" lon="4.03113">
        <ele>400.60092163086</ele>
        <time>2020-11-13T18:11:07.435Z</time>
      </trkpt>
      <trkpt lat="45.77358" lon="4.03095">
        <ele>400.42095947266</ele>
        <time>2020-11-13T18:11:15.167Z</time>
      </trkpt>
      <trkpt lat="45.77322" lon="4.03073">
        <ele>399.91705322266</ele>
        <time>2020-11-13T18:11:22.905Z</time>
      </trkpt>
      <trkpt lat="45.77265" lon="4.03056">
        <ele>399.90234375</ele>
        <time>2020-11-13T18:11:30.652Z</time>
      </trkpt>
      <trkpt lat="45.77201" lon="4.03035">
        <ele>400.90112304688</ele>
        <time>2020-11-13T18:11:38.410Z</time>
      </trkpt>
      <trkpt lat="45.77156" lon="4.03017">
        <ele>401.88485717773</ele>
        <time>2020-11-13T18:11:46.175Z</time>
      </trkpt>
      <trkpt lat="45.7713" lon="4.0301">
        <ele>402.18603515625</ele>
        <time>2020-11-13T18:11:53.944Z</time>
      </trkpt>
      <trkpt lat="45.77043" lon="4.02992">
        <ele>401.66540527344</ele>
        <time>2020-11-13T18:12:01.728Z</time>
      </trkpt>
      <trkpt lat="45.76984" lon="4.02967">
        <ele>402.13549804688</ele>
        <time>2020-11-13T18:12:09.521Z</time>
      </trkpt>
      <trkpt lat="45.76913" lon="4.02932">
        <ele>401.09085083008</ele>
        <time>2020-11-13T18:12:17.326Z</time>
      </trkpt>
      <trkpt lat="45.76828" lon="4.02894">
        <ele>402.45153808594</ele>
        <time>2020-11-13T18:12:25.146Z</time>
      </trkpt>
      <trkpt lat="45.76752" lon="4.02863">
        <ele>401.95919799805</ele>
        <time>2020-11-13T18:12:32.978Z</time>
      </trkpt>
      <trkpt lat="45.76696" lon="4.02839">
        <ele>400.33203125</ele>
        <time>2020-11-13T18:12:40.820Z</time>
      </trkpt>
      <trkpt lat="45.7665" lon="4.02813">
        <ele>398.98825073242</ele>
        <time>2020-11-13T18:12:48.670Z</time>
      </trkpt>
      <trkpt lat="45.76641" lon="4.02808">
        <ele>398.72430419922</ele>
        <time>2020-11-13T18:12:56.521Z</time>
      </trkpt>
      <trkpt lat="45.76631" lon="4.02799">
        <ele>398.63586425781</ele>
        <time>2020-11-13T18:13:04.374Z</time>
      </trkpt>
      <trkpt lat="45.76622" lon="4.0279">
        <ele>398.63586425781</ele>
        <time>2020-11-13T18:13:12.229Z</time>
      </trkpt>
      <trkpt lat="45.76542" lon="4.02739">
        <ele>397.97750854492</ele>
        <time>2020-11-13T18:13:20.098Z</time>
      </trkpt>
      <trkpt lat="45.76495" lon="4.02713">
        <ele>395.21795654297</ele>
        <time>2020-11-13T18:13:27.975Z</time>
      </trkpt>
      <trkpt lat="45.76431" lon="4.0269">
        <ele>393.11346435547</ele>
        <time>2020-11-13T18:13:35.862Z</time>
      </trkpt>
      <trkpt lat="45.76395" lon="4.0268">
        <ele>392.60952758789</ele>
        <time>2020-11-13T18:13:43.755Z</time>
      </trkpt>
      <trkpt lat="45.76342" lon="4.02669">
        <ele>391.7336730957</ele>
        <time>2020-11-13T18:13:51.657Z</time>
      </trkpt>
      <trkpt lat="45.76294" lon="4.02664">
        <ele>390.88693237305</ele>
        <time>2020-11-13T18:13:59.567Z</time>
      </trkpt>
      <trkpt lat="45.76264" lon="4.02664">
        <ele>390.37930297852</ele>
        <time>2020-11-13T18:14:07.481Z</time>
      </trkpt>
      <trkpt lat="45.76247" lon="4.02668">
        <ele>389.77938842773</ele>
        <time>2020-11-13T18:14:15.398Z</time>
      </trkpt>
      <trkpt lat="45.76203" lon="4.0267">
        <ele>388.41067504883</ele>
        <time>2020-11-13T18:14:23.322Z</time>
      </trkpt>
      <trkpt lat="45.76168" lon="4.02674">
        <ele>387.37841796875</ele>
        <time>2020-11-13T18:14:31.252Z</time>
      </trkpt>
      <trkpt lat="45.76144" lon="4.02678">
        <ele>386.65853881836</ele>
        <time>2020-11-13T18:14:39.186Z</time>
      </trkpt>
      <trkpt lat="45.76084" lon="4.02692">
        <ele>386.64605712891</ele>
        <time>2020-11-13T18:14:47.129Z</time>
      </trkpt>
      <trkpt lat="45.76014" lon="4.02703">
        <ele>385.76977539062</ele>
        <time>2020-11-13T18:14:55.084Z</time>
      </trkpt>
      <trkpt lat="45.75944" lon="4.02705">
        <ele>384.69082641602</ele>
        <time>2020-11-13T18:15:03.050Z</time>
      </trkpt>
      <trkpt lat="45.75888" lon="4.02702">
        <ele>384.76281738281</ele>
        <time>2020-11-13T18:15:11.025Z</time>
      </trkpt>
      <trkpt lat="45.75815" lon="4.02688">
        <ele>385.92150878906</ele>
        <time>2020-11-13T18:15:19.012Z</time>
      </trkpt>
      <trkpt lat="45.75719" lon="4.02667">
        <ele>383.53088378906</ele>
        <time>2020-11-13T18:15:27.014Z</time>
      </trkpt>
      <trkpt lat="45.75558" lon="4.0263">
        <ele>380.53491210938</ele>
        <time>2020-11-13T18:15:35.042Z</time>
      </trkpt>
      <trkpt lat="45.75494" lon="4.02614">
        <ele>379.42752075195</ele>
        <time>2020-11-13T18:15:43.081Z</time>
      </trkpt>
      <trkpt lat="45.75433" lon="4.02591">
        <ele>379.42639160156</ele>
        <time>2020-11-13T18:15:51.130Z</time>
      </trkpt>
      <trkpt lat="45.75394" lon="4.02572">
        <ele>379.88229370117</ele>
        <time>2020-11-13T18:15:59.185Z</time>
      </trkpt>
      <trkpt lat="45.75355" lon="4.0255">
        <ele>379.62780761719</ele>
        <time>2020-11-13T18:16:07.247Z</time>
      </trkpt>
      <trkpt lat="45.753" lon="4.02521">
        <ele>379.05694580078</ele>
        <time>2020-11-13T18:16:15.318Z</time>
      </trkpt>
      <trkpt lat="45.75246" lon="4.02498">
        <ele>378.95901489258</ele>
        <time>2020-11-13T18:16:23.398Z</time>
      </trkpt>
      <trkpt lat="45.75108" lon="4.02454">
        <ele>379.00442504883</ele>
        <time>2020-11-13T18:16:31.501Z</time>
      </trkpt>
      <trkpt lat="45.7499" lon="4.02402">
        <ele>378.48080444336</ele>
        <time>2020-11-13T18:16:39.624Z</time>
      </trkpt>
      <trkpt lat="45.74878" lon="4.02345">
        <ele>378.93618774414</ele>
        <time>2020-11-13T18:16:47.766Z</time>
      </trkpt>
      <trkpt lat="45.74768" lon="4.02285">
        <ele>377.88458251953</ele>
        <time>2020-11-13T18:16:55.927Z</time>
      </trkpt>
      <trkpt lat="45.74662" lon="4.02227">
        <ele>379.53698730469</ele>
        <time>2020-11-13T18:17:04.106Z</time>
      </trkpt>
      <trkpt lat="45.74632" lon="4.02211">
        <ele>380.49060058594</ele>
        <time>2020-11-13T18:17:12.290Z</time>
      </trkpt>
      <trkpt lat="45.74609" lon="4.02197">
        <ele>381.42645263672</ele>
        <time>2020-11-13T18:17:20.478Z</time>
      </trkpt>
      <trkpt lat="45.74585" lon="4.02178">
        <ele>382.51864624023</ele>
        <time>2020-11-13T18:17:28.670Z</time>
      </trkpt>
      <trkpt lat="45.74568" lon="4.02161">
        <ele>383.33453369141</ele>
        <time>2020-11-13T18:17:36.866Z</time>
      </trkpt>
      <trkpt lat="45.74543" lon="4.02128">
        <ele>384.40072631836</ele>
        <time>2020-11-13T18:17:45.067Z</time>
      </trkpt>
      <trkpt lat="45.74515" lon="4.02086">
        <ele>385.68075561523</ele>
        <time>2020-11-13T18:17:53.275Z</time>
      </trkpt>
      <trkpt lat="45.74486" lon="4.0204">
        <ele>387.27648925781</ele>
        <time>2020-11-13T18:18:01.490Z</time>
      </trkpt>
      <trkpt lat="45.74466" lon="4.0201">
        <ele>388.41372680664</ele>
        <time>2020-11-13T18:18:09.709Z</time>
      </trkpt>
      <trkpt lat="45.74448" lon="4.01988">
        <ele>389.54153442383</ele>
        <time>2020-11-13T18:18:17.932Z</time>
      </trkpt>
      <trkpt lat="45.74421" lon="4.01964">
        <ele>391.1252746582</ele>
        <time>2020-11-13T18:18:26.160Z</time>
      </trkpt>
      <trkpt lat="45.74399" lon="4.01948">
        <ele>392.37307739258</ele>
        <time>2020-11-13T18:18:34.392Z</time>
      </trkpt>
      <trkpt lat="45.74382" lon="4.01938">
        <ele>393.24365234375</ele>
        <time>2020-11-13T18:18:42.627Z</time>
      </trkpt>
      <trkpt lat="45.74347" lon="4.01924">
        <ele>394.67141723633</ele>
        <time>2020-11-13T18:18:50.868Z</time>
      </trkpt>
      <trkpt lat="45.74323" lon="4.01918">
        <ele>395.60726928711</ele>
        <time>2020-11-13T18:18:59.113Z</time>
      </trkpt>
      <trkpt lat="45.74308" lon="4.01916">
        <ele>396.1711730957</ele>
        <time>2020-11-13T18:19:07.360Z</time>
      </trkpt>
      <trkpt lat="45.74276" lon="4.01915">
        <ele>396.6741027832</ele>
        <time>2020-11-13T18:19:15.612Z</time>
      </trkpt>
      <trkpt lat="45.74222" lon="4.01922">
        <ele>397.96987915039</ele>
        <time>2020-11-13T18:19:23.873Z</time>
      </trkpt>
      <trkpt lat="45.74168" lon="4.0193">
        <ele>398.14385986328</ele>
        <time>2020-11-13T18:19:32.143Z</time>
      </trkpt>
      <trkpt lat="45.74126" lon="4.01927">
        <ele>398.17987060547</ele>
        <time>2020-11-13T18:19:40.419Z</time>
      </trkpt>
      <trkpt lat="45.74093" lon="4.01917">
        <ele>398.29983520508</ele>
        <time>2020-11-13T18:19:48.701Z</time>
      </trkpt>
      <trkpt lat="45.74071" lon="4.01905">
        <ele>398.44381713867</ele>
        <time>2020-11-13T18:19:56.987Z</time>
      </trkpt>
      <trkpt lat="45.74041" lon="4.01884">
        <ele>398.69577026367</ele>
        <time>2020-11-13T18:20:05.278Z</time>
      </trkpt>
      <trkpt lat="45.7402" lon="4.01862">
        <ele>398.95971679688</ele>
        <time>2020-11-13T18:20:13.573Z</time>
      </trkpt>
      <trkpt lat="45.73983" lon="4.01812">
        <ele>399</ele>
        <time>2020-11-13T18:20:21.876Z</time>
      </trkpt>
      <trkpt lat="45.73969" lon="4.01795">
        <ele>398.97955322266</ele>
        <time>2020-11-13T18:20:30.182Z</time>
      </trkpt>
      <trkpt lat="45.73958" lon="4.01784">
        <ele>398.84759521484</ele>
        <time>2020-11-13T18:20:38.490Z</time>
      </trkpt>
      <trkpt lat="45.73953" lon="4.0178">
        <ele>398.78759765625</ele>
        <time>2020-11-13T18:20:46.799Z</time>
      </trkpt>
      <trkpt lat="45.73923" lon="4.01768">
        <ele>398.60275268555</ele>
        <time>2020-11-13T18:20:55.113Z</time>
      </trkpt>
      <trkpt lat="45.73882" lon="4.01766">
        <ele>398.03030395508</ele>
        <time>2020-11-13T18:21:03.434Z</time>
      </trkpt>
      <trkpt lat="45.7388" lon="4.01763">
        <ele>398.03030395508</ele>
        <time>2020-11-13T18:21:11.755Z</time>
      </trkpt>
      <trkpt lat="45.73876" lon="4.01759">
        <ele>397.98229980469</ele>
        <time>2020-11-13T18:21:20.077Z</time>
      </trkpt>
      <trkpt lat="45.73869" lon="4.01756">
        <ele>397.80233764648</ele>
        <time>2020-11-13T18:21:28.400Z</time>
      </trkpt>
      <trkpt lat="45.7386" lon="4.01756">
        <ele>397.47839355469</ele>
        <time>2020-11-13T18:21:36.725Z</time>
      </trkpt>
      <trkpt lat="45.73851" lon="4.01761">
        <ele>397.03448486328</ele>
        <time>2020-11-13T18:21:45.051Z</time>
      </trkpt>
      <trkpt lat="45.73845" lon="4.01771">
        <ele>396.57855224609</ele>
        <time>2020-11-13T18:21:53.379Z</time>
      </trkpt>
      <trkpt lat="45.73842" lon="4.01785">
        <ele>396.3674621582</ele>
        <time>2020-11-13T18:22:01.708Z</time>
      </trkpt>
      <trkpt lat="45.73842" lon="4.01798">
        <ele>396.3674621582</ele>
        <time>2020-11-13T18:22:10.039Z</time>
      </trkpt>
      <trkpt lat="45.73847" lon="4.0181">
        <ele>396.54742431641</ele>
        <time>2020-11-13T18:22:18.371Z</time>
      </trkpt>
      <trkpt lat="45.73858" lon="4.01825">
        <ele>396.943359375</ele>
        <time>2020-11-13T18:22:26.706Z</time>
      </trkpt>
      <trkpt lat="45.73861" lon="4.01839">
        <ele>396.97082519531</ele>
        <time>2020-11-13T18:22:35.042Z</time>
      </trkpt>
      <trkpt lat="45.73863" lon="4.01887">
        <ele>396.49090576172</ele>
        <time>2020-11-13T18:22:43.384Z</time>
      </trkpt>
      <trkpt lat="45.73865" lon="4.01899">
        <ele>396.44290161133</ele>
        <time>2020-11-13T18:22:51.727Z</time>
      </trkpt>
      <trkpt lat="45.73865" lon="4.01966">
        <ele>395.3708190918</ele>
        <time>2020-11-13T18:23:00.078Z</time>
      </trkpt>
      <trkpt lat="45.73861" lon="4.02449">
        <ele>395.36755371094</ele>
        <time>2020-11-13T18:23:08.483Z</time>
      </trkpt>
      <trkpt lat="45.73857" lon="4.03149">
        <ele>394.51831054688</ele>
        <time>2020-11-13T18:23:16.966Z</time>
      </trkpt>
      <trkpt lat="45.73856" lon="4.03475">
        <ele>393.37622070312</ele>
        <time>2020-11-13T18:23:25.486Z</time>
      </trkpt>
      <trkpt lat="45.73854" lon="4.03942">
        <ele>391.79650878906</ele>
        <time>2020-11-13T18:23:34.058Z</time>
      </trkpt>
      <trkpt lat="45.73849" lon="4.04767">
        <ele>391.53979492188</ele>
        <time>2020-11-13T18:23:42.723Z</time>
      </trkpt>
      <trkpt lat="45.73847" lon="4.05231">
        <ele>394.03161621094</ele>
        <time>2020-11-13T18:23:51.440Z</time>
      </trkpt>
      <trkpt lat="45.73844" lon="4.05382">
        <ele>394.27322387695</ele>
        <time>2020-11-13T18:24:00.174Z</time>
      </trkpt>
      <trkpt lat="45.73841" lon="4.05661">
        <ele>392.06448364258</ele>
        <time>2020-11-13T18:24:08.939Z</time>
      </trkpt>
      <trkpt lat="45.7384" lon="4.05813">
        <ele>391.59326171875</ele>
        <time>2020-11-13T18:24:17.721Z</time>
      </trkpt>
      <trkpt lat="45.7384" lon="4.05964">
        <ele>392.1923828125</ele>
        <time>2020-11-13T18:24:26.520Z</time>
      </trkpt>
      <trkpt lat="45.73842" lon="4.05978">
        <ele>391.7844543457</ele>
        <time>2020-11-13T18:24:35.320Z</time>
      </trkpt>
      <trkpt lat="45.73841" lon="4.06082">
        <ele>391.22470092773</ele>
        <time>2020-11-13T18:24:44.132Z</time>
      </trkpt>
      <trkpt lat="45.7384" lon="4.06293">
        <ele>392.16134643555</ele>
        <time>2020-11-13T18:24:52.968Z</time>
      </trkpt>
      <trkpt lat="45.73833" lon="4.073">
        <ele>389.26647949219</ele>
        <time>2020-11-13T18:25:01.917Z</time>
      </trkpt>
      <trkpt lat="45.73829" lon="4.07886">
        <ele>390.2834777832</ele>
        <time>2020-11-13T18:25:10.931Z</time>
      </trkpt>
      <trkpt lat="45.73824" lon="4.08703">
        <ele>387</ele>
        <time>2020-11-13T18:25:20.037Z</time>
      </trkpt>
      <trkpt lat="45.73822" lon="4.09074">
        <ele>386.29202270508</ele>
        <time>2020-11-13T18:25:29.184Z</time>
      </trkpt>
      <trkpt lat="45.73821" lon="4.09159">
        <ele>384.79614257812</ele>
        <time>2020-11-13T18:25:38.341Z</time>
      </trkpt>
      <trkpt lat="45.73819" lon="4.09174">
        <ele>384.82012939453</ele>
        <time>2020-11-13T18:25:47.500Z</time>
      </trkpt>
      <trkpt lat="45.73817" lon="4.09282">
        <ele>386.0654296875</ele>
        <time>2020-11-13T18:25:56.671Z</time>
      </trkpt>
      <trkpt lat="45.73816" lon="4.09548">
        <ele>383.51379394531</ele>
        <time>2020-11-13T18:26:05.872Z</time>
      </trkpt>
      <trkpt lat="45.73818" lon="4.09592">
        <ele>384.5696105957</ele>
        <time>2020-11-13T18:26:15.077Z</time>
      </trkpt>
      <trkpt lat="45.73817" lon="4.09813">
        <ele>382.71951293945</ele>
        <time>2020-11-13T18:26:24.307Z</time>
      </trkpt>
      <trkpt lat="45.73814" lon="4.10083">
        <ele>384.11987304688</ele>
        <time>2020-11-13T18:26:33.567Z</time>
      </trkpt>
      <trkpt lat="45.73813" lon="4.10383">
        <ele>383.28219604492</ele>
        <time>2020-11-13T18:26:42.861Z</time>
      </trkpt>
      <trkpt lat="45.7381" lon="4.10906">
        <ele>380.52169799805</ele>
        <time>2020-11-13T18:26:52.214Z</time>
      </trkpt>
      <trkpt lat="45.73807" lon="4.11374">
        <ele>380</ele>
        <time>2020-11-13T18:27:01.619Z</time>
      </trkpt>
      <trkpt lat="45.73803" lon="4.12086">
        <ele>378.43984985352</ele>
        <time>2020-11-13T18:27:11.104Z</time>
      </trkpt>
      <trkpt lat="45.73798" lon="4.12389">
        <ele>379.07208251953</ele>
        <time>2020-11-13T18:27:20.623Z</time>
      </trkpt>
      <trkpt lat="45.73796" lon="4.12619">
        <ele>378.20550537109</ele>
        <time>2020-11-13T18:27:30.168Z</time>
      </trkpt>
      <trkpt lat="45.73794" lon="4.13197">
        <ele>376.80471801758</ele>
        <time>2020-11-13T18:27:39.777Z</time>
      </trkpt>
      <trkpt lat="45.73791" lon="4.137">
        <ele>369.14703369141</ele>
        <time>2020-11-13T18:27:49.443Z</time>
      </trkpt>
      <trkpt lat="45.73789" lon="4.13879">
        <ele>366.43893432617</ele>
        <time>2020-11-13T18:27:59.129Z</time>
      </trkpt>
      <trkpt lat="45.73785" lon="4.14576">
        <ele>350.96102905273</ele>
        <time>2020-11-13T18:28:08.893Z</time>
      </trkpt>
      <trkpt lat="45.73782" lon="4.15163">
        <ele>342.59487915039</ele>
        <time>2020-11-13T18:28:18.723Z</time>
      </trkpt>
      <trkpt lat="45.73782" lon="4.15343">
        <ele>337.38000488281</ele>
        <time>2020-11-13T18:28:28.573Z</time>
      </trkpt>
      <trkpt lat="45.7378" lon="4.15359">
        <ele>336.78012084961</ele>
        <time>2020-11-13T18:28:38.425Z</time>
      </trkpt>
      <trkpt lat="45.7378" lon="4.15402">
        <ele>336.21875</ele>
        <time>2020-11-13T18:28:48.282Z</time>
      </trkpt>
      <trkpt lat="45.73778" lon="4.15518">
        <ele>333.80297851562</ele>
        <time>2020-11-13T18:28:58.152Z</time>
      </trkpt>
      <trkpt lat="45.73776" lon="4.15753">
        <ele>333.25497436523</ele>
        <time>2020-11-13T18:29:08.048Z</time>
      </trkpt>
      <trkpt lat="45.73776" lon="4.15986">
        <ele>333.16394042969</ele>
        <time>2020-11-13T18:29:17.970Z</time>
      </trkpt>
      <trkpt lat="45.73778" lon="4.1601">
        <ele>333</ele>
        <time>2020-11-13T18:29:27.895Z</time>
      </trkpt>
      <trkpt lat="45.73776" lon="4.16276">
        <ele>334.66394042969</ele>
        <time>2020-11-13T18:29:37.850Z</time>
      </trkpt>
      <trkpt lat="45.73773" lon="4.16553">
        <ele>331.74407958984</ele>
        <time>2020-11-13T18:29:47.836Z</time>
      </trkpt>
      <trkpt lat="45.73773" lon="4.16811">
        <ele>331.20324707031</ele>
        <time>2020-11-13T18:29:57.851Z</time>
      </trkpt>
      <trkpt lat="45.7377" lon="4.17198">
        <ele>332.95840454102</ele>
        <time>2020-11-13T18:30:07.909Z</time>
      </trkpt>
      <trkpt lat="45.7377" lon="4.17336">
        <ele>330.30267333984</ele>
        <time>2020-11-13T18:30:17.982Z</time>
      </trkpt>
      <trkpt lat="45.73768" lon="4.17507">
        <ele>333.24694824219</ele>
        <time>2020-11-13T18:30:28.075Z</time>
      </trkpt>
      <trkpt lat="45.73767" lon="4.17587">
        <ele>334.15286254883</ele>
        <time>2020-11-13T18:30:38.177Z</time>
      </trkpt>
      <trkpt lat="45.73765" lon="4.1761">
        <ele>334.45278930664</ele>
        <time>2020-11-13T18:30:48.281Z</time>
      </trkpt>
      <trkpt lat="45.73765" lon="4.17652">
        <ele>334.46801757812</ele>
        <time>2020-11-13T18:30:58.390Z</time>
      </trkpt>
      <trkpt lat="45.73767" lon="4.17724">
        <ele>334.53549194336</ele>
        <time>2020-11-13T18:31:08.507Z</time>
      </trkpt>
      <trkpt lat="45.73779" lon="4.17854">
        <ele>330.88803100586</ele>
        <time>2020-11-13T18:31:18.639Z</time>
      </trkpt>
      <trkpt lat="45.73794" lon="4.17966">
        <ele>332.24853515625</ele>
        <time>2020-11-13T18:31:28.783Z</time>
      </trkpt>
      <trkpt lat="45.73826" lon="4.18153">
        <ele>335.20843505859</ele>
        <time>2020-11-13T18:31:38.949Z</time>
      </trkpt>
      <trkpt lat="45.73859" lon="4.18361">
        <ele>335.99526977539</ele>
        <time>2020-11-13T18:31:49.139Z</time>
      </trkpt>
      <trkpt lat="45.7388" lon="4.18513">
        <ele>336.0927734375</ele>
        <time>2020-11-13T18:31:59.346Z</time>
      </trkpt>
      <trkpt lat="45.73896" lon="4.18632">
        <ele>332.36352539062</ele>
        <time>2020-11-13T18:32:09.567Z</time>
      </trkpt>
      <trkpt lat="45.73898" lon="4.18676">
        <ele>330.80377197266</ele>
        <time>2020-11-13T18:32:19.793Z</time>
      </trkpt>
      <trkpt lat="45.73892" lon="4.18705">
        <ele>329.82168579102</ele>
        <time>2020-11-13T18:32:30.022Z</time>
      </trkpt>
      <trkpt lat="45.73888" lon="4.18707">
        <ele>329.84567260742</ele>
        <time>2020-11-13T18:32:40.252Z</time>
      </trkpt>
      <trkpt lat="45.73882" lon="4.18713">
        <ele>329.65292358398</ele>
        <time>2020-11-13T18:32:50.483Z</time>
      </trkpt>
      <trkpt lat="45.73878" lon="4.18721">
        <ele>329.4609375</ele>
        <time>2020-11-13T18:33:00.715Z</time>
      </trkpt>
      <trkpt lat="45.73877" lon="4.18731">
        <ele>329.31695556641</ele>
        <time>2020-11-13T18:33:10.948Z</time>
      </trkpt>
      <trkpt lat="45.73878" lon="4.18745">
        <ele>329.17300415039</ele>
        <time>2020-11-13T18:33:21.183Z</time>
      </trkpt>
      <trkpt lat="45.73881" lon="4.18753">
        <ele>329.14898681641</ele>
        <time>2020-11-13T18:33:31.419Z</time>
      </trkpt>
      <trkpt lat="45.73887" lon="4.18759">
        <ele>329.2209777832</ele>
        <time>2020-11-13T18:33:41.656Z</time>
      </trkpt>
      <trkpt lat="45.73898" lon="4.18763">
        <ele>329.05383300781</ele>
        <time>2020-11-13T18:33:51.895Z</time>
      </trkpt>
      <trkpt lat="45.739" lon="4.18762">
        <ele>329.04180908203</ele>
        <time>2020-11-13T18:34:02.134Z</time>
      </trkpt>
      <trkpt lat="45.73908" lon="4.18772">
        <ele>328.82586669922</ele>
        <time>2020-11-13T18:34:12.375Z</time>
      </trkpt>
      <trkpt lat="45.7392" lon="4.18801">
        <ele>328.05953979492</ele>
        <time>2020-11-13T18:34:22.620Z</time>
      </trkpt>
      <trkpt lat="45.73928" lon="4.18836">
        <ele>327.12368774414</ele>
        <time>2020-11-13T18:34:32.869Z</time>
      </trkpt>
      <trkpt lat="45.73955" lon="4.18998">
        <ele>324.55041503906</ele>
        <time>2020-11-13T18:34:43.136Z</time>
      </trkpt>
      <trkpt lat="45.73991" lon="4.19162">
        <ele>324.96783447266</ele>
        <time>2020-11-13T18:34:53.423Z</time>
      </trkpt>
      <trkpt lat="45.73996" lon="4.1918">
        <ele>325.33975219727</ele>
        <time>2020-11-13T18:35:03.712Z</time>
      </trkpt>
      <trkpt lat="45.74012" lon="4.19256">
        <ele>326</ele>
        <time>2020-11-13T18:35:14.010Z</time>
      </trkpt>
      <trkpt lat="45.74125" lon="4.19802">
        <ele>326.43313598633</ele>
        <time>2020-11-13T18:35:24.372Z</time>
      </trkpt>
      <trkpt lat="45.74154" lon="4.1994">
        <ele>327.74090576172</ele>
        <time>2020-11-13T18:35:34.750Z</time>
      </trkpt>
      <trkpt lat="45.74207" lon="4.20205">
        <ele>330.43099975586</ele>
        <time>2020-11-13T18:35:45.159Z</time>
      </trkpt>
      <trkpt lat="45.74217" lon="4.20251">
        <ele>329.56713867188</ele>
        <time>2020-11-13T18:35:55.573Z</time>
      </trkpt>
      <trkpt lat="45.74247" lon="4.20395">
        <ele>326.45416259766</ele>
        <time>2020-11-13T18:36:06.004Z</time>
      </trkpt>
      <trkpt lat="45.74281" lon="4.20563">
        <ele>325.96899414062</ele>
        <time>2020-11-13T18:36:16.454Z</time>
      </trkpt>
      <trkpt lat="45.74288" lon="4.20608">
        <ele>326.34091186523</ele>
        <time>2020-11-13T18:36:26.910Z</time>
      </trkpt>
      <trkpt lat="45.7429" lon="4.20651">
        <ele>326.80883789062</ele>
        <time>2020-11-13T18:36:37.370Z</time>
      </trkpt>
      <trkpt lat="45.74289" lon="4.20674">
        <ele>327.10879516602</ele>
        <time>2020-11-13T18:36:47.833Z</time>
      </trkpt>
      <trkpt lat="45.74281" lon="4.20754">
        <ele>327.55410766602</ele>
        <time>2020-11-13T18:36:58.305Z</time>
      </trkpt>
      <trkpt lat="45.74265" lon="4.20841">
        <ele>328.65676879883</ele>
        <time>2020-11-13T18:37:08.787Z</time>
      </trkpt>
      <trkpt lat="45.74249" lon="4.2091">
        <ele>327.58743286133</ele>
        <time>2020-11-13T18:37:19.277Z</time>
      </trkpt>
      <trkpt lat="45.74238" lon="4.20956">
        <ele>326.5859375</ele>
        <time>2020-11-13T18:37:29.773Z</time>
      </trkpt>
      <trkpt lat="45.74233" lon="4.2098">
        <ele>326.70593261719</ele>
        <time>2020-11-13T18:37:40.272Z</time>
      </trkpt>
      <trkpt lat="45.74234" lon="4.21017">
        <ele>326.6819152832</ele>
        <time>2020-11-13T18:37:50.775Z</time>
      </trkpt>
      <trkpt lat="45.7425" lon="4.21177">
        <ele>324.03268432617</ele>
        <time>2020-11-13T18:38:01.296Z</time>
      </trkpt>
      <trkpt lat="45.74261" lon="4.2131">
        <ele>327.16616821289</ele>
        <time>2020-11-13T18:38:11.832Z</time>
      </trkpt>
      <trkpt lat="45.74301" lon="4.2174">
        <ele>334.64666748047</ele>
        <time>2020-11-13T18:38:22.416Z</time>
      </trkpt>
      <trkpt lat="45.74336" lon="4.22106">
        <ele>340.09399414062</ele>
        <time>2020-11-13T18:38:33.042Z</time>
      </trkpt>
      <trkpt lat="45.7434" lon="4.22143">
        <ele>341.17425537109</ele>
        <time>2020-11-13T18:38:43.672Z</time>
      </trkpt>
      <trkpt lat="45.74338" lon="4.22144">
        <ele>341.17425537109</ele>
        <time>2020-11-13T18:38:54.302Z</time>
      </trkpt>
      <trkpt lat="45.74336" lon="4.22146">
        <ele>341.1982421875</ele>
        <time>2020-11-13T18:39:04.933Z</time>
      </trkpt>
      <trkpt lat="45.74333" lon="4.22152">
        <ele>341.30624389648</ele>
        <time>2020-11-13T18:39:15.565Z</time>
      </trkpt>
      <trkpt lat="45.74334" lon="4.2216">
        <ele>341.51019287109</ele>
        <time>2020-11-13T18:39:26.197Z</time>
      </trkpt>
      <trkpt lat="45.74337" lon="4.22166">
        <ele>341.6901550293</ele>
        <time>2020-11-13T18:39:36.830Z</time>
      </trkpt>
      <trkpt lat="45.74343" lon="4.22168">
        <ele>341.81015014648</ele>
        <time>2020-11-13T18:39:47.464Z</time>
      </trkpt>
      <trkpt lat="45.74347" lon="4.22191">
        <ele>342.41003417969</ele>
        <time>2020-11-13T18:39:58.101Z</time>
      </trkpt>
      <trkpt lat="45.74351" lon="4.22242">
        <ele>343.12231445312</ele>
        <time>2020-11-13T18:40:08.744Z</time>
      </trkpt>
      <trkpt lat="45.74367" lon="4.22399">
        <ele>344</ele>
        <time>2020-11-13T18:40:19.404Z</time>
      </trkpt>
      <trkpt lat="45.7438" lon="4.22542">
        <ele>343.26776123047</ele>
        <time>2020-11-13T18:40:30.081Z</time>
      </trkpt>
      <trkpt lat="45.74384" lon="4.22587">
        <ele>343.12377929688</ele>
        <time>2020-11-13T18:40:40.763Z</time>
      </trkpt>
      <trkpt lat="45.74381" lon="4.22588">
        <ele>343.23178100586</ele>
        <time>2020-11-13T18:40:51.445Z</time>
      </trkpt>
      <trkpt lat="45.74379" lon="4.2259">
        <ele>343.30377197266</ele>
        <time>2020-11-13T18:41:02.128Z</time>
      </trkpt>
      <trkpt lat="45.74377" lon="4.22597">
        <ele>343.37573242188</ele>
        <time>2020-11-13T18:41:12.811Z</time>
      </trkpt>
      <trkpt lat="45.74378" lon="4.22604">
        <ele>343.33975219727</ele>
        <time>2020-11-13T18:41:23.495Z</time>
      </trkpt>
      <trkpt lat="45.74381" lon="4.2261">
        <ele>343.23178100586</ele>
        <time>2020-11-13T18:41:34.180Z</time>
      </trkpt>
      <trkpt lat="45.74387" lon="4.22611">
        <ele>343.01580810547</ele>
        <time>2020-11-13T18:41:44.866Z</time>
      </trkpt>
      <trkpt lat="45.74388" lon="4.22611">
        <ele>342.99325561523</ele>
        <time>2020-11-13T18:41:55.552Z</time>
      </trkpt>
      <trkpt lat="45.74407" lon="4.2283">
        <ele>343.85504150391</ele>
        <time>2020-11-13T18:42:06.263Z</time>
      </trkpt>
      <trkpt lat="45.74428" lon="4.23029">
        <ele>343.97329711914</ele>
        <time>2020-11-13T18:42:16.996Z</time>
      </trkpt>
      <trkpt lat="45.74434" lon="4.23097">
        <ele>344.63562011719</ele>
        <time>2020-11-13T18:42:27.737Z</time>
      </trkpt>
      <trkpt lat="45.74435" lon="4.23166">
        <ele>347.4326171875</ele>
        <time>2020-11-13T18:42:38.486Z</time>
      </trkpt>
      <trkpt lat="45.74428" lon="4.23233">
        <ele>347.97329711914</ele>
        <time>2020-11-13T18:42:49.242Z</time>
      </trkpt>
      <trkpt lat="45.74408" lon="4.23326">
        <ele>345.43466186523</ele>
        <time>2020-11-13T18:43:00.009Z</time>
      </trkpt>
      <trkpt lat="45.74339" lon="4.23608">
        <ele>345.47003173828</ele>
        <time>2020-11-13T18:43:10.810Z</time>
      </trkpt>
      <trkpt lat="45.74217" lon="4.24115">
        <ele>344.07669067383</ele>
        <time>2020-11-13T18:43:21.671Z</time>
      </trkpt>
      <trkpt lat="45.74179" lon="4.24301">
        <ele>347.02935791016</ele>
        <time>2020-11-13T18:43:32.554Z</time>
      </trkpt>
      <trkpt lat="45.74117" lon="4.24639">
        <ele>347.24472045898</ele>
        <time>2020-11-13T18:43:43.476Z</time>
      </trkpt>
      <trkpt lat="45.74097" lon="4.24772">
        <ele>349.28298950195</ele>
        <time>2020-11-13T18:43:54.413Z</time>
      </trkpt>
      <trkpt lat="45.74053" lon="4.2515">
        <ele>350</ele>
        <time>2020-11-13T18:44:05.393Z</time>
      </trkpt>
      <trkpt lat="45.74037" lon="4.25281">
        <ele>349.97857666016</ele>
        <time>2020-11-13T18:44:16.388Z</time>
      </trkpt>
      <trkpt lat="45.74031" lon="4.25323">
        <ele>349.47463989258</ele>
        <time>2020-11-13T18:44:27.388Z</time>
      </trkpt>
      <trkpt lat="45.73907" lon="4.25859">
        <ele>353.48489379883</ele>
        <time>2020-11-13T18:44:38.451Z</time>
      </trkpt>
      <trkpt lat="45.73901" lon="4.25882">
        <ele>353.60406494141</ele>
        <time>2020-11-13T18:44:49.517Z</time>
      </trkpt>
      <trkpt lat="45.73853" lon="4.26089">
        <ele>353.54022216797</ele>
        <time>2020-11-13T18:45:00.607Z</time>
      </trkpt>
      <trkpt lat="45.73834" lon="4.26173">
        <ele>354.27633666992</ele>
        <time>2020-11-13T18:45:11.707Z</time>
      </trkpt>
      <trkpt lat="45.7383" lon="4.26188">
        <ele>354.09637451172</ele>
        <time>2020-11-13T18:45:22.809Z</time>
      </trkpt>
      <trkpt lat="45.73838" lon="4.26192">
        <ele>354.04837036133</ele>
        <time>2020-11-13T18:45:33.912Z</time>
      </trkpt>
      <trkpt lat="45.73869" lon="4.26202">
        <ele>354.14318847656</ele>
        <time>2020-11-13T18:45:45.020Z</time>
      </trkpt>
      <trkpt lat="45.73881" lon="4.26207">
        <ele>354.26318359375</ele>
        <time>2020-11-13T18:45:56.130Z</time>
      </trkpt>
      <trkpt lat="45.73903" lon="4.26222">
        <ele>354.43542480469</ele>
        <time>2020-11-13T18:46:07.244Z</time>
      </trkpt>
      <trkpt lat="45.73915" lon="4.26235">
        <ele>354.60339355469</ele>
        <time>2020-11-13T18:46:18.361Z</time>
      </trkpt>
      <trkpt lat="45.73925" lon="4.2625">
        <ele>354.84335327148</ele>
        <time>2020-11-13T18:46:29.480Z</time>
      </trkpt>
      <trkpt lat="45.73935" lon="4.26271">
        <ele>355.22729492188</ele>
        <time>2020-11-13T18:46:40.602Z</time>
      </trkpt>
      <trkpt lat="45.73943" lon="4.26282">
        <ele>355.33236694336</ele>
        <time>2020-11-13T18:46:51.726Z</time>
      </trkpt>
      <trkpt lat="45.73966" lon="4.26349">
        <ele>355.05642700195</ele>
        <time>2020-11-13T18:47:02.858Z</time>
      </trkpt>
      <trkpt lat="45.74062" lon="4.26623">
        <ele>354.31350708008</ele>
        <time>2020-11-13T18:47:14.024Z</time>
      </trkpt>
      <trkpt lat="45.74119" lon="4.2679">
        <ele>357.33779907227</ele>
        <time>2020-11-13T18:47:25.211Z</time>
      </trkpt>
      <trkpt lat="45.74151" lon="4.26882">
        <ele>358.35552978516</ele>
        <time>2020-11-13T18:47:36.410Z</time>
      </trkpt>
      <trkpt lat="45.74183" lon="4.26959">
        <ele>357.81118774414</ele>
        <time>2020-11-13T18:47:47.619Z</time>
      </trkpt>
      <trkpt lat="45.74244" lon="4.2708">
        <ele>353.55709838867</ele>
        <time>2020-11-13T18:47:58.844Z</time>
      </trkpt>
      <trkpt lat="45.74278" lon="4.27148">
        <ele>351.51745605469</ele>
        <time>2020-11-13T18:48:10.079Z</time>
      </trkpt>
      <trkpt lat="45.74313" lon="4.27226">
        <ele>349.89312744141</ele>
        <time>2020-11-13T18:48:21.324Z</time>
      </trkpt>
      <trkpt lat="45.74337" lon="4.27292">
        <ele>349.45574951172</ele>
        <time>2020-11-13T18:48:32.577Z</time>
      </trkpt>
      <trkpt lat="45.74345" lon="4.27332">
        <ele>348.74133300781</ele>
        <time>2020-11-13T18:48:43.835Z</time>
      </trkpt>
      <trkpt lat="45.74347" lon="4.27354">
        <ele>348.21340942383</ele>
        <time>2020-11-13T18:48:55.096Z</time>
      </trkpt>
      <trkpt lat="45.7435" lon="4.27414">
        <ele>349.16397094727</ele>
        <time>2020-11-13T18:49:06.363Z</time>
      </trkpt>
      <trkpt lat="45.74349" lon="4.27447">
        <ele>349.52969360352</ele>
        <time>2020-11-13T18:49:17.634Z</time>
      </trkpt>
      <trkpt lat="45.74346" lon="4.27475">
        <ele>349.15777587891</ele>
        <time>2020-11-13T18:49:28.908Z</time>
      </trkpt>
      <trkpt lat="45.74331" lon="4.27546">
        <ele>349.59072875977</ele>
        <time>2020-11-13T18:49:40.190Z</time>
      </trkpt>
      <trkpt lat="45.7432" lon="4.27588">
        <ele>350.08255004883</ele>
        <time>2020-11-13T18:49:51.478Z</time>
      </trkpt>
      <trkpt lat="45.74292" lon="4.27666">
        <ele>350.78173828125</ele>
        <time>2020-11-13T18:50:02.775Z</time>
      </trkpt>
      <trkpt lat="45.74256" lon="4.27767">
        <ele>352.72607421875</ele>
        <time>2020-11-13T18:50:14.085Z</time>
      </trkpt>
      <trkpt lat="45.74246" lon="4.27802">
        <ele>353.10821533203</ele>
        <time>2020-11-13T18:50:25.399Z</time>
      </trkpt>
      <trkpt lat="45.74222" lon="4.27899">
        <ele>355.86441040039</ele>
        <time>2020-11-13T18:50:36.725Z</time>
      </trkpt>
      <trkpt lat="45.74208" lon="4.27946">
        <ele>356.08642578125</ele>
        <time>2020-11-13T18:50:48.057Z</time>
      </trkpt>
      <trkpt lat="45.7419" lon="4.27994">
        <ele>354.78674316406</ele>
        <time>2020-11-13T18:50:59.395Z</time>
      </trkpt>
      <trkpt lat="45.74163" lon="4.2807">
        <ele>354.40539550781</ele>
        <time>2020-11-13T18:51:10.742Z</time>
      </trkpt>
      <trkpt lat="45.74148" lon="4.28131">
        <ele>354.7744140625</ele>
        <time>2020-11-13T18:51:22.096Z</time>
      </trkpt>
      <trkpt lat="45.74136" lon="4.28201">
        <ele>357.06091308594</ele>
        <time>2020-11-13T18:51:33.459Z</time>
      </trkpt>
      <trkpt lat="45.74116" lon="4.28353">
        <ele>359.36584472656</ele>
        <time>2020-11-13T18:51:44.839Z</time>
      </trkpt>
      <trkpt lat="45.74099" lon="4.28481">
        <ele>364.15380859375</ele>
        <time>2020-11-13T18:51:56.233Z</time>
      </trkpt>
      <trkpt lat="45.74078" lon="4.28598">
        <ele>368.46786499023</ele>
        <time>2020-11-13T18:52:07.641Z</time>
      </trkpt>
      <trkpt lat="45.74005" lon="4.28752">
        <ele>376.83792114258</ele>
        <time>2020-11-13T18:52:19.070Z</time>
      </trkpt>
      <trkpt lat="45.73975" lon="4.28826">
        <ele>378.3112487793</ele>
        <time>2020-11-13T18:52:30.508Z</time>
      </trkpt>
      <trkpt lat="45.7397" lon="4.28848">
        <ele>379.44522094727</ele>
        <time>2020-11-13T18:52:41.949Z</time>
      </trkpt>
      <trkpt lat="45.73967" lon="4.28869">
        <ele>380.6662902832</ele>
        <time>2020-11-13T18:52:53.392Z</time>
      </trkpt>
      <trkpt lat="45.73966" lon="4.28936">
        <ele>385.28552246094</ele>
        <time>2020-11-13T18:53:04.843Z</time>
      </trkpt>
      <trkpt lat="45.73971" lon="4.29092">
        <ele>395.2848815918</ele>
        <time>2020-11-13T18:53:16.311Z</time>
      </trkpt>
      <trkpt lat="45.73979" lon="4.29146">
        <ele>399.28512573242</ele>
        <time>2020-11-13T18:53:27.786Z</time>
      </trkpt>
      <trkpt lat="45.73986" lon="4.29191">
        <ele>401.42074584961</ele>
        <time>2020-11-13T18:53:39.266Z</time>
      </trkpt>
      <trkpt lat="45.73986" lon="4.29215">
        <ele>399.75924682617</ele>
        <time>2020-11-13T18:53:50.748Z</time>
      </trkpt>
      <trkpt lat="45.73986" lon="4.29227">
        <ele>399.47131347656</ele>
        <time>2020-11-13T18:54:02.232Z</time>
      </trkpt>
      <trkpt lat="45.73981" lon="4.29244">
        <ele>398.34350585938</ele>
        <time>2020-11-13T18:54:13.718Z</time>
      </trkpt>
      <trkpt lat="45.73968" lon="4.29271">
        <ele>395.56448364258</ele>
        <time>2020-11-13T18:54:25.208Z</time>
      </trkpt>
      <trkpt lat="45.73956" lon="4.29286">
        <ele>394.51443481445</ele>
        <time>2020-11-13T18:54:36.700Z</time>
      </trkpt>
      <trkpt lat="45.73926" lon="4.29311">
        <ele>393.13467407227</ele>
        <time>2020-11-13T18:54:48.198Z</time>
      </trkpt>
      <trkpt lat="45.73889" lon="4.29347">
        <ele>392.11483764648</ele>
        <time>2020-11-13T18:54:59.703Z</time>
      </trkpt>
      <trkpt lat="45.73876" lon="4.29369">
        <ele>393.19619750977</ele>
        <time>2020-11-13T18:55:11.211Z</time>
      </trkpt>
      <trkpt lat="45.73867" lon="4.29395">
        <ele>395.64379882812</ele>
        <time>2020-11-13T18:55:22.722Z</time>
      </trkpt>
      <trkpt lat="45.73864" lon="4.29418">
        <ele>398.52331542969</ele>
        <time>2020-11-13T18:55:34.236Z</time>
      </trkpt>
      <trkpt lat="45.73865" lon="4.29441">
        <ele>400.5693359375</ele>
        <time>2020-11-13T18:55:45.752Z</time>
      </trkpt>
      <trkpt lat="45.7387" lon="4.29463">
        <ele>402.43768310547</ele>
        <time>2020-11-13T18:55:57.271Z</time>
      </trkpt>
      <trkpt lat="45.73884" lon="4.29498">
        <ele>406.4690246582</ele>
        <time>2020-11-13T18:56:08.795Z</time>
      </trkpt>
      <trkpt lat="45.73965" lon="4.29652">
        <ele>417.91394042969</ele>
        <time>2020-11-13T18:56:20.340Z</time>
      </trkpt>
      <trkpt lat="45.74013" lon="4.29742">
        <ele>420.21188354492</ele>
        <time>2020-11-13T18:56:31.898Z</time>
      </trkpt>
      <trkpt lat="45.74055" lon="4.29804">
        <ele>422.4446105957</ele>
        <time>2020-11-13T18:56:43.466Z</time>
      </trkpt>
      <trkpt lat="45.74086" lon="4.29836">
        <ele>423.77639770508</ele>
        <time>2020-11-13T18:56:55.040Z</time>
      </trkpt>
      <trkpt lat="45.74104" lon="4.29848">
        <ele>425.57608032227</ele>
        <time>2020-11-13T18:57:06.617Z</time>
      </trkpt>
      <trkpt lat="45.74126" lon="4.2986">
        <ele>428.19165039062</ele>
        <time>2020-11-13T18:57:18.198Z</time>
      </trkpt>
      <trkpt lat="45.74141" lon="4.29866">
        <ele>429.36614990234</ele>
        <time>2020-11-13T18:57:29.781Z</time>
      </trkpt>
      <trkpt lat="45.74165" lon="4.29872">
        <ele>428.71826171875</ele>
        <time>2020-11-13T18:57:41.368Z</time>
      </trkpt>
      <trkpt lat="45.74197" lon="4.29874">
        <ele>429.65411376953</ele>
        <time>2020-11-13T18:57:52.960Z</time>
      </trkpt>
      <trkpt lat="45.74263" lon="4.29866">
        <ele>433.79702758789</ele>
        <time>2020-11-13T18:58:04.563Z</time>
      </trkpt>
      <trkpt lat="45.74313" lon="4.29861">
        <ele>436.99926757812</ele>
        <time>2020-11-13T18:58:16.174Z</time>
      </trkpt>
      <trkpt lat="45.74327" lon="4.29861">
        <ele>439.18292236328</ele>
        <time>2020-11-13T18:58:27.787Z</time>
      </trkpt>
      <trkpt lat="45.74333" lon="4.29863">
        <ele>439.59085083008</ele>
        <time>2020-11-13T18:58:39.401Z</time>
      </trkpt>
      <trkpt lat="45.74356" lon="4.29874">
        <ele>440.916015625</ele>
        <time>2020-11-13T18:58:51.019Z</time>
      </trkpt>
      <trkpt lat="45.74371" lon="4.29887">
        <ele>440.60406494141</ele>
        <time>2020-11-13T18:59:02.640Z</time>
      </trkpt>
      <trkpt lat="45.74385" lon="4.29903">
        <ele>439.52423095703</ele>
        <time>2020-11-13T18:59:14.264Z</time>
      </trkpt>
      <trkpt lat="45.7439" lon="4.29913">
        <ele>438.44879150391</ele>
        <time>2020-11-13T18:59:25.889Z</time>
      </trkpt>
      <trkpt lat="45.74393" lon="4.29921">
        <ele>437.50094604492</ele>
        <time>2020-11-13T18:59:37.515Z</time>
      </trkpt>
      <trkpt lat="45.74403" lon="4.29951">
        <ele>434.75570678711</ele>
        <time>2020-11-13T18:59:49.145Z</time>
      </trkpt>
      <trkpt lat="45.74405" lon="4.29959">
        <ele>435.59555053711</ele>
        <time>2020-11-13T19:00:00.776Z</time>
      </trkpt>
      <trkpt lat="45.7443" lon="4.30052">
        <ele>439.88040161133</ele>
        <time>2020-11-13T19:00:12.418Z</time>
      </trkpt>
      <trkpt lat="45.74439" lon="4.30078">
        <ele>439.66445922852</ele>
        <time>2020-11-13T19:00:24.063Z</time>
      </trkpt>
      <trkpt lat="45.74455" lon="4.3011">
        <ele>441.26382446289</ele>
        <time>2020-11-13T19:00:35.712Z</time>
      </trkpt>
      <trkpt lat="45.74468" lon="4.30128">
        <ele>442.71624755859</ele>
        <time>2020-11-13T19:00:47.364Z</time>
      </trkpt>
      <trkpt lat="45.74483" lon="4.30143">
        <ele>441.65200805664</ele>
        <time>2020-11-13T19:00:59.019Z</time>
      </trkpt>
      <trkpt lat="45.74504" lon="4.30156">
        <ele>439.99630737305</ele>
        <time>2020-11-13T19:01:10.678Z</time>
      </trkpt>
      <trkpt lat="45.74525" lon="4.30162">
        <ele>439.83099365234</ele>
        <time>2020-11-13T19:01:22.340Z</time>
      </trkpt>
      <trkpt lat="45.74559" lon="4.30161">
        <ele>443.56640625</ele>
        <time>2020-11-13T19:01:34.008Z</time>
      </trkpt>
      <trkpt lat="45.74624" lon="4.30141">
        <ele>450.39175415039</ele>
        <time>2020-11-13T19:01:45.686Z</time>
      </trkpt>
      <trkpt lat="45.74672" lon="4.30132">
        <ele>455.09652709961</ele>
        <time>2020-11-13T19:01:57.372Z</time>
      </trkpt>
      <trkpt lat="45.74689" lon="4.30133">
        <ele>455.43246459961</ele>
        <time>2020-11-13T19:02:09.061Z</time>
      </trkpt>
      <trkpt lat="45.74726" lon="4.30147">
        <ele>453.52142333984</ele>
        <time>2020-11-13T19:02:20.756Z</time>
      </trkpt>
      <trkpt lat="45.7477" lon="4.30164">
        <ele>455.69305419922</ele>
        <time>2020-11-13T19:02:32.458Z</time>
      </trkpt>
      <trkpt lat="45.748" lon="4.30173">
        <ele>456.48318481445</ele>
        <time>2020-11-13T19:02:44.165Z</time>
      </trkpt>
      <trkpt lat="45.74834" lon="4.30181">
        <ele>458.78048706055</ele>
        <time>2020-11-13T19:02:55.878Z</time>
      </trkpt>
      <trkpt lat="45.74855" lon="4.30188">
        <ele>459.87231445312</ele>
        <time>2020-11-13T19:03:07.594Z</time>
      </trkpt>
      <trkpt lat="45.7487" lon="4.30194">
        <ele>460.44821166992</ele>
        <time>2020-11-13T19:03:19.313Z</time>
      </trkpt>
      <trkpt lat="45.74879" lon="4.302">
        <ele>460.54187011719</ele>
        <time>2020-11-13T19:03:31.033Z</time>
      </trkpt>
      <trkpt lat="45.74894" lon="4.30213">
        <ele>461.55847167969</ele>
        <time>2020-11-13T19:03:42.756Z</time>
      </trkpt>
      <trkpt lat="45.74906" lon="4.30228">
        <ele>462.74624633789</ele>
        <time>2020-11-13T19:03:54.482Z</time>
      </trkpt>
      <trkpt lat="45.74927" lon="4.30265">
        <ele>463.40615844727</ele>
        <time>2020-11-13T19:04:06.213Z</time>
      </trkpt>
      <trkpt lat="45.74965" lon="4.3036">
        <ele>467.64324951172</ele>
        <time>2020-11-13T19:04:17.956Z</time>
      </trkpt>
      <trkpt lat="45.7498" lon="4.30381">
        <ele>467.90490722656</ele>
        <time>2020-11-13T19:04:29.703Z</time>
      </trkpt>
      <trkpt lat="45.75013" lon="4.30418">
        <ele>468.42083740234</ele>
        <time>2020-11-13T19:04:41.456Z</time>
      </trkpt>
      <trkpt lat="45.75037" lon="4.30449">
        <ele>468.2444152832</ele>
        <time>2020-11-13T19:04:53.214Z</time>
      </trkpt>
      <trkpt lat="45.75047" lon="4.30464">
        <ele>468.6643371582</ele>
        <time>2020-11-13T19:05:04.975Z</time>
      </trkpt>
      <trkpt lat="45.75063" lon="4.30506">
        <ele>467.07641601562</ele>
        <time>2020-11-13T19:05:16.741Z</time>
      </trkpt>
      <trkpt lat="45.75127" lon="4.30735">
        <ele>464.3522644043</ele>
        <time>2020-11-13T19:05:28.535Z</time>
      </trkpt>
      <trkpt lat="45.75131" lon="4.30745">
        <ele>464.97616577148</ele>
        <time>2020-11-13T19:05:40.330Z</time>
      </trkpt>
      <trkpt lat="45.75124" lon="4.30758">
        <ele>463.88433837891</ele>
        <time>2020-11-13T19:05:52.127Z</time>
      </trkpt>
      <trkpt lat="45.75122" lon="4.30768">
        <ele>463.53118896484</ele>
        <time>2020-11-13T19:06:03.925Z</time>
      </trkpt>
      <trkpt lat="45.75124" lon="4.30793">
        <ele>463.41278076172</ele>
        <time>2020-11-13T19:06:15.726Z</time>
      </trkpt>
      <trkpt lat="45.75141" lon="4.30893">
        <ele>463.70379638672</ele>
        <time>2020-11-13T19:06:27.538Z</time>
      </trkpt>
      <trkpt lat="45.75144" lon="4.30939">
        <ele>462.95993041992</ele>
        <time>2020-11-13T19:06:39.356Z</time>
      </trkpt>
      <trkpt lat="45.75143" lon="4.3095">
        <ele>462.80459594727</ele>
        <time>2020-11-13T19:06:51.175Z</time>
      </trkpt>
      <trkpt lat="45.75141" lon="4.30979">
        <ele>463.6116027832</ele>
        <time>2020-11-13T19:07:02.997Z</time>
      </trkpt>
      <trkpt lat="45.75141" lon="4.31003">
        <ele>464.47546386719</ele>
        <time>2020-11-13T19:07:14.822Z</time>
      </trkpt>
      <trkpt lat="45.75144" lon="4.31034">
        <ele>465.89532470703</ele>
        <time>2020-11-13T19:07:26.650Z</time>
      </trkpt>
      <trkpt lat="45.75153" lon="4.31065">
        <ele>466.2917175293</ele>
        <time>2020-11-13T19:07:38.482Z</time>
      </trkpt>
      <trkpt lat="45.75166" lon="4.31096">
        <ele>467.2995300293</ele>
        <time>2020-11-13T19:07:50.318Z</time>
      </trkpt>
      <trkpt lat="45.75176" lon="4.31111">
        <ele>468.49932861328</ele>
        <time>2020-11-13T19:08:02.156Z</time>
      </trkpt>
      <trkpt lat="45.75193" lon="4.31126">
        <ele>469.24591064453</ele>
        <time>2020-11-13T19:08:13.998Z</time>
      </trkpt>
      <trkpt lat="45.75248" lon="4.31163">
        <ele>470.75128173828</ele>
        <time>2020-11-13T19:08:25.849Z</time>
      </trkpt>
      <trkpt lat="45.75264" lon="4.31175">
        <ele>470.36734008789</ele>
        <time>2020-11-13T19:08:37.703Z</time>
      </trkpt>
      <trkpt lat="45.75276" lon="4.3119">
        <ele>468.92758178711</ele>
        <time>2020-11-13T19:08:49.560Z</time>
      </trkpt>
      <trkpt lat="45.75289" lon="4.31211">
        <ele>466.62557983398</ele>
        <time>2020-11-13T19:09:01.420Z</time>
      </trkpt>
      <trkpt lat="45.75296" lon="4.31229">
        <ele>464.22598266602</ele>
        <time>2020-11-13T19:09:13.282Z</time>
      </trkpt>
      <trkpt lat="45.75311" lon="4.3127">
        <ele>458.9704284668</ele>
        <time>2020-11-13T19:09:25.149Z</time>
      </trkpt>
      <trkpt lat="45.75317" lon="4.31286">
        <ele>457.7236328125</ele>
        <time>2020-11-13T19:09:37.018Z</time>
      </trkpt>
      <trkpt lat="45.7536" lon="4.31395">
        <ele>458.04736328125</ele>
        <time>2020-11-13T19:09:48.901Z</time>
      </trkpt>
      <trkpt lat="45.75367" lon="4.31419">
        <ele>456.87158203125</ele>
        <time>2020-11-13T19:10:00.787Z</time>
      </trkpt>
      <trkpt lat="45.75382" lon="4.31502">
        <ele>455.40896606445</ele>
        <time>2020-11-13T19:10:12.683Z</time>
      </trkpt>
      <trkpt lat="45.75388" lon="4.31548">
        <ele>455.89892578125</ele>
        <time>2020-11-13T19:10:24.584Z</time>
      </trkpt>
      <trkpt lat="45.75394" lon="4.31566">
        <ele>457.48266601562</ele>
        <time>2020-11-13T19:10:36.487Z</time>
      </trkpt>
      <trkpt lat="45.7543" lon="4.31639">
        <ele>465.91479492188</ele>
        <time>2020-11-13T19:10:48.400Z</time>
      </trkpt>
      <trkpt lat="45.75437" lon="4.31664">
        <ele>468.494140625</ele>
        <time>2020-11-13T19:11:00.317Z</time>
      </trkpt>
      <trkpt lat="45.75442" lon="4.3169">
        <ele>469.70596313477</ele>
        <time>2020-11-13T19:11:12.237Z</time>
      </trkpt>
      <trkpt lat="45.75436" lon="4.31736">
        <ele>473.86334228516</ele>
        <time>2020-11-13T19:11:24.162Z</time>
      </trkpt>
      <trkpt lat="45.75427" lon="4.31785">
        <ele>474.96267700195</ele>
        <time>2020-11-13T19:11:36.092Z</time>
      </trkpt>
      <trkpt lat="45.7542" lon="4.31815">
        <ele>476.57583618164</ele>
        <time>2020-11-13T19:11:48.026Z</time>
      </trkpt>
      <trkpt lat="45.75412" lon="4.31876">
        <ele>478.08840942383</ele>
        <time>2020-11-13T19:11:59.967Z</time>
      </trkpt>
      <trkpt lat="45.75411" lon="4.3192">
        <ele>480.01037597656</ele>
        <time>2020-11-13T19:12:11.913Z</time>
      </trkpt>
      <trkpt lat="45.75421" lon="4.31987">
        <ele>484.49993896484</ele>
        <time>2020-11-13T19:12:23.867Z</time>
      </trkpt>
      <trkpt lat="45.75425" lon="4.3201">
        <ele>486.21566772461</ele>
        <time>2020-11-13T19:12:35.823Z</time>
      </trkpt>
      <trkpt lat="45.75446" lon="4.32109">
        <ele>486.25387573242</ele>
        <time>2020-11-13T19:12:47.791Z</time>
      </trkpt>
      <trkpt lat="45.7545" lon="4.32144">
        <ele>482.48406982422</ele>
        <time>2020-11-13T19:12:59.763Z</time>
      </trkpt>
      <trkpt lat="45.7545" lon="4.32186">
        <ele>477.00439453125</ele>
        <time>2020-11-13T19:13:11.739Z</time>
      </trkpt>
      <trkpt lat="45.75448" lon="4.32214">
        <ele>476.45013427734</ele>
        <time>2020-11-13T19:13:23.719Z</time>
      </trkpt>
      <trkpt lat="45.75446" lon="4.32247">
        <ele>476.81005859375</ele>
        <time>2020-11-13T19:13:35.702Z</time>
      </trkpt>
      <trkpt lat="45.75443" lon="4.3228">
        <ele>476.95404052734</ele>
        <time>2020-11-13T19:13:47.689Z</time>
      </trkpt>
      <trkpt lat="45.75439" lon="4.32302">
        <ele>477.91510009766</ele>
        <time>2020-11-13T19:13:59.679Z</time>
      </trkpt>
      <trkpt lat="45.75433" lon="4.3232">
        <ele>478.13107299805</ele>
        <time>2020-11-13T19:14:11.671Z</time>
      </trkpt>
      <trkpt lat="45.75414" lon="4.32379">
        <ele>475.88314819336</ele>
        <time>2020-11-13T19:14:23.670Z</time>
      </trkpt>
      <trkpt lat="45.75412" lon="4.32393">
        <ele>476.13656616211</ele>
        <time>2020-11-13T19:14:35.671Z</time>
      </trkpt>
      <trkpt lat="45.75413" lon="4.32459">
        <ele>478.29220581055</ele>
        <time>2020-11-13T19:14:47.679Z</time>
      </trkpt>
      <trkpt lat="45.75408" lon="4.32508">
        <ele>474.45922851562</ele>
        <time>2020-11-13T19:14:59.693Z</time>
      </trkpt>
      <trkpt lat="45.75378" lon="4.32731">
        <ele>473.19958496094</ele>
        <time>2020-11-13T19:15:11.732Z</time>
      </trkpt>
      <trkpt lat="45.75366" lon="4.32865">
        <ele>471.84646606445</ele>
        <time>2020-11-13T19:15:23.786Z</time>
      </trkpt>
      <trkpt lat="45.75365" lon="4.32903">
        <ele>470.33471679688</ele>
        <time>2020-11-13T19:15:35.845Z</time>
      </trkpt>
      <trkpt lat="45.75379" lon="4.32959">
        <ele>470.54122924805</ele>
        <time>2020-11-13T19:15:47.910Z</time>
      </trkpt>
      <trkpt lat="45.75407" lon="4.33054">
        <ele>471.92660522461</ele>
        <time>2020-11-13T19:15:59.987Z</time>
      </trkpt>
      <trkpt lat="45.7542" lon="4.3311">
        <ele>472.92242431641</ele>
        <time>2020-11-13T19:16:12.070Z</time>
      </trkpt>
      <trkpt lat="45.75426" lon="4.3316">
        <ele>471.05285644531</ele>
        <time>2020-11-13T19:16:24.159Z</time>
      </trkpt>
      <trkpt lat="45.75432" lon="4.33235">
        <ele>470.87289428711</ele>
        <time>2020-11-13T19:16:36.256Z</time>
      </trkpt>
      <trkpt lat="45.75441" lon="4.33278">
        <ele>471.10797119141</ele>
        <time>2020-11-13T19:16:48.358Z</time>
      </trkpt>
      <trkpt lat="45.75456" lon="4.33318">
        <ele>472.57717895508</ele>
        <time>2020-11-13T19:17:00.466Z</time>
      </trkpt>
      <trkpt lat="45.75477" lon="4.33354">
        <ele>474.98931884766</ele>
        <time>2020-11-13T19:17:12.579Z</time>
      </trkpt>
      <trkpt lat="45.75521" lon="4.3342">
        <ele>476.71151733398</ele>
        <time>2020-11-13T19:17:24.702Z</time>
      </trkpt>
      <trkpt lat="45.75542" lon="4.33452">
        <ele>477.44338989258</ele>
        <time>2020-11-13T19:17:36.830Z</time>
      </trkpt>
      <trkpt lat="45.75556" lon="4.33479">
        <ele>477.7409362793</ele>
        <time>2020-11-13T19:17:48.962Z</time>
      </trkpt>
      <trkpt lat="45.75576" lon="4.33549">
        <ele>477.5009765625</ele>
        <time>2020-11-13T19:18:01.102Z</time>
      </trkpt>
      <trkpt lat="45.75593" lon="4.3361">
        <ele>477.22503662109</ele>
        <time>2020-11-13T19:18:13.250Z</time>
      </trkpt>
      <trkpt lat="45.756" lon="4.33636">
        <ele>476.53958129883</ele>
        <time>2020-11-13T19:18:25.401Z</time>
      </trkpt>
      <trkpt lat="45.75623" lon="4.33618">
        <ele>481.42279052734</ele>
        <time>2020-11-13T19:18:37.556Z</time>
      </trkpt>
      <trkpt lat="45.75658" lon="4.33589">
        <ele>487.39440917969</ele>
        <time>2020-11-13T19:18:49.717Z</time>
      </trkpt>
      <trkpt lat="45.75623" lon="4.33618">
        <ele>481.42279052734</ele>
        <time>2020-11-13T19:19:01.885Z</time>
      </trkpt>
      <trkpt lat="45.756" lon="4.33636">
        <ele>476.53958129883</ele>
        <time>2020-11-13T19:19:14.057Z</time>
      </trkpt>
      <trkpt lat="45.75612" lon="4.33668">
        <ele>476.10766601562</ele>
        <time>2020-11-13T19:19:26.233Z</time>
      </trkpt>
      <trkpt lat="45.75628" lon="4.33703">
        <ele>476.13082885742</ele>
        <time>2020-11-13T19:19:38.414Z</time>
      </trkpt>
      <trkpt lat="45.75648" lon="4.33736">
        <ele>475.86618041992</ele>
        <time>2020-11-13T19:19:50.600Z</time>
      </trkpt>
      <trkpt lat="45.75682" lon="4.33785">
        <ele>475.73684692383</ele>
        <time>2020-11-13T19:20:02.793Z</time>
      </trkpt>
      <trkpt lat="45.75746" lon="4.33885">
        <ele>478.5910949707</ele>
        <time>2020-11-13T19:20:15.002Z</time>
      </trkpt>
      <trkpt lat="45.75812" lon="4.33982">
        <ele>476.80596923828</ele>
        <time>2020-11-13T19:20:27.226Z</time>
      </trkpt>
      <trkpt lat="45.75851" lon="4.34042">
        <ele>480.32583618164</ele>
        <time>2020-11-13T19:20:39.459Z</time>
      </trkpt>
      <trkpt lat="45.75861" lon="4.34057">
        <ele>480.08587646484</ele>
        <time>2020-11-13T19:20:51.694Z</time>
      </trkpt>
      <trkpt lat="45.75883" lon="4.34081">
        <ele>480.85375976562</ele>
        <time>2020-11-13T19:21:03.934Z</time>
      </trkpt>
      <trkpt lat="45.75931" lon="4.34122">
        <ele>479.48840332031</ele>
        <time>2020-11-13T19:21:16.183Z</time>
      </trkpt>
      <trkpt lat="45.75981" lon="4.34166">
        <ele>477.59182739258</ele>
        <time>2020-11-13T19:21:28.441Z</time>
      </trkpt>
      <trkpt lat="45.76047" lon="4.34223">
        <ele>477.43469238281</ele>
        <time>2020-11-13T19:21:40.711Z</time>
      </trkpt>
      <trkpt lat="45.76069" lon="4.34243">
        <ele>478.1767578125</ele>
        <time>2020-11-13T19:21:52.986Z</time>
      </trkpt>
      <trkpt lat="45.76093" lon="4.34268">
        <ele>478.93264770508</ele>
        <time>2020-11-13T19:22:05.265Z</time>
      </trkpt>
      <trkpt lat="45.76128" lon="4.34311">
        <ele>478.96517944336</ele>
        <time>2020-11-13T19:22:17.552Z</time>
      </trkpt>
      <trkpt lat="45.76141" lon="4.34329">
        <ele>478.5595703125</ele>
        <time>2020-11-13T19:22:29.842Z</time>
      </trkpt>
      <trkpt lat="45.76182" lon="4.34398">
        <ele>475.92984008789</ele>
        <time>2020-11-13T19:22:42.142Z</time>
      </trkpt>
      <trkpt lat="45.76216" lon="4.3447">
        <ele>475.27508544922</ele>
        <time>2020-11-13T19:22:54.451Z</time>
      </trkpt>
      <trkpt lat="45.76235" lon="4.34518">
        <ele>475.64236450195</ele>
        <time>2020-11-13T19:23:06.767Z</time>
      </trkpt>
      <trkpt lat="45.76255" lon="4.34567">
        <ele>477.63510131836</ele>
        <time>2020-11-13T19:23:19.089Z</time>
      </trkpt>
      <trkpt lat="45.76282" lon="4.34609">
        <ele>480.37063598633</ele>
        <time>2020-11-13T19:23:31.417Z</time>
      </trkpt>
      <trkpt lat="45.76347" lon="4.34682">
        <ele>480.97006225586</ele>
        <time>2020-11-13T19:23:43.759Z</time>
      </trkpt>
      <trkpt lat="45.76404" lon="4.34746">
        <ele>478.89749145508</ele>
        <time>2020-11-13T19:23:56.112Z</time>
      </trkpt>
      <trkpt lat="45.76432" lon="4.34786">
        <ele>477.87054443359</ele>
        <time>2020-11-13T19:24:08.472Z</time>
      </trkpt>
      <trkpt lat="45.7644" lon="4.34805">
        <ele>477.27066040039</ele>
        <time>2020-11-13T19:24:20.834Z</time>
      </trkpt>
      <trkpt lat="45.76453" lon="4.34849">
        <ele>475.52951049805</ele>
        <time>2020-11-13T19:24:33.201Z</time>
      </trkpt>
      <trkpt lat="45.76462" lon="4.3491">
        <ele>474.0212097168</ele>
        <time>2020-11-13T19:24:45.575Z</time>
      </trkpt>
      <trkpt lat="45.76467" lon="4.34972">
        <ele>474.03045654297</ele>
        <time>2020-11-13T19:24:57.956Z</time>
      </trkpt>
      <trkpt lat="45.76487" lon="4.35215">
        <ele>480.54330444336</ele>
        <time>2020-11-13T19:25:10.365Z</time>
      </trkpt>
      <trkpt lat="45.76486" lon="4.35305">
        <ele>482.94293212891</ele>
        <time>2020-11-13T19:25:22.784Z</time>
      </trkpt>
      <trkpt lat="45.76474" lon="4.35527">
        <ele>492.39929199219</ele>
        <time>2020-11-13T19:25:35.228Z</time>
      </trkpt>
      <trkpt lat="45.76473" lon="4.35581">
        <ele>495.41030883789</ele>
        <time>2020-11-13T19:25:47.678Z</time>
      </trkpt>
      <trkpt lat="45.76476" lon="4.35619">
        <ele>498.39456176758</ele>
        <time>2020-11-13T19:26:00.132Z</time>
      </trkpt>
      <trkpt lat="45.76516" lon="4.35805">
        <ele>508.88522338867</ele>
        <time>2020-11-13T19:26:12.608Z</time>
      </trkpt>
      <trkpt lat="45.76525" lon="4.35851">
        <ele>508.65841674805</ele>
        <time>2020-11-13T19:26:25.089Z</time>
      </trkpt>
      <trkpt lat="45.7653" lon="4.35908">
        <ele>509.35803222656</ele>
        <time>2020-11-13T19:26:37.577Z</time>
      </trkpt>
      <trkpt lat="45.76535" lon="4.35994">
        <ele>511.00994873047</ele>
        <time>2020-11-13T19:26:50.074Z</time>
      </trkpt>
      <trkpt lat="45.76541" lon="4.36029">
        <ele>511.94763183594</ele>
        <time>2020-11-13T19:27:02.575Z</time>
      </trkpt>
      <trkpt lat="45.76547" lon="4.36052">
        <ele>511.32397460938</ele>
        <time>2020-11-13T19:27:15.079Z</time>
      </trkpt>
      <trkpt lat="45.76613" lon="4.36223">
        <ele>506.08877563477</ele>
        <time>2020-11-13T19:27:27.605Z</time>
      </trkpt>
      <trkpt lat="45.76642" lon="4.36299">
        <ele>503.66741943359</ele>
        <time>2020-11-13T19:27:40.141Z</time>
      </trkpt>
      <trkpt lat="45.76656" lon="4.36322">
        <ele>505.45510864258</ele>
        <time>2020-11-13T19:27:52.680Z</time>
      </trkpt>
      <trkpt lat="45.76687" lon="4.3636">
        <ele>509.25848388672</ele>
        <time>2020-11-13T19:28:05.226Z</time>
      </trkpt>
      <trkpt lat="45.76763" lon="4.36434">
        <ele>511.16989135742</ele>
        <time>2020-11-13T19:28:17.786Z</time>
      </trkpt>
      <trkpt lat="45.76789" lon="4.36464">
        <ele>511.14590454102</ele>
        <time>2020-11-13T19:28:30.352Z</time>
      </trkpt>
      <trkpt lat="45.76827" lon="4.3651">
        <ele>511.73950195312</ele>
        <time>2020-11-13T19:28:42.926Z</time>
      </trkpt>
      <trkpt lat="45.76849" lon="4.36547">
        <ele>512.29913330078</ele>
        <time>2020-11-13T19:28:55.505Z</time>
      </trkpt>
      <trkpt lat="45.76878" lon="4.3661">
        <ele>514.11901855469</ele>
        <time>2020-11-13T19:29:08.093Z</time>
      </trkpt>
      <trkpt lat="45.76886" lon="4.36634">
        <ele>514.60943603516</ele>
        <time>2020-11-13T19:29:20.684Z</time>
      </trkpt>
      <trkpt lat="45.76891" lon="4.3666">
        <ele>514.79284667969</ele>
        <time>2020-11-13T19:29:33.278Z</time>
      </trkpt>
      <trkpt lat="45.76893" lon="4.36682">
        <ele>514.74487304688</ele>
        <time>2020-11-13T19:29:45.874Z</time>
      </trkpt>
      <trkpt lat="45.76887" lon="4.36746">
        <ele>511.07662963867</ele>
        <time>2020-11-13T19:29:58.477Z</time>
      </trkpt>
      <trkpt lat="45.76892" lon="4.36782">
        <ele>509.39529418945</ele>
        <time>2020-11-13T19:30:11.084Z</time>
      </trkpt>
      <trkpt lat="45.769" lon="4.36805">
        <ele>509.72351074219</ele>
        <time>2020-11-13T19:30:23.694Z</time>
      </trkpt>
      <trkpt lat="45.76911" lon="4.3682">
        <ele>510.29940795898</ele>
        <time>2020-11-13T19:30:36.307Z</time>
      </trkpt>
      <trkpt lat="45.76933" lon="4.36835">
        <ele>511.27127075195</ele>
        <time>2020-11-13T19:30:48.924Z</time>
      </trkpt>
      <trkpt lat="45.76997" lon="4.36855">
        <ele>516.04461669922</ele>
        <time>2020-11-13T19:31:01.551Z</time>
      </trkpt>
      <trkpt lat="45.77017" lon="4.36868">
        <ele>517.18444824219</ele>
        <time>2020-11-13T19:31:14.182Z</time>
      </trkpt>
      <trkpt lat="45.77084" lon="4.36933">
        <ele>520.77606201172</ele>
        <time>2020-11-13T19:31:26.826Z</time>
      </trkpt>
      <trkpt lat="45.77114" lon="4.36971">
        <ele>521.89965820312</ele>
        <time>2020-11-13T19:31:39.476Z</time>
      </trkpt>
      <trkpt lat="45.77145" lon="4.3701">
        <ele>523.05633544922</ele>
        <time>2020-11-13T19:31:52.133Z</time>
      </trkpt>
      <trkpt lat="45.77172" lon="4.37049">
        <ele>524.85400390625</ele>
        <time>2020-11-13T19:32:04.796Z</time>
      </trkpt>
      <trkpt lat="45.77191" lon="4.37087">
        <ele>525.66870117188</ele>
        <time>2020-11-13T19:32:17.464Z</time>
      </trkpt>
      <trkpt lat="45.77197" lon="4.37126">
        <ele>525.66247558594</ele>
        <time>2020-11-13T19:32:30.136Z</time>
      </trkpt>
      <trkpt lat="45.77211" lon="4.3724">
        <ele>524.36614990234</ele>
        <time>2020-11-13T19:32:42.821Z</time>
      </trkpt>
      <trkpt lat="45.77215" lon="4.37257">
        <ele>523.77825927734</ele>
        <time>2020-11-13T19:32:55.508Z</time>
      </trkpt>
      <trkpt lat="45.77225" lon="4.37281">
        <ele>523.19299316406</ele>
        <time>2020-11-13T19:33:08.199Z</time>
      </trkpt>
      <trkpt lat="45.77238" lon="4.37298">
        <ele>523.80334472656</ele>
        <time>2020-11-13T19:33:20.892Z</time>
      </trkpt>
      <trkpt lat="45.77241" lon="4.3732">
        <ele>523.49139404297</ele>
        <time>2020-11-13T19:33:33.588Z</time>
      </trkpt>
      <trkpt lat="45.77241" lon="4.37347">
        <ele>522.84350585938</ele>
        <time>2020-11-13T19:33:46.287Z</time>
      </trkpt>
      <trkpt lat="45.77231" lon="4.37372">
        <ele>522.05932617188</ele>
        <time>2020-11-13T19:33:58.989Z</time>
      </trkpt>
      <trkpt lat="45.7723" lon="4.37373">
        <ele>522.03533935547</ele>
        <time>2020-11-13T19:34:11.691Z</time>
      </trkpt>
      <trkpt lat="45.7723" lon="4.37374">
        <ele>522.06689453125</ele>
        <time>2020-11-13T19:34:24.393Z</time>
      </trkpt>
      <trkpt lat="45.77228" lon="4.37376">
        <ele>521.92291259766</ele>
        <time>2020-11-13T19:34:37.096Z</time>
      </trkpt>
      <trkpt lat="45.77228" lon="4.37379">
        <ele>521.99487304688</ele>
        <time>2020-11-13T19:34:49.799Z</time>
      </trkpt>
      <trkpt lat="45.77227" lon="4.37384">
        <ele>522.01892089844</ele>
        <time>2020-11-13T19:35:02.503Z</time>
      </trkpt>
      <trkpt lat="45.7723" lon="4.37394">
        <ele>522.54681396484</ele>
        <time>2020-11-13T19:35:15.208Z</time>
      </trkpt>
      <trkpt lat="45.77233" lon="4.37397">
        <ele>522.90673828125</ele>
        <time>2020-11-13T19:35:27.914Z</time>
      </trkpt>
      <trkpt lat="45.77234" lon="4.37397">
        <ele>523.00274658203</ele>
        <time>2020-11-13T19:35:40.620Z</time>
      </trkpt>
      <trkpt lat="45.7724" lon="4.37421">
        <ele>524.15454101562</ele>
        <time>2020-11-13T19:35:53.329Z</time>
      </trkpt>
      <trkpt lat="45.77241" lon="4.37448">
        <ele>524.89727783203</ele>
        <time>2020-11-13T19:36:06.041Z</time>
      </trkpt>
      <trkpt lat="45.77242" lon="4.37492">
        <ele>524.96118164062</ele>
        <time>2020-11-13T19:36:18.758Z</time>
      </trkpt>
      <trkpt lat="45.77249" lon="4.3752">
        <ele>525.46514892578</ele>
        <time>2020-11-13T19:36:31.478Z</time>
      </trkpt>
      <trkpt lat="45.77257" lon="4.37557">
        <ele>525.67211914062</ele>
        <time>2020-11-13T19:36:44.202Z</time>
      </trkpt>
      <trkpt lat="45.77262" lon="4.37602">
        <ele>525.91186523438</ele>
        <time>2020-11-13T19:36:56.931Z</time>
      </trkpt>
      <trkpt lat="45.77267" lon="4.37657">
        <ele>525.88311767578</ele>
        <time>2020-11-13T19:37:09.667Z</time>
      </trkpt>
      <trkpt lat="45.77273" lon="4.37691">
        <ele>526.64239501953</ele>
        <time>2020-11-13T19:37:22.406Z</time>
      </trkpt>
      <trkpt lat="45.77297" lon="4.37783">
        <ele>528.59478759766</ele>
        <time>2020-11-13T19:37:35.156Z</time>
      </trkpt>
      <trkpt lat="45.77326" lon="4.37864">
        <ele>529.0703125</ele>
        <time>2020-11-13T19:37:47.917Z</time>
      </trkpt>
      <trkpt lat="45.77339" lon="4.37992">
        <ele>531.35864257812</ele>
        <time>2020-11-13T19:38:00.692Z</time>
      </trkpt>
      <trkpt lat="45.77347" lon="4.38044">
        <ele>533.22241210938</ele>
        <time>2020-11-13T19:38:13.473Z</time>
      </trkpt>
      <trkpt lat="45.77378" lon="4.382">
        <ele>536.23852539062</ele>
        <time>2020-11-13T19:38:26.272Z</time>
      </trkpt>
      <trkpt lat="45.77384" lon="4.38222">
        <ele>536.09454345703</ele>
        <time>2020-11-13T19:38:39.074Z</time>
      </trkpt>
      <trkpt lat="45.77393" lon="4.38247">
        <ele>536.36431884766</ele>
        <time>2020-11-13T19:38:51.879Z</time>
      </trkpt>
      <trkpt lat="45.77406" lon="4.38278">
        <ele>537.30017089844</ele>
        <time>2020-11-13T19:39:04.688Z</time>
      </trkpt>
      <trkpt lat="45.77427" lon="4.38312">
        <ele>537.34240722656</ele>
        <time>2020-11-13T19:39:17.502Z</time>
      </trkpt>
      <trkpt lat="45.77445" lon="4.38335">
        <ele>537.53436279297</ele>
        <time>2020-11-13T19:39:30.320Z</time>
      </trkpt>
      <trkpt lat="45.77472" lon="4.38366">
        <ele>537.98541259766</ele>
        <time>2020-11-13T19:39:43.144Z</time>
      </trkpt>
      <trkpt lat="45.77493" lon="4.38383">
        <ele>539.15307617188</ele>
        <time>2020-11-13T19:39:55.971Z</time>
      </trkpt>
      <trkpt lat="45.77528" lon="4.38403">
        <ele>542.03259277344</ele>
        <time>2020-11-13T19:40:08.804Z</time>
      </trkpt>
      <trkpt lat="45.77537" lon="4.3841">
        <ele>542.57250976562</ele>
        <time>2020-11-13T19:40:21.639Z</time>
      </trkpt>
      <trkpt lat="45.77568" lon="4.38442">
        <ele>543.41998291016</ele>
        <time>2020-11-13T19:40:34.480Z</time>
      </trkpt>
      <trkpt lat="45.77618" lon="4.38491">
        <ele>544.72778320312</ele>
        <time>2020-11-13T19:40:47.331Z</time>
      </trkpt>
      <trkpt lat="45.77633" lon="4.38508">
        <ele>544.87176513672</ele>
        <time>2020-11-13T19:41:00.185Z</time>
      </trkpt>
      <trkpt lat="45.77651" lon="4.38536">
        <ele>544.54486083984</ele>
        <time>2020-11-13T19:41:13.043Z</time>
      </trkpt>
      <trkpt lat="45.77662" lon="4.38559">
        <ele>544.64367675781</ele>
        <time>2020-11-13T19:41:25.904Z</time>
      </trkpt>
      <trkpt lat="45.77729" lon="4.38743">
        <ele>542.31994628906</ele>
        <time>2020-11-13T19:41:38.789Z</time>
      </trkpt>
      <trkpt lat="45.77743" lon="4.38775">
        <ele>542.24792480469</ele>
        <time>2020-11-13T19:41:51.678Z</time>
      </trkpt>
      <trkpt lat="45.77773" lon="4.38814">
        <ele>544.6484375</ele>
        <time>2020-11-13T19:42:04.573Z</time>
      </trkpt>
      <trkpt lat="45.77789" lon="4.38839">
        <ele>545.86022949219</ele>
        <time>2020-11-13T19:42:17.472Z</time>
      </trkpt>
      <trkpt lat="45.77796" lon="4.38854">
        <ele>546.24420166016</ele>
        <time>2020-11-13T19:42:30.373Z</time>
      </trkpt>
      <trkpt lat="45.7785" lon="4.38968">
        <ele>547.85919189453</ele>
        <time>2020-11-13T19:42:43.290Z</time>
      </trkpt>
      <trkpt lat="45.77875" lon="4.39012">
        <ele>547.76324462891</ele>
        <time>2020-11-13T19:42:56.213Z</time>
      </trkpt>
      <trkpt lat="45.77887" lon="4.39028">
        <ele>548.14715576172</ele>
        <time>2020-11-13T19:43:09.139Z</time>
      </trkpt>
      <trkpt lat="45.77916" lon="4.3906">
        <ele>547.97515869141</ele>
        <time>2020-11-13T19:43:22.070Z</time>
      </trkpt>
      <trkpt lat="45.77941" lon="4.39077">
        <ele>548.53863525391</ele>
        <time>2020-11-13T19:43:35.006Z</time>
      </trkpt>
      <trkpt lat="45.77956" lon="4.39085">
        <ele>549.04254150391</ele>
        <time>2020-11-13T19:43:47.944Z</time>
      </trkpt>
      <trkpt lat="45.77989" lon="4.39096">
        <ele>551.04937744141</ele>
        <time>2020-11-13T19:44:00.888Z</time>
      </trkpt>
      <trkpt lat="45.78027" lon="4.39104">
        <ele>554.12084960938</ele>
        <time>2020-11-13T19:44:13.838Z</time>
      </trkpt>
      <trkpt lat="45.78041" lon="4.39109">
        <ele>555.10467529297</ele>
        <time>2020-11-13T19:44:26.790Z</time>
      </trkpt>
      <trkpt lat="45.78055" lon="4.39123">
        <ele>555.92260742188</ele>
        <time>2020-11-13T19:44:39.745Z</time>
      </trkpt>
      <trkpt lat="45.78105" lon="4.39199">
        <ele>558.54290771484</ele>
        <time>2020-11-13T19:44:52.712Z</time>
      </trkpt>
      <trkpt lat="45.78128" lon="4.39232">
        <ele>557.03118896484</ele>
        <time>2020-11-13T19:45:05.684Z</time>
      </trkpt>
      <trkpt lat="45.7815" lon="4.39248">
        <ele>556.36315917969</ele>
        <time>2020-11-13T19:45:18.660Z</time>
      </trkpt>
      <trkpt lat="45.7816" lon="4.3925">
        <ele>556.29113769531</ele>
        <time>2020-11-13T19:45:31.637Z</time>
      </trkpt>
      <trkpt lat="45.7817" lon="4.39247">
        <ele>556.69909667969</ele>
        <time>2020-11-13T19:45:44.616Z</time>
      </trkpt>
      <trkpt lat="45.78196" lon="4.39245">
        <ele>557.47021484375</ele>
        <time>2020-11-13T19:45:57.599Z</time>
      </trkpt>
      <trkpt lat="45.78197" lon="4.39234">
        <ele>558.82598876953</ele>
        <time>2020-11-13T19:46:10.584Z</time>
      </trkpt>
      <trkpt lat="45.78199" lon="4.39229">
        <ele>559.49786376953</ele>
        <time>2020-11-13T19:46:23.569Z</time>
      </trkpt>
      <trkpt lat="45.78206" lon="4.39217">
        <ele>561.18957519531</ele>
        <time>2020-11-13T19:46:36.556Z</time>
      </trkpt>
      <trkpt lat="45.78225" lon="4.39194">
        <ele>564.43145751953</ele>
        <time>2020-11-13T19:46:49.547Z</time>
      </trkpt>
      <trkpt lat="45.7828" lon="4.39128">
        <ele>569.52673339844</ele>
        <time>2020-11-13T19:47:02.549Z</time>
      </trkpt>
      <trkpt lat="45.78399" lon="4.38971">
        <ele>586.40130615234</ele>
        <time>2020-11-13T19:47:15.577Z</time>
      </trkpt>
      <trkpt lat="45.78412" lon="4.38954">
        <ele>587.35675048828</ele>
        <time>2020-11-13T19:47:28.608Z</time>
      </trkpt>
    </trkseg>
  </trk>
</gpx>